Wetterdaten: Mittwoch, 11.05.2016
Datum Zeit Temp. A. Feuchte A. Luftdruck Regen Wind Richtung Richtung Sonnenschein ET UV Solar Taupunkt Windchill Windben Empfang
11.05.2016 00:00 13,8 C 81 % 1009,4 hPa 0,0 l/m 16,2 km/h (3 Bft) O-NO 78 0 min 0,000 mm 0,0 UV-I 0 W/m 10,6 C 9,3 C 19,3 km/h (3 Bft) 100,00 %
11.05.2016 00:02 13,8 C 81 % 1009,4 hPa 0,0 l/m 15,4 km/h (3 Bft) O-NO 69 0 min 0,000 mm 0,0 UV-I 0 W/m 10,6 C 9,6 C 19,3 km/h (3 Bft) 97,62 %
11.05.2016 00:03 13,8 C 81 % 1009,4 hPa 0,0 l/m 19,1 km/h (3 Bft) O-NO 62 0 min 0,000 mm 0,0 UV-I 0 W/m 10,6 C 8,4 C 24,1 km/h (4 Bft) 96,30 %
11.05.2016 00:04 13,8 C 81 % 1009,4 hPa 0,0 l/m 19,2 km/h (3 Bft) O-NO 67 0 min 0,000 mm 0,0 UV-I 0 W/m 10,6 C 8,4 C 25,7 km/h (4 Bft) 100,00 %
11.05.2016 00:05 13,8 C 81 % 1009,4 hPa 0,0 l/m 21,6 km/h (4 Bft) NO 55 0 min 0,000 mm 0,0 UV-I 0 W/m 10,6 C 7,8 C 25,7 km/h (4 Bft) 96,55 %
11.05.2016 00:06 13,8 C 81 % 1009,4 hPa 0,0 l/m 16,5 km/h (3 Bft) O-NO 71 0 min 0,000 mm 0,0 UV-I 0 W/m 10,6 C 9,2 C 19,3 km/h (3 Bft) 100,00 %
11.05.2016 00:07 13,8 C 81 % 1009,4 hPa 0,0 l/m 14,1 km/h (3 Bft) O-NO 76 0 min 0,000 mm 0,0 UV-I 0 W/m 10,6 C 10,1 C 19,3 km/h (3 Bft) 96,15 %
11.05.2016 00:08 13,8 C 81 % 1009,4 hPa 0,0 l/m 15,6 km/h (3 Bft) O-NO 69 0 min 0,000 mm 0,0 UV-I 0 W/m 10,6 C 9,5 C 24,1 km/h (4 Bft) 95,83 %
11.05.2016 00:09 13,8 C 81 % 1009,4 hPa 0,0 l/m 18,0 km/h (3 Bft) O 80 0 min 0,000 mm 0,0 UV-I 0 W/m 10,6 C 8,8 C 22,5 km/h (4 Bft) 91,30 %
11.05.2016 00:10 13,7 C 81 % 1009,4 hPa 0,0 l/m 13,7 km/h (3 Bft) NO 56 0 min 0,000 mm 0,0 UV-I 0 W/m 10,5 C 10,1 C 20,9 km/h (4 Bft) 95,83 %
11.05.2016 00:11 13,7 C 81 % 1009,5 hPa 0,0 l/m 13,5 km/h (3 Bft) O-NO 65 0 min 0,000 mm 0,0 UV-I 0 W/m 10,5 C 10,2 C 20,9 km/h (4 Bft) 100,00 %
11.05.2016 00:12 13,7 C 81 % 1009,5 hPa 0,0 l/m 19,2 km/h (3 Bft) O-NO 67 0 min 0,000 mm 0,0 UV-I 0 W/m 10,5 C 8,3 C 24,1 km/h (4 Bft) 95,83 %
11.05.2016 00:13 13,7 C 81 % 1009,5 hPa 0,0 l/m 12,7 km/h (3 Bft) O-NO 72 0 min 0,000 mm 0,0 UV-I 0 W/m 10,5 C 10,5 C 16,1 km/h (3 Bft) 100,00 %
11.05.2016 00:14 13,7 C 81 % 1009,5 hPa 0,0 l/m 16,8 km/h (3 Bft) O-NO 61 0 min 0,000 mm 0,0 UV-I 0 W/m 10,5 C 9,0 C 22,5 km/h (4 Bft) 96,30 %
11.05.2016 00:15 13,7 C 81 % 1009,5 hPa 0,0 l/m 16,7 km/h (3 Bft) O-NO 57 0 min 0,000 mm 0,0 UV-I 0 W/m 10,5 C 9,0 C 22,5 km/h (4 Bft) 100,00 %
11.05.2016 00:16 13,7 C 81 % 1009,5 hPa 0,0 l/m 15,1 km/h (3 Bft) O-NO 75 0 min 0,000 mm 0,0 UV-I 0 W/m 10,5 C 9,6 C 22,5 km/h (4 Bft) 96,67 %
11.05.2016 00:17 13,7 C 81 % 1009,5 hPa 0,0 l/m 14,0 km/h (3 Bft) O-NO 73 0 min 0,000 mm 0,0 UV-I 0 W/m 10,5 C 10,0 C 19,3 km/h (3 Bft) 100,00 %
11.05.2016 00:18 13,7 C 82 % 1009,5 hPa 0,0 l/m 14,8 km/h (3 Bft) O 82 0 min 0,000 mm 0,0 UV-I 0 W/m 10,7 C 9,7 C 17,7 km/h (3 Bft) 94,12 %
11.05.2016 00:19 13,7 C 82 % 1009,4 hPa 0,0 l/m 15,1 km/h (3 Bft) O-NO 74 0 min 0,000 mm 0,0 UV-I 0 W/m 10,7 C 9,6 C 22,5 km/h (4 Bft) 97,56 %
11.05.2016 00:20 13,7 C 82 % 1009,4 hPa 0,0 l/m 12,9 km/h (3 Bft) NO 51 0 min 0,000 mm 0,0 UV-I 0 W/m 10,7 C 10,4 C 17,7 km/h (3 Bft) 93,33 %
11.05.2016 00:21 13,6 C 82 % 1009,4 hPa 0,0 l/m 15,7 km/h (3 Bft) O-NO 67 0 min 0,000 mm 0,0 UV-I 0 W/m 10,6 C 9,3 C 20,9 km/h (4 Bft) 96,55 %
11.05.2016 00:22 13,6 C 82 % 1009,4 hPa 0,0 l/m 17,4 km/h (3 Bft) O 80 0 min 0,000 mm 0,0 UV-I 0 W/m 10,6 C 8,7 C 22,5 km/h (4 Bft) 100,00 %
11.05.2016 00:23 13,6 C 82 % 1009,4 hPa 0,0 l/m 17,6 km/h (3 Bft) O-NO 57 0 min 0,000 mm 0,0 UV-I 0 W/m 10,6 C 8,6 C 20,9 km/h (4 Bft) 91,67 %
11.05.2016 00:24 13,6 C 82 % 1009,3 hPa 0,0 l/m 11,9 km/h (2 Bft) O-NO 65 0 min 0,000 mm 0,0 UV-I 0 W/m 10,6 C 10,7 C 20,9 km/h (4 Bft) 95,65 %
11.05.2016 00:25 13,6 C 82 % 1009,3 hPa 0,0 l/m 14,6 km/h (3 Bft) O-NO 70 0 min 0,000 mm 0,0 UV-I 0 W/m 10,6 C 9,6 C 19,3 km/h (3 Bft) 95,83 %
11.05.2016 00:26 13,6 C 82 % 1009,4 hPa 0,0 l/m 12,9 km/h (3 Bft) O-NO 61 0 min 0,000 mm 0,0 UV-I 0 W/m 10,6 C 10,3 C 19,3 km/h (3 Bft) 96,15 %
11.05.2016 00:27 13,6 C 82 % 1009,3 hPa 0,0 l/m 15,2 km/h (3 Bft) NO 40 0 min 0,000 mm 0,0 UV-I 0 W/m 10,6 C 9,4 C 19,3 km/h (3 Bft) 100,00 %
11.05.2016 00:28 13,6 C 82 % 1009,3 hPa 0,0 l/m 14,2 km/h (3 Bft) O-NO 57 0 min 0,000 mm 0,0 UV-I 0 W/m 10,6 C 9,8 C 19,3 km/h (3 Bft) 96,15 %
11.05.2016 00:29 13,6 C 82 % 1009,3 hPa 0,0 l/m 16,5 km/h (3 Bft) O-NO 67 0 min 0,000 mm 0,0 UV-I 0 W/m 10,6 C 9,0 C 22,5 km/h (4 Bft) 100,00 %
11.05.2016 00:30 13,6 C 82 % 1009,3 hPa 0,0 l/m 12,8 km/h (3 Bft) NO 41 0 min 0,000 mm 0,0 UV-I 0 W/m 10,6 C 10,3 C 19,3 km/h (3 Bft) 96,15 %
11.05.2016 00:31 13,5 C 82 % 1009,3 hPa 0,0 l/m 15,2 km/h (3 Bft) NO 53 0 min 0,000 mm 0,0 UV-I 0 W/m 10,5 C 9,3 C 20,9 km/h (4 Bft) 100,00 %
11.05.2016 00:32 13,5 C 82 % 1009,3 hPa 0,0 l/m 17,1 km/h (3 Bft) O-NO 66 0 min 0,000 mm 0,0 UV-I 0 W/m 10,5 C 8,7 C 24,1 km/h (4 Bft) 95,65 %
11.05.2016 00:33 13,5 C 82 % 1009,3 hPa 0,0 l/m 17,4 km/h (3 Bft) O 85 0 min 0,000 mm 0,0 UV-I 0 W/m 10,5 C 8,6 C 19,3 km/h (3 Bft) 100,00 %
11.05.2016 00:34 13,5 C 82 % 1009,3 hPa 0,0 l/m 11,6 km/h (2 Bft) O-NO 69 0 min 0,000 mm 0,0 UV-I 0 W/m 10,5 C 10,7 C 19,3 km/h (3 Bft) 96,15 %
11.05.2016 00:35 13,5 C 82 % 1009,3 hPa 0,0 l/m 17,5 km/h (3 Bft) NO 42 0 min 0,000 mm 0,0 UV-I 0 W/m 10,5 C 8,5 C 22,5 km/h (4 Bft) 100,00 %
11.05.2016 00:36 13,4 C 82 % 1009,2 hPa 0,0 l/m 18,2 km/h (3 Bft) O 90 0 min 0,000 mm 0,0 UV-I 0 W/m 10,4 C 8,2 C 25,7 km/h (4 Bft) 95,65 %
11.05.2016 00:37 13,4 C 82 % 1009,2 hPa 0,0 l/m 14,1 km/h (3 Bft) O-NO 67 0 min 0,000 mm 0,0 UV-I 0 W/m 10,4 C 9,6 C 17,7 km/h (3 Bft) 100,00 %
11.05.2016 00:38 13,4 C 82 % 1009,2 hPa 0,0 l/m 14,2 km/h (3 Bft) O-NO 71 0 min 0,000 mm 0,0 UV-I 0 W/m 10,4 C 9,5 C 19,3 km/h (3 Bft) 96,15 %
11.05.2016 00:39 13,4 C 82 % 1009,2 hPa 0,0 l/m 17,9 km/h (3 Bft) O-NO 67 0 min 0,000 mm 0,0 UV-I 0 W/m 10,4 C 8,3 C 22,5 km/h (4 Bft) 100,00 %
11.05.2016 00:40 13,4 C 82 % 1009,2 hPa 0,0 l/m 18,3 km/h (3 Bft) O-NO 62 0 min 0,000 mm 0,0 UV-I 0 W/m 10,4 C 8,2 C 25,7 km/h (4 Bft) 96,15 %
11.05.2016 00:41 13,4 C 82 % 1009,2 hPa 0,0 l/m 17,1 km/h (3 Bft) O-NO 61 0 min 0,000 mm 0,0 UV-I 0 W/m 10,4 C 8,5 C 20,9 km/h (4 Bft) 100,00 %
11.05.2016 00:42 13,4 C 82 % 1009,2 hPa 0,0 l/m 15,0 km/h (3 Bft) O 96 0 min 0,000 mm 0,0 UV-I 0 W/m 10,4 C 9,3 C 20,9 km/h (4 Bft) 100,00 %
11.05.2016 00:43 13,4 C 82 % 1009,2 hPa 0,0 l/m 11,7 km/h (2 Bft) O-NO 63 0 min 0,000 mm 0,0 UV-I 0 W/m 10,4 C 10,6 C 16,1 km/h (3 Bft) 95,65 %
11.05.2016 00:44 13,4 C 82 % 1009,2 hPa 0,0 l/m 12,8 km/h (3 Bft) O-NO 67 0 min 0,000 mm 0,0 UV-I 0 W/m 10,4 C 10,1 C 20,9 km/h (4 Bft) 100,00 %
11.05.2016 00:45 13,4 C 82 % 1009,2 hPa 0,0 l/m 19,7 km/h (3 Bft) O-NO 65 0 min 0,000 mm 0,0 UV-I 0 W/m 10,4 C 7,8 C 22,5 km/h (4 Bft) 100,00 %
11.05.2016 00:46 13,4 C 82 % 1009,2 hPa 0,0 l/m 15,0 km/h (3 Bft) NO 55 0 min 0,000 mm 0,0 UV-I 0 W/m 10,4 C 9,3 C 19,3 km/h (3 Bft) 100,00 %
11.05.2016 00:47 13,4 C 82 % 1009,2 hPa 0,0 l/m 15,0 km/h (3 Bft) O-NO 63 0 min 0,000 mm 0,0 UV-I 0 W/m 10,4 C 9,3 C 19,3 km/h (3 Bft) 92,31 %
11.05.2016 00:48 13,3 C 82 % 1009,2 hPa 0,0 l/m 15,3 km/h (3 Bft) O-NO 78 0 min 0,000 mm 0,0 UV-I 0 W/m 10,3 C 9,0 C 20,9 km/h (4 Bft) 100,00 %
11.05.2016 00:49 13,4 C 82 % 1009,2 hPa 0,0 l/m 19,3 km/h (3 Bft) O-NO 78 0 min 0,000 mm 0,0 UV-I 0 W/m 10,4 C 7,9 C 29,0 km/h (5 Bft) 100,00 %
11.05.2016 00:50 13,3 C 82 % 1009,2 hPa 0,0 l/m 17,1 km/h (3 Bft) NO 55 0 min 0,000 mm 0,0 UV-I 0 W/m 10,3 C 8,4 C 24,1 km/h (4 Bft) 100,00 %
11.05.2016 00:51 13,3 C 83 % 1009,2 hPa 0,0 l/m 18,4 km/h (3 Bft) O-NO 77 0 min 0,000 mm 0,0 UV-I 0 W/m 10,5 C 8,0 C 25,7 km/h (4 Bft) 100,00 %
11.05.2016 00:52 13,3 C 82 % 1009,1 hPa 0,0 l/m 14,4 km/h (3 Bft) O-NO 65 0 min 0,000 mm 0,0 UV-I 0 W/m 10,3 C 9,4 C 19,3 km/h (3 Bft) 100,00 %
11.05.2016 00:53 13,3 C 83 % 1009,2 hPa 0,0 l/m 16,0 km/h (3 Bft) O-NO 73 0 min 0,000 mm 0,0 UV-I 0 W/m 10,5 C 8,8 C 19,3 km/h (3 Bft) 96,15 %
11.05.2016 00:54 13,3 C 83 % 1009,1 hPa 0,0 l/m 17,1 km/h (3 Bft) O-NO 63 0 min 0,000 mm 0,0 UV-I 0 W/m 10,5 C 8,4 C 22,5 km/h (4 Bft) 96,30 %
11.05.2016 00:55 13,3 C 83 % 1009,1 hPa 0,0 l/m 16,7 km/h (3 Bft) O-NO 77 0 min 0,000 mm 0,0 UV-I 0 W/m 10,5 C 8,5 C 20,9 km/h (4 Bft) 95,65 %
11.05.2016 00:56 13,3 C 83 % 1009,0 hPa 0,0 l/m 13,2 km/h (3 Bft) NO 52 0 min 0,000 mm 0,0 UV-I 0 W/m 10,5 C 9,8 C 16,1 km/h (3 Bft) 100,00 %
11.05.2016 00:57 13,3 C 83 % 1009,1 hPa 0,0 l/m 9,7 km/h (2 Bft) NO 53 0 min 0,000 mm 0,0 UV-I 0 W/m 10,5 C 11,4 C 14,5 km/h (3 Bft) 100,00 %
11.05.2016 00:58 13,3 C 83 % 1009,1 hPa 0,0 l/m 16,5 km/h (3 Bft) O-NO 63 0 min 0,000 mm 0,0 UV-I 0 W/m 10,5 C 8,6 C 24,1 km/h (4 Bft) 100,00 %
11.05.2016 00:59 13,3 C 83 % 1009,1 hPa 0,0 l/m 14,7 km/h (3 Bft) NO 53 0 min 0,000 mm 0,0 UV-I 0 W/m 10,5 C 9,2 C 19,3 km/h (3 Bft) 92,31 %
11.05.2016 01:00 13,3 C 83 % 1009,1 hPa 0,0 l/m 14,0 km/h (3 Bft) O-NO 65 0 min 0,025 mm 0,0 UV-I 0 W/m 10,5 C 9,5 C 17,7 km/h (3 Bft) 100,00 %
11.05.2016 01:01 13,3 C 83 % 1009,1 hPa 0,0 l/m 12,5 km/h (3 Bft) NO 46 0 min 0,000 mm 0,0 UV-I 0 W/m 10,5 C 10,1 C 16,1 km/h (3 Bft) 100,00 %
11.05.2016 01:02 13,3 C 83 % 1009,1 hPa 0,0 l/m 10,8 km/h (2 Bft) O-NO 65 0 min 0,000 mm 0,0 UV-I 0 W/m 10,5 C 10,9 C 14,5 km/h (3 Bft) 100,00 %
11.05.2016 01:03 13,3 C 83 % 1009,1 hPa 0,0 l/m 10,7 km/h (2 Bft) O-NO 57 0 min 0,000 mm 0,0 UV-I 0 W/m 10,5 C 10,9 C 14,5 km/h (3 Bft) 100,00 %
11.05.2016 01:04 13,3 C 83 % 1009,1 hPa 0,0 l/m 15,4 km/h (3 Bft) NO 55 0 min 0,000 mm 0,0 UV-I 0 W/m 10,5 C 9,0 C 19,3 km/h (3 Bft) 100,00 %
11.05.2016 01:05 13,2 C 83 % 1009,1 hPa 0,0 l/m 13,3 km/h (3 Bft) NO 50 0 min 0,000 mm 0,0 UV-I 0 W/m 10,4 C 9,7 C 17,7 km/h (3 Bft) 100,00 %
11.05.2016 01:06 13,2 C 83 % 1009,1 hPa 0,0 l/m 9,0 km/h (2 Bft) O-NO 73 0 min 0,000 mm 0,0 UV-I 0 W/m 10,4 C 11,6 C 14,5 km/h (3 Bft) 100,00 %
11.05.2016 01:07 13,2 C 83 % 1009,1 hPa 0,0 l/m 13,8 km/h (3 Bft) O-NO 78 0 min 0,000 mm 0,0 UV-I 0 W/m 10,4 C 9,5 C 17,7 km/h (3 Bft) 100,00 %
11.05.2016 01:08 13,2 C 83 % 1009,1 hPa 0,0 l/m 12,1 km/h (2 Bft) O-NO 72 0 min 0,000 mm 0,0 UV-I 0 W/m 10,4 C 10,2 C 17,7 km/h (3 Bft) 100,00 %
11.05.2016 01:09 13,2 C 83 % 1009,1 hPa 0,0 l/m 17,4 km/h (3 Bft) NO 44 0 min 0,000 mm 0,0 UV-I 0 W/m 10,4 C 8,2 C 20,9 km/h (4 Bft) 100,00 %
11.05.2016 01:10 13,2 C 83 % 1009,1 hPa 0,0 l/m 13,6 km/h (3 Bft) O-NO 58 0 min 0,000 mm 0,0 UV-I 0 W/m 10,4 C 9,5 C 17,7 km/h (3 Bft) 96,15 %
11.05.2016 01:11 13,2 C 83 % 1009,1 hPa 0,0 l/m 11,0 km/h (2 Bft) O-NO 62 0 min 0,000 mm 0,0 UV-I 0 W/m 10,4 C 10,6 C 16,1 km/h (3 Bft) 100,00 %
11.05.2016 01:12 13,2 C 83 % 1009,1 hPa 0,0 l/m 9,0 km/h (2 Bft) NO 55 0 min 0,000 mm 0,0 UV-I 0 W/m 10,4 C 11,6 C 12,9 km/h (3 Bft) 90,91 %
11.05.2016 01:13 13,2 C 83 % 1009,1 hPa 0,0 l/m 10,9 km/h (2 Bft) O 82 0 min 0,000 mm 0,0 UV-I 0 W/m 10,4 C 10,7 C 17,7 km/h (3 Bft) 100,00 %
11.05.2016 01:14 13,2 C 83 % 1009,1 hPa 0,0 l/m 10,0 km/h (2 Bft) O 80 0 min 0,000 mm 0,0 UV-I 0 W/m 10,4 C 11,1 C 12,9 km/h (3 Bft) 100,00 %
11.05.2016 01:15 13,2 C 83 % 1009,1 hPa 0,0 l/m 10,5 km/h (2 Bft) NO 34 0 min 0,000 mm 0,0 UV-I 0 W/m 10,4 C 10,9 C 14,5 km/h (3 Bft) 100,00 %
11.05.2016 01:16 13,2 C 83 % 1009,1 hPa 0,0 l/m 10,0 km/h (2 Bft) O-NO 74 0 min 0,000 mm 0,0 UV-I 0 W/m 10,4 C 11,1 C 17,7 km/h (3 Bft) 97,89 %
11.05.2016 01:17 13,2 C 83 % 1009,1 hPa 0,0 l/m 10,0 km/h (2 Bft) NO 46 0 min 0,000 mm 0,0 UV-I 0 W/m 10,4 C 11,1 C 12,9 km/h (3 Bft) 100,00 %
11.05.2016 01:18 13,1 C 83 % 1009,1 hPa 0,0 l/m 14,7 km/h (3 Bft) O-NO 59 0 min 0,000 mm 0,0 UV-I 0 W/m 10,3 C 9,0 C 20,9 km/h (4 Bft) 95,65 %
11.05.2016 01:19 13,1 C 83 % 1009,1 hPa 0,0 l/m 15,8 km/h (3 Bft) NO 56 0 min 0,000 mm 0,0 UV-I 0 W/m 10,3 C 8,6 C 20,9 km/h (4 Bft) 100,00 %
11.05.2016 01:20 13,1 C 83 % 1009,1 hPa 0,0 l/m 11,3 km/h (2 Bft) O-NO 59 0 min 0,000 mm 0,0 UV-I 0 W/m 10,3 C 10,4 C 16,1 km/h (3 Bft) 100,00 %
11.05.2016 01:21 13,1 C 83 % 1009,2 hPa 0,0 l/m 9,3 km/h (2 Bft) O-NO 76 0 min 0,000 mm 0,0 UV-I 0 W/m 10,3 C 11,4 C 14,5 km/h (3 Bft) 100,00 %
11.05.2016 01:22 13,1 C 84 % 1009,1 hPa 0,0 l/m 8,6 km/h (2 Bft) O-NO 61 0 min 0,000 mm 0,0 UV-I 0 W/m 10,5 C 11,8 C 11,3 km/h (2 Bft) 100,00 %
11.05.2016 01:23 13,1 C 84 % 1009,1 hPa 0,0 l/m 10,2 km/h (2 Bft) O-NO 59 0 min 0,000 mm 0,0 UV-I 0 W/m 10,5 C 10,9 C 14,5 km/h (3 Bft) 100,00 %
11.05.2016 01:24 13,1 C 84 % 1009,1 hPa 0,0 l/m 11,1 km/h (2 Bft) O-NO 70 0 min 0,000 mm 0,0 UV-I 0 W/m 10,5 C 10,5 C 17,7 km/h (3 Bft) 96,97 %
11.05.2016 01:25 13,1 C 84 % 1009,1 hPa 0,0 l/m 8,9 km/h (2 Bft) O-NO 74 0 min 0,000 mm 0,0 UV-I 0 W/m 10,5 C 11,6 C 14,5 km/h (3 Bft) 100,00 %
11.05.2016 01:26 13,1 C 84 % 1009,1 hPa 0,0 l/m 8,4 km/h (2 Bft) O-NO 74 0 min 0,000 mm 0,0 UV-I 0 W/m 10,5 C 11,9 C 16,1 km/h (3 Bft) 100,00 %
11.05.2016 01:27 13,0 C 84 % 1009,1 hPa 0,0 l/m 12,5 km/h (3 Bft) O-NO 62 0 min 0,000 mm 0,0 UV-I 0 W/m 10,4 C 9,8 C 19,3 km/h (3 Bft) 100,00 %
11.05.2016 01:28 13,0 C 84 % 1009,1 hPa 0,0 l/m 15,9 km/h (3 Bft) NO 53 0 min 0,000 mm 0,0 UV-I 0 W/m 10,4 C 8,4 C 20,9 km/h (4 Bft) 100,00 %
11.05.2016 01:29 13,0 C 84 % 1009,0 hPa 0,0 l/m 15,0 km/h (3 Bft) O-NO 75 0 min 0,000 mm 0,0 UV-I 0 W/m 10,4 C 8,8 C 20,9 km/h (4 Bft) 100,00 %
11.05.2016 01:30 13,0 C 84 % 1009,1 hPa 0,0 l/m 14,3 km/h (3 Bft) O-NO 57 0 min 0,000 mm 0,0 UV-I 0 W/m 10,4 C 9,0 C 19,3 km/h (3 Bft) 100,00 %
11.05.2016 01:31 13,0 C 84 % 1009,1 hPa 0,0 l/m 10,2 km/h (2 Bft) O 79 0 min 0,000 mm 0,0 UV-I 0 W/m 10,4 C 10,8 C 14,5 km/h (3 Bft) 100,00 %
11.05.2016 01:32 13,0 C 84 % 1009,1 hPa 0,0 l/m 10,4 km/h (2 Bft) O 82 0 min 0,000 mm 0,0 UV-I 0 W/m 10,4 C 10,7 C 14,5 km/h (3 Bft) 100,00 %
11.05.2016 01:33 13,0 C 84 % 1009,0 hPa 0,0 l/m 9,7 km/h (2 Bft) O 88 0 min 0,000 mm 0,0 UV-I 0 W/m 10,4 C 11,1 C 12,9 km/h (3 Bft) 100,00 %
11.05.2016 01:34 13,0 C 84 % 1009,1 hPa 0,0 l/m 5,6 km/h (1 Bft) NO 54 0 min 0,000 mm 0,0 UV-I 0 W/m 10,4 C 13,0 C 8,0 km/h (2 Bft) 100,00 %
11.05.2016 01:35 13,0 C 84 % 1009,1 hPa 0,0 l/m 6,5 km/h (2 Bft) O-NO 68 0 min 0,000 mm 0,0 UV-I 0 W/m 10,4 C 13,0 C 8,0 km/h (2 Bft) 100,00 %
11.05.2016 01:36 13,0 C 84 % 1009,1 hPa 0,0 l/m 8,4 km/h (2 Bft) NO 54 0 min 0,000 mm 0,0 UV-I 0 W/m 10,4 C 11,8 C 12,9 km/h (3 Bft) 100,00 %
11.05.2016 01:37 12,9 C 84 % 1009,1 hPa 0,0 l/m 10,0 km/h (2 Bft) O-NO 67 0 min 0,000 mm 0,0 UV-I 0 W/m 10,3 C 10,8 C 12,9 km/h (3 Bft) 93,10 %
11.05.2016 01:38 12,9 C 84 % 1009,0 hPa 0,0 l/m 10,3 km/h (2 Bft) O-NO 68 0 min 0,000 mm 0,0 UV-I 0 W/m 10,3 C 10,6 C 16,1 km/h (3 Bft) 100,00 %
11.05.2016 01:39 12,9 C 84 % 1009,0 hPa 0,0 l/m 12,8 km/h (3 Bft) NO 55 0 min 0,000 mm 0,0 UV-I 0 W/m 10,3 C 9,5 C 17,7 km/h (3 Bft) 100,00 %
11.05.2016 01:40 12,9 C 84 % 1009,0 hPa 0,0 l/m 13,1 km/h (3 Bft) O-NO 60 0 min 0,000 mm 0,0 UV-I 0 W/m 10,3 C 9,4 C 17,7 km/h (3 Bft) 100,00 %
11.05.2016 01:41 12,9 C 84 % 1009,0 hPa 0,0 l/m 6,4 km/h (2 Bft) N-NO 30 0 min 0,000 mm 0,0 UV-I 0 W/m 10,3 C 12,9 C 9,7 km/h (2 Bft) 100,00 %
11.05.2016 01:42 12,9 C 84 % 1009,0 hPa 0,0 l/m 8,0 km/h (2 Bft) NO 51 0 min 0,000 mm 0,0 UV-I 0 W/m 10,3 C 11,9 C 11,3 km/h (2 Bft) 100,00 %
11.05.2016 01:43 12,9 C 84 % 1008,9 hPa 0,0 l/m 11,8 km/h (2 Bft) O-NO 65 0 min 0,000 mm 0,0 UV-I 0 W/m 10,3 C 9,9 C 17,7 km/h (3 Bft) 100,00 %
11.05.2016 01:44 12,9 C 84 % 1008,9 hPa 0,0 l/m 10,9 km/h (2 Bft) O-NO 63 0 min 0,000 mm 0,0 UV-I 0 W/m 10,3 C 10,4 C 17,7 km/h (3 Bft) 100,00 %
11.05.2016 01:45 12,9 C 84 % 1008,9 hPa 0,0 l/m 12,8 km/h (3 Bft) NO 46 0 min 0,000 mm 0,0 UV-I 0 W/m 10,3 C 9,5 C 16,1 km/h (3 Bft) 96,97 %
11.05.2016 01:46 12,9 C 84 % 1008,9 hPa 0,0 l/m 12,1 km/h (2 Bft) NO 36 0 min 0,000 mm 0,0 UV-I 0 W/m 10,3 C 9,8 C 17,7 km/h (3 Bft) 100,00 %
11.05.2016 01:47 12,9 C 84 % 1008,9 hPa 0,0 l/m 18,2 km/h (3 Bft) NO 54 0 min 0,000 mm 0,0 UV-I 0 W/m 10,3 C 7,6 C 20,9 km/h (4 Bft) 100,00 %
11.05.2016 01:48 12,9 C 84 % 1008,9 hPa 0,0 l/m 13,0 km/h (3 Bft) NO 38 0 min 0,000 mm 0,0 UV-I 0 W/m 10,3 C 9,4 C 17,7 km/h (3 Bft) 100,00 %
11.05.2016 01:49 12,9 C 84 % 1008,9 hPa 0,0 l/m 14,1 km/h (3 Bft) O-NO 60 0 min 0,000 mm 0,0 UV-I 0 W/m 10,3 C 9,0 C 19,3 km/h (3 Bft) 100,00 %
11.05.2016 01:50 12,9 C 84 % 1008,8 hPa 0,0 l/m 12,8 km/h (3 Bft) NO 52 0 min 0,000 mm 0,0 UV-I 0 W/m 10,3 C 9,5 C 17,7 km/h (3 Bft) 100,00 %
11.05.2016 01:51 12,8 C 84 % 1008,8 hPa 0,0 l/m 11,5 km/h (2 Bft) NO 48 0 min 0,000 mm 0,0 UV-I 0 W/m 10,2 C 10,0 C 17,7 km/h (3 Bft) 100,00 %
11.05.2016 01:52 12,8 C 84 % 1008,8 hPa 0,0 l/m 15,2 km/h (3 Bft) O-NO 59 0 min 0,000 mm 0,0 UV-I 0 W/m 10,2 C 8,5 C 20,9 km/h (4 Bft) 100,00 %
11.05.2016 01:53 12,8 C 84 % 1008,8 hPa 0,0 l/m 10,3 km/h (2 Bft) N-NO 15 0 min 0,000 mm 0,0 UV-I 0 W/m 10,2 C 10,5 C 14,5 km/h (3 Bft) 95,83 %
11.05.2016 01:54 12,8 C 84 % 1008,7 hPa 0,0 l/m 10,4 km/h (2 Bft) O-NO 60 0 min 0,000 mm 0,0 UV-I 0 W/m 10,2 C 10,5 C 14,5 km/h (3 Bft) 90,91 %
11.05.2016 01:55 12,8 C 84 % 1008,7 hPa 0,0 l/m 11,2 km/h (2 Bft) O-NO 66 0 min 0,000 mm 0,0 UV-I 0 W/m 10,2 C 10,1 C 14,5 km/h (3 Bft) 100,00 %
11.05.2016 01:56 12,8 C 84 % 1008,7 hPa 0,0 l/m 10,5 km/h (2 Bft) N-NO 28 0 min 0,000 mm 0,0 UV-I 0 W/m 10,2 C 10,4 C 16,1 km/h (3 Bft) 100,00 %
11.05.2016 01:57 12,8 C 84 % 1008,7 hPa 0,0 l/m 16,7 km/h (3 Bft) O-NO 63 0 min 0,000 mm 0,0 UV-I 0 W/m 10,2 C 7,9 C 24,1 km/h (4 Bft) 100,00 %
11.05.2016 01:58 12,8 C 84 % 1008,7 hPa 0,0 l/m 12,4 km/h (3 Bft) NO 46 0 min 0,000 mm 0,0 UV-I 0 W/m 10,2 C 9,6 C 16,1 km/h (3 Bft) 96,15 %
11.05.2016 01:59 12,8 C 84 % 1008,7 hPa 0,0 l/m 10,8 km/h (2 Bft) NO 52 0 min 0,000 mm 0,0 UV-I 0 W/m 10,2 C 10,3 C 16,1 km/h (3 Bft) 100,00 %
11.05.2016 02:00 12,8 C 85 % 1008,7 hPa 0,0 l/m 9,7 km/h (2 Bft) O-NO 65 0 min 0,000 mm 0,0 UV-I 0 W/m 10,3 C 10,8 C 16,1 km/h (3 Bft) 96,15 %
11.05.2016 02:01 12,8 C 85 % 1008,7 hPa 0,0 l/m 12,2 km/h (2 Bft) N-NO 24 0 min 0,026 mm 0,0 UV-I 0 W/m 10,3 C 9,7 C 16,1 km/h (3 Bft) 96,30 %
11.05.2016 02:02 12,8 C 85 % 1008,6 hPa 0,0 l/m 13,0 km/h (3 Bft) O-NO 67 0 min 0,000 mm 0,0 UV-I 0 W/m 10,3 C 9,3 C 17,7 km/h (3 Bft) 100,00 %
11.05.2016 02:03 12,8 C 85 % 1008,6 hPa 0,0 l/m 12,7 km/h (3 Bft) O 80 0 min 0,000 mm 0,0 UV-I 0 W/m 10,3 C 9,4 C 16,1 km/h (3 Bft) 93,33 %
11.05.2016 02:04 12,8 C 85 % 1008,6 hPa 0,0 l/m 9,6 km/h (2 Bft) O-NO 65 0 min 0,000 mm 0,0 UV-I 0 W/m 10,3 C 10,9 C 16,1 km/h (3 Bft) 100,00 %
11.05.2016 02:05 12,8 C 85 % 1008,7 hPa 0,0 l/m 12,6 km/h (3 Bft) NO 40 0 min 0,000 mm 0,0 UV-I 0 W/m 10,3 C 9,5 C 16,1 km/h (3 Bft) 96,15 %
11.05.2016 02:06 12,8 C 85 % 1008,7 hPa 0,0 l/m 10,5 km/h (2 Bft) O-NO 76 0 min 0,000 mm 0,0 UV-I 0 W/m 10,3 C 10,4 C 14,5 km/h (3 Bft) 100,00 %
11.05.2016 02:07 12,8 C 85 % 1008,7 hPa 0,0 l/m 9,1 km/h (2 Bft) N-NO 32 0 min 0,000 mm 0,0 UV-I 0 W/m 10,3 C 11,2 C 12,9 km/h (3 Bft) 95,65 %
11.05.2016 02:08 12,8 C 85 % 1008,7 hPa 0,0 l/m 11,3 km/h (2 Bft) O 80 0 min 0,000 mm 0,0 UV-I 0 W/m 10,3 C 10,1 C 16,1 km/h (3 Bft) 96,30 %
11.05.2016 02:09 12,7 C 85 % 1008,7 hPa 0,0 l/m 9,2 km/h (2 Bft) O-NO 66 0 min 0,000 mm 0,0 UV-I 0 W/m 10,2 C 11,0 C 16,1 km/h (3 Bft) 100,00 %
11.05.2016 02:10 12,7 C 85 % 1008,7 hPa 0,0 l/m 8,4 km/h (2 Bft) NO 45 0 min 0,000 mm 0,0 UV-I 0 W/m 10,2 C 11,5 C 14,5 km/h (3 Bft) 96,67 %
11.05.2016 02:11 12,7 C 85 % 1008,7 hPa 0,0 l/m 14,2 km/h (3 Bft) O-NO 65 0 min 0,000 mm 0,0 UV-I 0 W/m 10,2 C 8,7 C 20,9 km/h (4 Bft) 100,00 %
11.05.2016 02:12 12,7 C 85 % 1008,7 hPa 0,0 l/m 11,0 km/h (2 Bft) O-NO 75 0 min 0,000 mm 0,0 UV-I 0 W/m 10,2 C 10,1 C 14,5 km/h (3 Bft) 96,67 %
11.05.2016 02:13 12,7 C 85 % 1008,8 hPa 0,0 l/m 11,0 km/h (2 Bft) O-NO 64 0 min 0,000 mm 0,0 UV-I 0 W/m 10,2 C 10,1 C 16,1 km/h (3 Bft) 100,00 %
11.05.2016 02:14 12,7 C 85 % 1008,7 hPa 0,0 l/m 12,2 km/h (2 Bft) O-NO 60 0 min 0,000 mm 0,0 UV-I 0 W/m 10,2 C 9,5 C 17,7 km/h (3 Bft) 93,33 %
11.05.2016 02:15 12,7 C 85 % 1008,7 hPa 0,0 l/m 7,2 km/h (2 Bft) NO 51 0 min 0,000 mm 0,0 UV-I 0 W/m 10,2 C 12,2 C 9,7 km/h (2 Bft) 100,00 %
11.05.2016 02:16 12,7 C 85 % 1008,7 hPa 0,0 l/m 7,8 km/h (2 Bft) NO 49 0 min 0,000 mm 0,0 UV-I 0 W/m 10,2 C 11,8 C 14,5 km/h (3 Bft) 96,30 %
11.05.2016 02:17 12,7 C 85 % 1008,7 hPa 0,0 l/m 10,9 km/h (2 Bft) NO 52 0 min 0,000 mm 0,0 UV-I 0 W/m 10,2 C 10,1 C 17,7 km/h (3 Bft) 100,00 %
11.05.2016 02:18 12,7 C 85 % 1008,7 hPa 0,0 l/m 13,2 km/h (3 Bft) O-NO 61 0 min 0,000 mm 0,0 UV-I 0 W/m 10,2 C 9,1 C 16,1 km/h (3 Bft) 91,67 %
11.05.2016 02:19 12,7 C 85 % 1008,7 hPa 0,0 l/m 11,6 km/h (2 Bft) O-NO 59 0 min 0,000 mm 0,0 UV-I 0 W/m 10,2 C 9,8 C 19,3 km/h (3 Bft) 100,00 %
11.05.2016 02:20 12,7 C 85 % 1008,7 hPa 0,0 l/m 13,0 km/h (3 Bft) O-NO 76 0 min 0,000 mm 0,0 UV-I 0 W/m 10,2 C 9,2 C 16,1 km/h (3 Bft) 91,30 %
11.05.2016 02:21 12,7 C 85 % 1008,7 hPa 0,0 l/m 8,8 km/h (2 Bft) O-NO 67 0 min 0,000 mm 0,0 UV-I 0 W/m 10,2 C 11,2 C 14,5 km/h (3 Bft) 95,83 %
11.05.2016 02:22 12,7 C 85 % 1008,6 hPa 0,0 l/m 11,8 km/h (2 Bft) O-NO 72 0 min 0,000 mm 0,0 UV-I 0 W/m 10,2 C 9,7 C 16,1 km/h (3 Bft) 100,00 %
11.05.2016 02:23 12,7 C 85 % 1008,7 hPa 0,0 l/m 15,8 km/h (3 Bft) O 80 0 min 0,000 mm 0,0 UV-I 0 W/m 10,2 C 8,1 C 20,9 km/h (4 Bft) 96,15 %
11.05.2016 02:24 12,7 C 85 % 1008,6 hPa 0,0 l/m 13,6 km/h (3 Bft) O-NO 72 0 min 0,000 mm 0,0 UV-I 0 W/m 10,2 C 8,9 C 17,7 km/h (3 Bft) 100,00 %
11.05.2016 02:25 12,7 C 85 % 1008,7 hPa 0,0 l/m 14,4 km/h (3 Bft) NO 42 0 min 0,000 mm 0,0 UV-I 0 W/m 10,2 C 8,6 C 19,3 km/h (3 Bft) 96,67 %
11.05.2016 02:26 12,7 C 85 % 1008,6 hPa 0,0 l/m 15,6 km/h (3 Bft) NO 47 0 min 0,000 mm 0,0 UV-I 0 W/m 10,2 C 8,2 C 19,3 km/h (3 Bft) 93,10 %
11.05.2016 02:27 12,7 C 85 % 1008,6 hPa 0,0 l/m 13,9 km/h (3 Bft) NO 44 0 min 0,000 mm 0,0 UV-I 0 W/m 10,2 C 8,8 C 17,7 km/h (3 Bft) 100,00 %
11.05.2016 02:28 12,7 C 85 % 1008,6 hPa 0,0 l/m 15,4 km/h (3 Bft) NO 49 0 min 0,000 mm 0,0 UV-I 0 W/m 10,2 C 8,3 C 19,3 km/h (3 Bft) 96,15 %
11.05.2016 02:29 12,6 C 85 % 1008,6 hPa 0,0 l/m 14,8 km/h (3 Bft) O-NO 72 0 min 0,000 mm 0,0 UV-I 0 W/m 10,1 C 8,4 C 17,7 km/h (3 Bft) 100,00 %
11.05.2016 02:30 12,6 C 85 % 1008,6 hPa 0,0 l/m 16,1 km/h (3 Bft) O 89 0 min 0,000 mm 0,0 UV-I 0 W/m 10,1 C 7,9 C 20,9 km/h (4 Bft) 94,12 %
11.05.2016 02:31 12,7 C 85 % 1008,6 hPa 0,0 l/m 12,8 km/h (3 Bft) NO 42 0 min 0,000 mm 0,0 UV-I 0 W/m 10,2 C 9,3 C 16,1 km/h (3 Bft) 100,00 %
11.05.2016 02:32 12,7 C 85 % 1008,6 hPa 0,0 l/m 10,9 km/h (2 Bft) O-NO 71 0 min 0,000 mm 0,0 UV-I 0 W/m 10,2 C 10,1 C 16,1 km/h (3 Bft) 95,65 %
11.05.2016 02:33 12,6 C 85 % 1008,6 hPa 0,0 l/m 8,7 km/h (2 Bft) O-NO 74 0 min 0,000 mm 0,0 UV-I 0 W/m 10,1 C 11,2 C 12,9 km/h (3 Bft) 100,00 %
11.05.2016 02:34 12,6 C 85 % 1008,5 hPa 0,0 l/m 11,3 km/h (2 Bft) O-NO 70 0 min 0,000 mm 0,0 UV-I 0 W/m 10,1 C 9,8 C 19,3 km/h (3 Bft) 100,00 %
11.05.2016 02:35 12,6 C 85 % 1008,6 hPa 0,0 l/m 12,6 km/h (3 Bft) O-NO 74 0 min 0,000 mm 0,0 UV-I 0 W/m 10,1 C 9,2 C 16,1 km/h (3 Bft) 100,00 %
11.05.2016 02:36 12,6 C 85 % 1008,6 hPa 0,0 l/m 11,4 km/h (2 Bft) O 80 0 min 0,000 mm 0,0 UV-I 0 W/m 10,1 C 9,8 C 17,7 km/h (3 Bft) 92,86 %
11.05.2016 02:37 12,6 C 85 % 1008,5 hPa 0,0 l/m 6,8 km/h (2 Bft) O-NO 62 0 min 0,000 mm 0,0 UV-I 0 W/m 10,1 C 12,4 C 9,7 km/h (2 Bft) 100,00 %
11.05.2016 02:38 12,6 C 85 % 1008,6 hPa 0,0 l/m 12,4 km/h (3 Bft) O-NO 70 0 min 0,000 mm 0,0 UV-I 0 W/m 10,1 C 9,3 C 17,7 km/h (3 Bft) 100,00 %
11.05.2016 02:39 12,6 C 85 % 1008,6 hPa 0,0 l/m 12,6 km/h (3 Bft) NO 44 0 min 0,000 mm 0,0 UV-I 0 W/m 10,1 C 9,2 C 19,3 km/h (3 Bft) 96,55 %
11.05.2016 02:40 12,6 C 85 % 1008,5 hPa 0,0 l/m 16,2 km/h (3 Bft) O-NO 72 0 min 0,000 mm 0,0 UV-I 0 W/m 10,1 C 7,9 C 19,3 km/h (3 Bft) 100,00 %
11.05.2016 02:41 12,6 C 85 % 1008,5 hPa 0,0 l/m 12,8 km/h (3 Bft) O 80 0 min 0,000 mm 0,0 UV-I 0 W/m 10,1 C 9,2 C 20,9 km/h (4 Bft) 100,00 %
11.05.2016 02:42 12,6 C 85 % 1008,5 hPa 0,0 l/m 15,9 km/h (3 Bft) NO 55 0 min 0,000 mm 0,0 UV-I 0 W/m 10,1 C 8,0 C 22,5 km/h (4 Bft) 100,00 %
11.05.2016 02:43 12,6 C 85 % 1008,5 hPa 0,0 l/m 18,9 km/h (3 Bft) NO 45 0 min 0,000 mm 0,0 UV-I 0 W/m 10,1 C 7,0 C 24,1 km/h (4 Bft) 91,30 %
11.05.2016 02:44 12,6 C 85 % 1008,5 hPa 0,0 l/m 17,6 km/h (3 Bft) O-NO 64 0 min 0,000 mm 0,0 UV-I 0 W/m 10,1 C 7,4 C 20,9 km/h (4 Bft) 100,00 %
11.05.2016 02:45 12,6 C 85 % 1008,6 hPa 0,0 l/m 14,3 km/h (3 Bft) NO 46 0 min 0,000 mm 0,0 UV-I 0 W/m 10,1 C 8,6 C 19,3 km/h (3 Bft) 100,00 %
11.05.2016 02:46 12,6 C 85 % 1008,6 hPa 0,0 l/m 14,7 km/h (3 Bft) O-NO 59 0 min 0,000 mm 0,0 UV-I 0 W/m 10,1 C 8,4 C 20,9 km/h (4 Bft) 100,00 %
11.05.2016 02:47 12,6 C 85 % 1008,5 hPa 0,0 l/m 11,3 km/h (2 Bft) NO 44 0 min 0,000 mm 0,0 UV-I 0 W/m 10,1 C 9,8 C 16,1 km/h (3 Bft) 100,00 %
11.05.2016 02:48 12,6 C 85 % 1008,5 hPa 0,0 l/m 8,4 km/h (2 Bft) O-NO 58 0 min 0,000 mm 0,0 UV-I 0 W/m 10,1 C 11,3 C 12,9 km/h (3 Bft) 100,00 %
11.05.2016 02:49 12,6 C 85 % 1008,6 hPa 0,0 l/m 11,3 km/h (2 Bft) O-NO 63 0 min 0,000 mm 0,0 UV-I 0 W/m 10,1 C 9,8 C 14,5 km/h (3 Bft) 100,00 %
11.05.2016 02:50 12,6 C 85 % 1008,6 hPa 0,0 l/m 8,7 km/h (2 Bft) NO 55 0 min 0,000 mm 0,0 UV-I 0 W/m 10,1 C 11,2 C 17,7 km/h (3 Bft) 100,00 %
11.05.2016 02:51 12,6 C 85 % 1008,6 hPa 0,0 l/m 12,6 km/h (3 Bft) NO 49 0 min 0,000 mm 0,0 UV-I 0 W/m 10,1 C 9,2 C 17,7 km/h (3 Bft) 100,00 %
11.05.2016 02:52 12,6 C 85 % 1008,6 hPa 0,0 l/m 12,1 km/h (2 Bft) NO 52 0 min 0,000 mm 0,0 UV-I 0 W/m 10,1 C 9,5 C 17,7 km/h (3 Bft) 100,00 %
11.05.2016 02:53 12,6 C 85 % 1008,6 hPa 0,0 l/m 10,3 km/h (2 Bft) O-NO 62 0 min 0,000 mm 0,0 UV-I 0 W/m 10,1 C 10,3 C 16,1 km/h (3 Bft) 100,00 %
11.05.2016 02:54 12,6 C 85 % 1008,6 hPa 0,0 l/m 12,0 km/h (2 Bft) O-NO 74 0 min 0,000 mm 0,0 UV-I 0 W/m 10,1 C 9,5 C 20,9 km/h (4 Bft) 100,00 %
11.05.2016 02:55 12,5 C 85 % 1008,5 hPa 0,0 l/m 15,6 km/h (3 Bft) O-NO 65 0 min 0,000 mm 0,0 UV-I 0 W/m 10,0 C 7,9 C 20,9 km/h (4 Bft) 95,65 %
11.05.2016 02:56 12,5 C 85 % 1008,5 hPa 0,0 l/m 14,7 km/h (3 Bft) O-NO 63 0 min 0,000 mm 0,0 UV-I 0 W/m 10,0 C 8,3 C 17,7 km/h (3 Bft) 100,00 %
11.05.2016 02:57 12,5 C 85 % 1008,6 hPa 0,0 l/m 16,7 km/h (3 Bft) O-NO 69 0 min 0,000 mm 0,0 UV-I 0 W/m 10,0 C 7,6 C 20,9 km/h (4 Bft) 100,00 %
11.05.2016 02:58 12,5 C 85 % 1008,5 hPa 0,0 l/m 13,2 km/h (3 Bft) O 79 0 min 0,000 mm 0,0 UV-I 0 W/m 10,0 C 8,9 C 16,1 km/h (3 Bft) 100,00 %
11.05.2016 02:59 12,5 C 85 % 1008,5 hPa 0,0 l/m 12,6 km/h (3 Bft) O-NO 67 0 min 0,000 mm 0,0 UV-I 0 W/m 10,0 C 9,1 C 16,1 km/h (3 Bft) 100,00 %
11.05.2016 03:00 12,5 C 85 % 1008,5 hPa 0,0 l/m 14,1 km/h (3 Bft) NO 51 0 min 0,025 mm 0,0 UV-I 0 W/m 10,0 C 8,5 C 19,3 km/h (3 Bft) 100,00 %
11.05.2016 03:02 12,5 C 85 % 1008,5 hPa 0,0 l/m 13,9 km/h (3 Bft) O-NO 58 0 min 0,000 mm 0,0 UV-I 0 W/m 10,0 C 8,6 C 19,3 km/h (3 Bft) 100,00 %
11.05.2016 03:03 12,5 C 85 % 1008,5 hPa 0,0 l/m 12,3 km/h (3 Bft) O 99 0 min 0,000 mm 0,0 UV-I 0 W/m 10,0 C 9,3 C 20,9 km/h (4 Bft) 100,00 %
11.05.2016 03:04 12,4 C 85 % 1008,5 hPa 0,0 l/m 12,7 km/h (3 Bft) NO 40 0 min 0,000 mm 0,0 UV-I 0 W/m 9,9 C 9,0 C 20,9 km/h (4 Bft) 100,00 %
11.05.2016 03:05 12,5 C 85 % 1008,5 hPa 0,0 l/m 12,1 km/h (2 Bft) O-NO 72 0 min 0,000 mm 0,0 UV-I 0 W/m 10,0 C 9,3 C 16,1 km/h (3 Bft) 100,00 %
11.05.2016 03:06 12,4 C 85 % 1008,5 hPa 0,0 l/m 14,0 km/h (3 Bft) NO 51 0 min 0,000 mm 0,0 UV-I 0 W/m 9,9 C 8,4 C 17,7 km/h (3 Bft) 100,00 %
11.05.2016 03:07 12,4 C 85 % 1008,5 hPa 0,0 l/m 14,9 km/h (3 Bft) O-NO 67 0 min 0,000 mm 0,0 UV-I 0 W/m 9,9 C 8,1 C 20,9 km/h (4 Bft) 100,00 %
11.05.2016 03:08 12,4 C 85 % 1008,5 hPa 0,0 l/m 16,6 km/h (3 Bft) O-NO 59 0 min 0,000 mm 0,0 UV-I 0 W/m 9,9 C 7,5 C 20,9 km/h (4 Bft) 100,00 %
11.05.2016 03:09 12,4 C 85 % 1008,5 hPa 0,0 l/m 13,9 km/h (3 Bft) O-NO 59 0 min 0,000 mm 0,0 UV-I 0 W/m 9,9 C 8,5 C 17,7 km/h (3 Bft) 100,00 %
11.05.2016 03:10 12,4 C 85 % 1008,5 hPa 0,0 l/m 14,0 km/h (3 Bft) O-NO 61 0 min 0,000 mm 0,0 UV-I 0 W/m 9,9 C 8,4 C 17,7 km/h (3 Bft) 100,00 %
11.05.2016 03:11 12,4 C 85 % 1008,5 hPa 0,0 l/m 15,3 km/h (3 Bft) O-NO 74 0 min 0,000 mm 0,0 UV-I 0 W/m 9,9 C 7,9 C 20,9 km/h (4 Bft) 95,83 %
11.05.2016 03:12 12,4 C 85 % 1008,5 hPa 0,0 l/m 13,0 km/h (3 Bft) O-NO 65 0 min 0,000 mm 0,0 UV-I 0 W/m 9,9 C 8,8 C 17,7 km/h (3 Bft) 100,00 %
11.05.2016 03:13 12,4 C 85 % 1008,5 hPa 0,0 l/m 12,9 km/h (3 Bft) NO 38 0 min 0,000 mm 0,0 UV-I 0 W/m 9,9 C 8,9 C 16,1 km/h (3 Bft) 100,00 %
11.05.2016 03:14 12,4 C 85 % 1008,4 hPa 0,0 l/m 19,2 km/h (3 Bft) O-NO 71 0 min 0,000 mm 0,0 UV-I 0 W/m 9,9 C 6,6 C 22,5 km/h (4 Bft) 92,86 %
11.05.2016 03:15 12,4 C 85 % 1008,4 hPa 0,0 l/m 17,1 km/h (3 Bft) O-NO 59 0 min 0,000 mm 0,0 UV-I 0 W/m 9,9 C 7,3 C 19,3 km/h (3 Bft) 100,00 %
11.05.2016 03:16 12,4 C 85 % 1008,4 hPa 0,0 l/m 18,9 km/h (3 Bft) NO 44 0 min 0,000 mm 0,0 UV-I 0 W/m 9,9 C 6,7 C 25,7 km/h (4 Bft) 96,55 %
11.05.2016 03:17 12,4 C 85 % 1008,3 hPa 0,0 l/m 16,5 km/h (3 Bft) O-NO 67 0 min 0,000 mm 0,0 UV-I 0 W/m 9,9 C 7,5 C 19,3 km/h (3 Bft) 100,00 %
11.05.2016 03:18 12,4 C 85 % 1008,3 hPa 0,0 l/m 14,0 km/h (3 Bft) O-NO 76 0 min 0,000 mm 0,0 UV-I 0 W/m 9,9 C 8,4 C 17,7 km/h (3 Bft) 96,15 %
11.05.2016 03:19 12,4 C 85 % 1008,3 hPa 0,0 l/m 19,0 km/h (3 Bft) O-NO 62 0 min 0,000 mm 0,0 UV-I 0 W/m 9,9 C 6,7 C 24,1 km/h (4 Bft) 100,00 %
11.05.2016 03:20 12,4 C 85 % 1008,3 hPa 0,0 l/m 18,2 km/h (3 Bft) NO 50 0 min 0,000 mm 0,0 UV-I 0 W/m 9,9 C 6,9 C 24,1 km/h (4 Bft) 100,00 %
11.05.2016 03:21 12,4 C 85 % 1008,3 hPa 0,0 l/m 18,9 km/h (3 Bft) NO 51 0 min 0,000 mm 0,0 UV-I 0 W/m 9,9 C 6,7 C 25,7 km/h (4 Bft) 100,00 %
11.05.2016 03:22 12,4 C 85 % 1008,3 hPa 0,0 l/m 21,5 km/h (4 Bft) NO 52 0 min 0,000 mm 0,0 UV-I 0 W/m 9,9 C 6,0 C 25,7 km/h (4 Bft) 96,88 %
11.05.2016 03:23 12,4 C 85 % 1008,3 hPa 0,0 l/m 18,3 km/h (3 Bft) NO 55 0 min 0,000 mm 0,0 UV-I 0 W/m 9,9 C 6,9 C 20,9 km/h (4 Bft) 98,39 %
11.05.2016 03:24 12,4 C 85 % 1008,3 hPa 0,0 l/m 21,7 km/h (4 Bft) O-NO 60 0 min 0,000 mm 0,0 UV-I 0 W/m 9,9 C 5,9 C 27,4 km/h (4 Bft) 97,78 %
11.05.2016 03:25 12,4 C 85 % 1008,3 hPa 0,0 l/m 21,5 km/h (4 Bft) NO 43 0 min 0,000 mm 0,0 UV-I 0 W/m 9,9 C 6,0 C 27,4 km/h (4 Bft) 100,00 %
11.05.2016 03:26 12,4 C 85 % 1008,2 hPa 0,0 l/m 18,7 km/h (3 Bft) NO 34 0 min 0,000 mm 0,0 UV-I 0 W/m 9,9 C 6,8 C 24,1 km/h (4 Bft) 100,00 %
11.05.2016 03:27 12,4 C 86 % 1008,2 hPa 0,0 l/m 18,3 km/h (3 Bft) NO 46 0 min 0,000 mm 0,0 UV-I 0 W/m 10,1 C 6,9 C 24,1 km/h (4 Bft) 100,00 %
11.05.2016 03:28 12,3 C 85 % 1008,2 hPa 0,0 l/m 17,7 km/h (3 Bft) O-NO 60 0 min 0,000 mm 0,0 UV-I 0 W/m 9,9 C 7,0 C 24,1 km/h (4 Bft) 100,00 %
11.05.2016 03:29 12,3 C 85 % 1008,2 hPa 0,0 l/m 20,8 km/h (4 Bft) NO 40 0 min 0,000 mm 0,0 UV-I 0 W/m 9,9 C 6,0 C 25,7 km/h (4 Bft) 100,00 %
11.05.2016 03:30 12,3 C 85 % 1008,2 hPa 0,0 l/m 16,0 km/h (3 Bft) NO 42 0 min 0,000 mm 0,0 UV-I 0 W/m 9,9 C 7,6 C 19,3 km/h (3 Bft) 100,00 %
11.05.2016 03:31 12,3 C 85 % 1008,2 hPa 0,0 l/m 17,7 km/h (3 Bft) O-NO 76 0 min 0,000 mm 0,0 UV-I 0 W/m 9,9 C 7,0 C 22,5 km/h (4 Bft) 100,00 %
11.05.2016 03:32 12,3 C 86 % 1008,2 hPa 0,0 l/m 15,0 km/h (3 Bft) O-NO 74 0 min 0,000 mm 0,0 UV-I 0 W/m 10,0 C 7,9 C 19,3 km/h (3 Bft) 95,83 %
11.05.2016 03:33 12,3 C 86 % 1008,2 hPa 0,0 l/m 14,9 km/h (3 Bft) O-NO 71 0 min 0,000 mm 0,0 UV-I 0 W/m 10,0 C 8,0 C 22,5 km/h (4 Bft) 100,00 %
11.05.2016 03:34 12,3 C 86 % 1008,2 hPa 0,0 l/m 15,1 km/h (3 Bft) O-NO 76 0 min 0,000 mm 0,0 UV-I 0 W/m 10,0 C 7,9 C 24,1 km/h (4 Bft) 100,00 %
11.05.2016 03:35 12,3 C 86 % 1008,1 hPa 0,0 l/m 20,5 km/h (4 Bft) O-NO 69 0 min 0,000 mm 0,0 UV-I 0 W/m 10,0 C 6,1 C 27,4 km/h (4 Bft) 100,00 %
11.05.2016 03:36 12,3 C 86 % 1008,1 hPa 0,0 l/m 21,3 km/h (4 Bft) NO 34 0 min 0,000 mm 0,0 UV-I 0 W/m 10,0 C 5,9 C 27,4 km/h (4 Bft) 100,00 %
11.05.2016 03:37 12,3 C 86 % 1008,2 hPa 0,0 l/m 13,7 km/h (3 Bft) NO 49 0 min 0,000 mm 0,0 UV-I 0 W/m 10,0 C 8,4 C 19,3 km/h (3 Bft) 100,00 %
11.05.2016 03:38 12,3 C 86 % 1008,1 hPa 0,0 l/m 14,4 km/h (3 Bft) O 80 0 min 0,000 mm 0,0 UV-I 0 W/m 10,0 C 8,2 C 19,3 km/h (3 Bft) 100,00 %
11.05.2016 03:39 12,2 C 86 % 1008,1 hPa 0,0 l/m 15,4 km/h (3 Bft) NO 50 0 min 0,000 mm 0,0 UV-I 0 W/m 9,9 C 7,6 C 20,9 km/h (4 Bft) 100,00 %
11.05.2016 03:40 12,2 C 86 % 1008,1 hPa 0,0 l/m 13,7 km/h (3 Bft) O-NO 61 0 min 0,000 mm 0,0 UV-I 0 W/m 9,9 C 8,3 C 19,3 km/h (3 Bft) 100,00 %
11.05.2016 03:41 12,2 C 86 % 1008,1 hPa 0,0 l/m 13,5 km/h (3 Bft) O-NO 60 0 min 0,000 mm 0,0 UV-I 0 W/m 9,9 C 8,4 C 19,3 km/h (3 Bft) 100,00 %
11.05.2016 03:42 12,2 C 86 % 1008,1 hPa 0,0 l/m 8,7 km/h (2 Bft) O-NO 69 0 min 0,000 mm 0,0 UV-I 0 W/m 9,9 C 10,7 C 14,5 km/h (3 Bft) 100,00 %
11.05.2016 03:43 12,2 C 86 % 1008,2 hPa 0,0 l/m 15,1 km/h (3 Bft) O-NO 74 0 min 0,000 mm 0,0 UV-I 0 W/m 9,9 C 7,8 C 20,9 km/h (4 Bft) 100,00 %
11.05.2016 03:44 12,2 C 86 % 1008,2 hPa 0,0 l/m 17,0 km/h (3 Bft) O 93 0 min 0,000 mm 0,0 UV-I 0 W/m 9,9 C 7,1 C 20,9 km/h (4 Bft) 100,00 %
11.05.2016 03:45 12,2 C 86 % 1008,2 hPa 0,0 l/m 13,8 km/h (3 Bft) O-NO 67 0 min 0,000 mm 0,0 UV-I 0 W/m 9,9 C 8,3 C 20,9 km/h (4 Bft) 100,00 %
11.05.2016 03:46 12,2 C 86 % 1008,2 hPa 0,0 l/m 12,9 km/h (3 Bft) NO 48 0 min 0,000 mm 0,0 UV-I 0 W/m 9,9 C 8,6 C 22,5 km/h (4 Bft) 100,00 %
11.05.2016 03:47 12,2 C 86 % 1008,2 hPa 0,0 l/m 16,6 km/h (3 Bft) O-NO 67 0 min 0,000 mm 0,0 UV-I 0 W/m 9,9 C 7,2 C 24,1 km/h (4 Bft) 100,00 %
11.05.2016 03:48 12,2 C 86 % 1008,2 hPa 0,0 l/m 14,9 km/h (3 Bft) O-NO 75 0 min 0,000 mm 0,0 UV-I 0 W/m 9,9 C 7,8 C 20,9 km/h (4 Bft) 100,00 %
11.05.2016 03:49 12,2 C 86 % 1008,2 hPa 0,0 l/m 14,9 km/h (3 Bft) NO 35 0 min 0,000 mm 0,0 UV-I 0 W/m 9,9 C 7,8 C 19,3 km/h (3 Bft) 100,00 %
11.05.2016 03:50 12,2 C 86 % 1008,1 hPa 0,0 l/m 22,2 km/h (4 Bft) O-NO 74 0 min 0,000 mm 0,0 UV-I 0 W/m 9,9 C 5,5 C 25,7 km/h (4 Bft) 98,54 %
11.05.2016 03:51 12,2 C 86 % 1008,1 hPa 0,0 l/m 22,4 km/h (4 Bft) O-NO 75 0 min 0,000 mm 0,0 UV-I 0 W/m 9,9 C 5,5 C 29,0 km/h (5 Bft) 100,00 %
11.05.2016 03:52 12,2 C 86 % 1008,1 hPa 0,0 l/m 21,5 km/h (4 Bft) NO 36 0 min 0,000 mm 0,0 UV-I 0 W/m 9,9 C 5,7 C 25,7 km/h (4 Bft) 100,00 %
11.05.2016 03:53 12,2 C 86 % 1008,1 hPa 0,0 l/m 19,3 km/h (3 Bft) O-NO 65 0 min 0,000 mm 0,0 UV-I 0 W/m 9,9 C 6,3 C 25,7 km/h (4 Bft) 93,33 %
11.05.2016 03:54 12,2 C 86 % 1008,0 hPa 0,0 l/m 20,1 km/h (4 Bft) O-NO 71 0 min 0,000 mm 0,0 UV-I 0 W/m 9,9 C 6,1 C 24,1 km/h (4 Bft) 100,00 %
11.05.2016 03:55 12,1 C 86 % 1008,1 hPa 0,0 l/m 16,5 km/h (3 Bft) NO 45 0 min 0,000 mm 0,0 UV-I 0 W/m 9,8 C 7,1 C 19,3 km/h (3 Bft) 100,00 %
11.05.2016 03:56 12,1 C 86 % 1008,1 hPa 0,0 l/m 12,3 km/h (3 Bft) NO 55 0 min 0,000 mm 0,0 UV-I 0 W/m 9,8 C 8,8 C 17,7 km/h (3 Bft) 100,00 %
11.05.2016 03:57 12,1 C 86 % 1008,0 hPa 0,0 l/m 15,6 km/h (3 Bft) O 79 0 min 0,000 mm 0,0 UV-I 0 W/m 9,8 C 7,5 C 19,3 km/h (3 Bft) 98,57 %
11.05.2016 03:58 12,1 C 86 % 1008,1 hPa 0,0 l/m 13,1 km/h (3 Bft) O-NO 57 0 min 0,000 mm 0,0 UV-I 0 W/m 9,8 C 8,4 C 19,3 km/h (3 Bft) 100,00 %
11.05.2016 03:59 12,1 C 86 % 1008,1 hPa 0,0 l/m 18,2 km/h (3 Bft) O-NO 69 0 min 0,000 mm 0,0 UV-I 0 W/m 9,8 C 6,6 C 24,1 km/h (4 Bft) 100,00 %
11.05.2016 04:00 12,0 C 86 % 1008,0 hPa 0,0 l/m 18,0 km/h (3 Bft) NO 51 0 min 0,000 mm 0,0 UV-I 0 W/m 9,7 C 6,5 C 22,5 km/h (4 Bft) 96,55 %
11.05.2016 04:03 11,9 C 87 % 1008,1 hPa 0,0 l/m 20,1 km/h (4 Bft) O-NO 57 0 min 0,026 mm 0,0 UV-I 0 W/m 9,8 C 5,7 C 29,0 km/h (5 Bft) 98,00 %
11.05.2016 04:04 11,9 C 87 % 1008,1 hPa 0,0 l/m 16,9 km/h (3 Bft) O 98 0 min 0,000 mm 0,0 UV-I 0 W/m 9,8 C 6,7 C 22,5 km/h (4 Bft) 96,67 %
11.05.2016 04:05 11,9 C 87 % 1008,1 hPa 0,0 l/m 16,3 km/h (3 Bft) O 82 0 min 0,000 mm 0,0 UV-I 0 W/m 9,8 C 7,0 C 20,9 km/h (4 Bft) 94,12 %
11.05.2016 04:06 11,9 C 87 % 1008,0 hPa 0,0 l/m 14,9 km/h (3 Bft) O 80 0 min 0,000 mm 0,0 UV-I 0 W/m 9,8 C 7,5 C 19,3 km/h (3 Bft) 100,00 %
11.05.2016 04:07 11,9 C 87 % 1008,1 hPa 0,0 l/m 15,8 km/h (3 Bft) O-NO 74 0 min 0,000 mm 0,0 UV-I 0 W/m 9,8 C 7,1 C 20,9 km/h (4 Bft) 95,65 %
11.05.2016 04:08 11,9 C 87 % 1008,1 hPa 0,0 l/m 16,7 km/h (3 Bft) O-NO 67 0 min 0,000 mm 0,0 UV-I 0 W/m 9,8 C 6,8 C 25,7 km/h (4 Bft) 95,83 %
11.05.2016 04:09 11,9 C 87 % 1008,1 hPa 0,0 l/m 20,3 km/h (4 Bft) O-NO 67 0 min 0,000 mm 0,0 UV-I 0 W/m 9,8 C 5,7 C 30,6 km/h (5 Bft) 95,65 %
11.05.2016 04:10 11,9 C 87 % 1008,0 hPa 0,0 l/m 12,6 km/h (3 Bft) O 88 0 min 0,000 mm 0,0 UV-I 0 W/m 9,8 C 8,4 C 19,3 km/h (3 Bft) 96,30 %
11.05.2016 04:11 11,8 C 87 % 1008,0 hPa 0,0 l/m 13,8 km/h (3 Bft) O-NO 70 0 min 0,000 mm 0,0 UV-I 0 W/m 9,7 C 7,8 C 17,7 km/h (3 Bft) 100,00 %
11.05.2016 04:12 11,8 C 87 % 1008,0 hPa 0,0 l/m 16,2 km/h (3 Bft) O-NO 62 0 min 0,000 mm 0,0 UV-I 0 W/m 9,7 C 6,9 C 22,5 km/h (4 Bft) 96,67 %
11.05.2016 04:13 11,8 C 87 % 1008,0 hPa 0,0 l/m 21,3 km/h (4 Bft) O-NO 67 0 min 0,000 mm 0,0 UV-I 0 W/m 9,7 C 5,2 C 25,7 km/h (4 Bft) 100,00 %
11.05.2016 04:14 11,8 C 87 % 1008,0 hPa 0,0 l/m 20,5 km/h (4 Bft) O-NO 78 0 min 0,000 mm 0,0 UV-I 0 W/m 9,7 C 5,5 C 29,0 km/h (5 Bft) 96,30 %
11.05.2016 04:15 11,8 C 87 % 1008,0 hPa 0,0 l/m 21,1 km/h (4 Bft) O-NO 68 0 min 0,000 mm 0,0 UV-I 0 W/m 9,7 C 5,3 C 24,1 km/h (4 Bft) 97,09 %
11.05.2016 04:16 11,8 C 87 % 1008,0 hPa 0,0 l/m 20,0 km/h (4 Bft) NO 55 0 min 0,000 mm 0,0 UV-I 0 W/m 9,7 C 5,6 C 25,7 km/h (4 Bft) 97,87 %
11.05.2016 04:17 11,8 C 87 % 1008,0 hPa 0,0 l/m 16,2 km/h (3 Bft) O 84 0 min 0,000 mm 0,0 UV-I 0 W/m 9,7 C 6,9 C 25,7 km/h (4 Bft) 100,00 %
11.05.2016 04:18 11,8 C 87 % 1008,0 hPa 0,0 l/m 14,6 km/h (3 Bft) O 86 0 min 0,000 mm 0,0 UV-I 0 W/m 9,7 C 7,5 C 19,3 km/h (3 Bft) 95,83 %
11.05.2016 04:19 11,8 C 87 % 1008,0 hPa 0,0 l/m 12,5 km/h (3 Bft) O 80 0 min 0,000 mm 0,0 UV-I 0 W/m 9,7 C 8,4 C 17,7 km/h (3 Bft) 95,65 %
11.05.2016 04:20 11,7 C 87 % 1007,9 hPa 0,0 l/m 13,3 km/h (3 Bft) O-NO 71 0 min 0,000 mm 0,0 UV-I 0 W/m 9,6 C 7,9 C 19,3 km/h (3 Bft) 100,00 %
11.05.2016 04:21 11,7 C 88 % 1007,9 hPa 0,0 l/m 15,0 km/h (3 Bft) O-SO 115 0 min 0,000 mm 0,0 UV-I 0 W/m 9,8 C 7,2 C 19,3 km/h (3 Bft) 100,00 %
11.05.2016 04:22 11,7 C 88 % 1007,9 hPa 0,0 l/m 16,0 km/h (3 Bft) O-NO 67 0 min 0,000 mm 0,0 UV-I 0 W/m 9,8 C 6,8 C 20,9 km/h (4 Bft) 96,15 %
11.05.2016 04:23 11,7 C 88 % 1007,9 hPa 0,0 l/m 18,7 km/h (3 Bft) O-NO 64 0 min 0,000 mm 0,0 UV-I 0 W/m 9,8 C 5,9 C 24,1 km/h (4 Bft) 96,67 %
11.05.2016 04:24 11,7 C 88 % 1007,9 hPa 0,0 l/m 15,8 km/h (3 Bft) O-NO 59 0 min 0,000 mm 0,0 UV-I 0 W/m 9,8 C 6,9 C 22,5 km/h (4 Bft) 100,00 %
11.05.2016 04:25 11,7 C 88 % 1007,9 hPa 0,0 l/m 13,6 km/h (3 Bft) O-NO 76 0 min 0,000 mm 0,0 UV-I 0 W/m 9,8 C 7,8 C 17,7 km/h (3 Bft) 96,67 %
11.05.2016 04:26 11,7 C 88 % 1007,9 hPa 0,0 l/m 20,6 km/h (4 Bft) O-NO 63 0 min 0,000 mm 0,0 UV-I 0 W/m 9,8 C 5,3 C 27,4 km/h (4 Bft) 100,00 %
11.05.2016 04:27 11,6 C 88 % 1007,8 hPa 0,0 l/m 15,4 km/h (3 Bft) O-NO 59 0 min 0,000 mm 0,0 UV-I 0 W/m 9,7 C 6,9 C 19,3 km/h (3 Bft) 97,47 %
11.05.2016 04:28 11,6 C 88 % 1007,8 hPa 0,0 l/m 14,5 km/h (3 Bft) O-NO 78 0 min 0,000 mm 0,0 UV-I 0 W/m 9,7 C 7,3 C 22,5 km/h (4 Bft) 97,73 %
11.05.2016 04:29 11,6 C 88 % 1007,9 hPa 0,0 l/m 13,8 km/h (3 Bft) O-NO 62 0 min 0,000 mm 0,0 UV-I 0 W/m 9,7 C 7,6 C 19,3 km/h (3 Bft) 96,30 %
11.05.2016 04:30 11,6 C 88 % 1007,9 hPa 0,0 l/m 15,9 km/h (3 Bft) O-NO 78 0 min 0,000 mm 0,0 UV-I 0 W/m 9,7 C 6,7 C 20,9 km/h (4 Bft) 100,00 %
11.05.2016 04:31 11,6 C 88 % 1007,9 hPa 0,0 l/m 13,4 km/h (3 Bft) O 83 0 min 0,000 mm 0,0 UV-I 0 W/m 9,7 C 7,7 C 17,7 km/h (3 Bft) 95,83 %
11.05.2016 04:32 11,6 C 88 % 1007,9 hPa 0,0 l/m 12,9 km/h (3 Bft) O-NO 78 0 min 0,000 mm 0,0 UV-I 0 W/m 9,7 C 7,9 C 16,1 km/h (3 Bft) 91,30 %
11.05.2016 04:33 11,5 C 89 % 1007,9 hPa 0,0 l/m 12,9 km/h (3 Bft) O 80 0 min 0,000 mm 0,0 UV-I 0 W/m 9,8 C 7,8 C 17,7 km/h (3 Bft) 100,00 %
11.05.2016 04:34 11,5 C 89 % 1007,9 hPa 0,0 l/m 18,7 km/h (3 Bft) O-NO 73 0 min 0,000 mm 0,0 UV-I 0 W/m 9,8 C 5,6 C 24,1 km/h (4 Bft) 95,65 %
11.05.2016 04:35 11,5 C 89 % 1007,9 hPa 0,0 l/m 21,4 km/h (4 Bft) O 79 0 min 0,000 mm 0,0 UV-I 0 W/m 9,8 C 4,8 C 25,7 km/h (4 Bft) 100,00 %
11.05.2016 04:36 11,5 C 89 % 1007,9 hPa 0,0 l/m 15,3 km/h (3 Bft) O-NO 65 0 min 0,000 mm 0,0 UV-I 0 W/m 9,8 C 6,8 C 19,3 km/h (3 Bft) 96,55 %
11.05.2016 04:37 11,5 C 89 % 1007,8 hPa 0,0 l/m 19,6 km/h (3 Bft) O-NO 62 0 min 0,000 mm 0,0 UV-I 0 W/m 9,8 C 5,3 C 25,7 km/h (4 Bft) 100,00 %
11.05.2016 04:38 11,5 C 89 % 1007,9 hPa 0,0 l/m 20,2 km/h (4 Bft) O 86 0 min 0,000 mm 0,0 UV-I 0 W/m 9,8 C 5,2 C 30,6 km/h (5 Bft) 100,00 %
11.05.2016 04:39 11,5 C 89 % 1007,9 hPa 0,0 l/m 20,9 km/h (4 Bft) O-NO 57 0 min 0,000 mm 0,0 UV-I 0 W/m 9,8 C 5,0 C 30,6 km/h (5 Bft) 96,15 %
11.05.2016 04:40 11,5 C 89 % 1008,0 hPa 0,0 l/m 19,8 km/h (3 Bft) O 79 0 min 0,000 mm 0,0 UV-I 0 W/m 9,8 C 5,3 C 30,6 km/h (5 Bft) 100,00 %
11.05.2016 04:41 11,4 C 89 % 1008,0 hPa 0,0 l/m 20,3 km/h (4 Bft) NO 52 0 min 0,000 mm 0,0 UV-I 0 W/m 9,7 C 5,0 C 24,1 km/h (4 Bft) 100,00 %
11.05.2016 04:42 11,4 C 89 % 1007,9 hPa 0,0 l/m 13,5 km/h (3 Bft) O-NO 71 0 min 0,000 mm 0,0 UV-I 0 W/m 9,7 C 7,4 C 17,7 km/h (3 Bft) 100,00 %
11.05.2016 04:43 11,4 C 89 % 1008,0 hPa 0,0 l/m 11,0 km/h (2 Bft) O-SO 111 0 min 0,000 mm 0,0 UV-I 0 W/m 9,7 C 8,6 C 17,7 km/h (3 Bft) 100,00 %
11.05.2016 04:44 11,4 C 89 % 1008,0 hPa 0,0 l/m 14,6 km/h (3 Bft) O-NO 70 0 min 0,000 mm 0,0 UV-I 0 W/m 9,7 C 7,0 C 17,7 km/h (3 Bft) 100,00 %
11.05.2016 04:45 11,4 C 89 % 1008,0 hPa 0,0 l/m 15,0 km/h (3 Bft) O-SO 119 0 min 0,000 mm 0,0 UV-I 0 W/m 9,7 C 6,8 C 20,9 km/h (4 Bft) 95,65 %
11.05.2016 04:46 11,5 C 89 % 1008,0 hPa 0,0 l/m 19,3 km/h (3 Bft) O-NO 70 0 min 0,000 mm 0,0 UV-I 0 W/m 9,8 C 5,4 C 30,6 km/h (5 Bft) 100,00 %
11.05.2016 04:47 11,4 C 89 % 1008,0 hPa 0,0 l/m 19,8 km/h (3 Bft) O-NO 67 0 min 0,000 mm 0,0 UV-I 0 W/m 9,7 C 5,2 C 24,1 km/h (4 Bft) 100,00 %
11.05.2016 04:48 11,5 C 89 % 1008,0 hPa 0,0 l/m 18,2 km/h (3 Bft) O 90 0 min 0,000 mm 0,0 UV-I 0 W/m 9,8 C 5,8 C 22,5 km/h (4 Bft) 100,00 %
11.05.2016 04:49 11,4 C 89 % 1008,0 hPa 0,0 l/m 18,5 km/h (3 Bft) O-NO 75 0 min 0,000 mm 0,0 UV-I 0 W/m 9,7 C 5,6 C 22,5 km/h (4 Bft) 100,00 %
11.05.2016 04:50 11,4 C 89 % 1008,1 hPa 0,0 l/m 16,9 km/h (3 Bft) O 80 0 min 0,000 mm 0,0 UV-I 0 W/m 9,7 C 6,1 C 22,5 km/h (4 Bft) 100,00 %
11.05.2016 04:51 11,4 C 89 % 1008,1 hPa 0,0 l/m 14,9 km/h (3 Bft) O-NO 64 0 min 0,000 mm 0,0 UV-I 0 W/m 9,7 C 6,9 C 20,9 km/h (4 Bft) 100,00 %
11.05.2016 04:52 11,4 C 89 % 1008,0 hPa 0,0 l/m 18,2 km/h (3 Bft) O 86 0 min 0,000 mm 0,0 UV-I 0 W/m 9,7 C 5,7 C 20,9 km/h (4 Bft) 100,00 %
11.05.2016 04:53 11,4 C 89 % 1008,0 hPa 0,0 l/m 16,5 km/h (3 Bft) NO 55 0 min 0,000 mm 0,0 UV-I 0 W/m 9,7 C 6,3 C 22,5 km/h (4 Bft) 100,00 %
11.05.2016 04:54 11,4 C 89 % 1008,0 hPa 0,0 l/m 21,2 km/h (4 Bft) O-NO 67 0 min 0,000 mm 0,0 UV-I 0 W/m 9,7 C 4,7 C 29,0 km/h (5 Bft) 100,00 %
11.05.2016 04:55 11,4 C 89 % 1008,0 hPa 0,0 l/m 14,3 km/h (3 Bft) O 82 0 min 0,000 mm 0,0 UV-I 0 W/m 9,7 C 7,1 C 19,3 km/h (3 Bft) 97,56 %
11.05.2016 04:56 11,4 C 90 % 1008,0 hPa 0,0 l/m 15,6 km/h (3 Bft) O 82 0 min 0,000 mm 0,0 UV-I 0 W/m 9,8 C 6,6 C 19,3 km/h (3 Bft) 100,00 %
11.05.2016 04:57 11,4 C 90 % 1008,0 hPa 0,0 l/m 14,5 km/h (3 Bft) O 86 0 min 0,000 mm 0,0 UV-I 0 W/m 9,8 C 7,0 C 20,9 km/h (4 Bft) 100,00 %
11.05.2016 04:58 11,4 C 90 % 1008,1 hPa 0,0 l/m 14,1 km/h (3 Bft) O-NO 64 0 min 0,000 mm 0,0 UV-I 0 W/m 9,8 C 7,2 C 20,9 km/h (4 Bft) 96,55 %
11.05.2016 04:59 11,4 C 90 % 1008,0 hPa 0,0 l/m 17,8 km/h (3 Bft) O 79 0 min 0,000 mm 0,0 UV-I 0 W/m 9,8 C 5,8 C 24,1 km/h (4 Bft) 100,00 %
11.05.2016 05:00 11,4 C 90 % 1008,1 hPa 0,0 l/m 15,4 km/h (3 Bft) O-NO 60 0 min 0,025 mm 0,0 UV-I 0 W/m 9,8 C 6,7 C 24,1 km/h (4 Bft) 100,00 %
11.05.2016 05:01 11,4 C 90 % 1008,1 hPa 0,0 l/m 16,5 km/h (3 Bft) O 85 0 min 0,000 mm 0,0 UV-I 0 W/m 9,8 C 6,3 C 22,5 km/h (4 Bft) 100,00 %
11.05.2016 05:02 11,5 C 90 % 1008,0 hPa 0,0 l/m 24,0 km/h (4 Bft) O-NO 64 0 min 0,000 mm 0,0 UV-I 0 W/m 9,9 C 4,1 C 30,6 km/h (5 Bft) 95,65 %
11.05.2016 05:03 11,4 C 90 % 1008,0 hPa 0,0 l/m 18,3 km/h (3 Bft) O-NO 73 0 min 0,000 mm 0,0 UV-I 0 W/m 9,8 C 5,6 C 25,7 km/h (4 Bft) 100,00 %
11.05.2016 05:04 11,4 C 90 % 1008,1 hPa 0,0 l/m 20,7 km/h (4 Bft) O 94 0 min 0,000 mm 0,0 UV-I 0 W/m 9,8 C 4,9 C 29,0 km/h (5 Bft) 100,00 %
11.05.2016 05:05 11,4 C 90 % 1008,0 hPa 0,0 l/m 19,2 km/h (3 Bft) O 80 0 min 0,000 mm 0,0 UV-I 0 W/m 9,8 C 5,3 C 24,1 km/h (4 Bft) 100,00 %
11.05.2016 05:06 11,5 C 90 % 1008,0 hPa 0,0 l/m 22,7 km/h (4 Bft) NO 52 0 min 0,000 mm 0,0 UV-I 0 W/m 9,9 C 4,5 C 30,6 km/h (5 Bft) 100,00 %
11.05.2016 05:07 11,4 C 90 % 1008,0 hPa 0,0 l/m 20,1 km/h (4 Bft) O-NO 74 0 min 0,000 mm 0,0 UV-I 0 W/m 9,8 C 5,1 C 29,0 km/h (5 Bft) 100,00 %
11.05.2016 05:08 11,5 C 90 % 1007,9 hPa 0,0 l/m 16,8 km/h (3 Bft) O-NO 76 0 min 0,000 mm 0,0 UV-I 0 W/m 9,9 C 6,3 C 22,5 km/h (4 Bft) 95,65 %
11.05.2016 05:09 11,5 C 90 % 1007,9 hPa 0,0 l/m 14,7 km/h (3 Bft) O 94 0 min 0,000 mm 0,0 UV-I 0 W/m 9,9 C 7,1 C 22,5 km/h (4 Bft) 100,00 %
11.05.2016 05:10 11,5 C 90 % 1007,9 hPa 0,0 l/m 20,4 km/h (4 Bft) O 83 0 min 0,000 mm 0,0 UV-I 0 W/m 9,9 C 5,1 C 27,4 km/h (4 Bft) 100,00 %
11.05.2016 05:11 11,5 C 90 % 1007,9 hPa 0,0 l/m 16,3 km/h (3 Bft) O 81 0 min 0,000 mm 0,0 UV-I 0 W/m 9,9 C 6,5 C 24,1 km/h (4 Bft) 100,00 %
11.05.2016 05:12 11,5 C 90 % 1008,0 hPa 0,0 l/m 18,0 km/h (3 Bft) O-NO 69 0 min 0,000 mm 0,0 UV-I 0 W/m 9,9 C 5,9 C 25,7 km/h (4 Bft) 96,15 %
11.05.2016 05:13 11,4 C 90 % 1008,0 hPa 0,0 l/m 18,2 km/h (3 Bft) O-NO 77 0 min 0,000 mm 0,0 UV-I 0 W/m 9,8 C 5,7 C 25,7 km/h (4 Bft) 100,00 %
11.05.2016 05:14 11,5 C 90 % 1008,0 hPa 0,0 l/m 15,0 km/h (3 Bft) O-NO 72 0 min 0,000 mm 0,0 UV-I 0 W/m 9,9 C 7,0 C 17,7 km/h (3 Bft) 100,00 %
11.05.2016 05:15 11,4 C 90 % 1008,0 hPa 0,0 l/m 13,7 km/h (3 Bft) O-NO 59 0 min 0,000 mm 0,0 UV-I 0 W/m 9,8 C 7,4 C 19,3 km/h (3 Bft) 100,00 %
11.05.2016 05:16 11,4 C 90 % 1008,0 hPa 0,0 l/m 15,4 km/h (3 Bft) O-NO 75 0 min 0,000 mm 0,0 UV-I 0 W/m 9,8 C 6,7 C 20,9 km/h (4 Bft) 100,00 %
11.05.2016 05:17 11,5 C 90 % 1008,0 hPa 0,0 l/m 19,1 km/h (3 Bft) O 98 0 min 0,000 mm 0,0 UV-I 0 W/m 9,9 C 5,5 C 25,7 km/h (4 Bft) 100,00 %
11.05.2016 05:18 11,5 C 90 % 1008,0 hPa 0,0 l/m 19,4 km/h (3 Bft) O-SO 103 0 min 0,000 mm 0,0 UV-I 0 W/m 9,9 C 5,4 C 25,7 km/h (4 Bft) 100,00 %
11.05.2016 05:19 11,4 C 90 % 1008,0 hPa 0,0 l/m 22,2 km/h (4 Bft) NO 49 0 min 0,000 mm 0,0 UV-I 0 W/m 9,8 C 4,5 C 25,7 km/h (4 Bft) 100,00 %
11.05.2016 05:20 11,5 C 90 % 1008,0 hPa 0,0 l/m 20,1 km/h (4 Bft) NO 54 0 min 0,000 mm 0,0 UV-I 0 W/m 9,9 C 5,2 C 27,4 km/h (4 Bft) 96,30 %
11.05.2016 05:21 11,5 C 90 % 1008,0 hPa 0,0 l/m 19,0 km/h (3 Bft) O 79 0 min 0,000 mm 0,0 UV-I 0 W/m 9,9 C 5,5 C 22,5 km/h (4 Bft) 100,00 %
11.05.2016 05:22 11,5 C 90 % 1008,1 hPa 0,0 l/m 14,2 km/h (3 Bft) O-NO 59 0 min 0,000 mm 0,0 UV-I 0 W/m 9,9 C 7,3 C 20,9 km/h (4 Bft) 96,30 %
11.05.2016 05:23 11,5 C 90 % 1008,0 hPa 0,0 l/m 20,8 km/h (4 Bft) O-NO 73 0 min 0,000 mm 0,0 UV-I 0 W/m 9,9 C 5,0 C 29,0 km/h (5 Bft) 100,00 %
11.05.2016 05:24 11,4 C 90 % 1008,1 hPa 0,0 l/m 17,7 km/h (3 Bft) O-NO 78 0 min 0,000 mm 0,0 UV-I 0 W/m 9,8 C 5,8 C 24,1 km/h (4 Bft) 100,00 %
11.05.2016 05:25 11,5 C 90 % 1008,1 hPa 0,0 l/m 14,6 km/h (3 Bft) O-NO 74 0 min 0,000 mm 0,0 UV-I 0 W/m 9,9 C 7,1 C 22,5 km/h (4 Bft) 100,00 %
11.05.2016 05:26 11,5 C 90 % 1008,1 hPa 0,0 l/m 17,7 km/h (3 Bft) O 81 0 min 0,000 mm 0,0 UV-I 0 W/m 9,9 C 6,0 C 22,5 km/h (4 Bft) 100,00 %
11.05.2016 05:27 11,5 C 90 % 1008,1 hPa 0,0 l/m 16,6 km/h (3 Bft) O-NO 72 0 min 0,000 mm 0,0 UV-I 0 W/m 9,9 C 6,3 C 22,5 km/h (4 Bft) 100,00 %
11.05.2016 05:28 11,5 C 90 % 1008,1 hPa 0,0 l/m 19,1 km/h (3 Bft) O 80 0 min 0,000 mm 0,0 UV-I 0 W/m 9,9 C 5,5 C 24,1 km/h (4 Bft) 100,00 %
11.05.2016 05:29 11,5 C 90 % 1008,1 hPa 0,0 l/m 21,0 km/h (4 Bft) NO 42 0 min 0,000 mm 0,0 UV-I 0 W/m 9,9 C 4,9 C 29,0 km/h (5 Bft) 100,00 %
11.05.2016 05:30 11,5 C 90 % 1008,1 hPa 0,0 l/m 17,2 km/h (3 Bft) O 88 0 min 0,000 mm 0,0 UV-I 0 W/m 9,9 C 6,1 C 22,5 km/h (4 Bft) 100,00 %
11.05.2016 05:31 11,5 C 90 % 1008,2 hPa 0,0 l/m 20,9 km/h (4 Bft) O 81 0 min 0,000 mm 0,0 UV-I 0 W/m 9,9 C 5,0 C 30,6 km/h (5 Bft) 100,00 %
11.05.2016 05:32 11,6 C 90 % 1008,2 hPa 0,0 l/m 13,7 km/h (3 Bft) O-NO 67 0 min 0,000 mm 0,0 UV-I 0 W/m 10,0 C 7,6 C 17,7 km/h (3 Bft) 100,00 %
11.05.2016 05:33 11,5 C 90 % 1008,2 hPa 0,0 l/m 19,9 km/h (4 Bft) O-NO 68 0 min 0,000 mm 0,0 UV-I 4 W/m 9,9 C 5,3 C 22,5 km/h (4 Bft) 100,00 %
11.05.2016 05:34 11,5 C 90 % 1008,2 hPa 0,0 l/m 23,1 km/h (4 Bft) N-NO 28 0 min 0,000 mm 0,0 UV-I 1 W/m 9,9 C 4,3 C 30,6 km/h (5 Bft) 100,00 %
11.05.2016 05:35 11,6 C 90 % 1008,2 hPa 0,0 l/m 21,3 km/h (4 Bft) O-NO 65 0 min 0,000 mm 0,0 UV-I 5 W/m 10,0 C 5,0 C 29,0 km/h (5 Bft) 95,83 %
11.05.2016 05:36 11,6 C 90 % 1008,2 hPa 0,0 l/m 17,0 km/h (3 Bft) O-NO 67 0 min 0,000 mm 0,0 UV-I 5 W/m 10,0 C 6,3 C 22,5 km/h (4 Bft) 100,00 %
11.05.2016 05:37 11,5 C 90 % 1008,2 hPa 0,0 l/m 18,5 km/h (3 Bft) O-NO 74 0 min 0,000 mm 0,0 UV-I 5 W/m 9,9 C 5,7 C 22,5 km/h (4 Bft) 100,00 %
11.05.2016 05:38 11,6 C 90 % 1008,2 hPa 0,0 l/m 22,6 km/h (4 Bft) O-NO 75 0 min 0,000 mm 0,0 UV-I 5 W/m 10,0 C 4,6 C 32,2 km/h (5 Bft) 100,00 %
11.05.2016 05:39 11,6 C 90 % 1008,2 hPa 0,0 l/m 24,7 km/h (4 Bft) O-NO 75 0 min 0,000 mm 0,0 UV-I 5 W/m 10,0 C 4,1 C 27,4 km/h (4 Bft) 100,00 %
11.05.2016 05:40 11,6 C 90 % 1008,2 hPa 0,0 l/m 19,1 km/h (3 Bft) NO 53 0 min 0,000 mm 0,0 UV-I 7 W/m 10,0 C 5,6 C 25,7 km/h (4 Bft) 100,00 %
11.05.2016 05:41 11,6 C 90 % 1008,1 hPa 0,0 l/m 14,4 km/h (3 Bft) O-NO 57 0 min 0,000 mm 0,0 UV-I 7 W/m 10,0 C 7,3 C 22,5 km/h (4 Bft) 100,00 %
11.05.2016 05:42 11,6 C 90 % 1008,1 hPa 0,0 l/m 20,4 km/h (4 Bft) O-NO 74 0 min 0,000 mm 0,0 UV-I 7 W/m 10,0 C 5,2 C 27,4 km/h (4 Bft) 100,00 %
11.05.2016 05:43 11,6 C 90 % 1008,1 hPa 0,0 l/m 15,0 km/h (3 Bft) O-NO 78 0 min 0,000 mm 0,0 UV-I 8 W/m 10,0 C 7,1 C 20,9 km/h (4 Bft) 100,00 %
11.05.2016 05:44 11,6 C 90 % 1008,0 hPa 0,0 l/m 15,8 km/h (3 Bft) O-NO 61 0 min 0,000 mm 0,0 UV-I 9 W/m 10,0 C 6,8 C 22,5 km/h (4 Bft) 100,00 %
11.05.2016 05:45 11,6 C 90 % 1007,9 hPa 0,0 l/m 23,0 km/h (4 Bft) O-NO 59 0 min 0,000 mm 0,0 UV-I 11 W/m 10,0 C 4,5 C 29,0 km/h (5 Bft) 100,00 %
11.05.2016 05:46 11,6 C 90 % 1007,9 hPa 0,0 l/m 21,5 km/h (4 Bft) O-NO 62 0 min 0,000 mm 0,0 UV-I 11 W/m 10,0 C 4,9 C 32,2 km/h (5 Bft) 100,00 %
11.05.2016 05:47 11,6 C 90 % 1007,9 hPa 0,0 l/m 15,1 km/h (3 Bft) O-NO 61 0 min 0,000 mm 0,0 UV-I 11 W/m 10,0 C 7,0 C 19,3 km/h (3 Bft) 95,83 %
11.05.2016 05:48 11,6 C 90 % 1007,9 hPa 0,0 l/m 19,7 km/h (3 Bft) O-NO 57 0 min 0,000 mm 0,0 UV-I 12 W/m 10,0 C 5,4 C 22,5 km/h (4 Bft) 100,00 %
11.05.2016 05:49 11,6 C 90 % 1007,9 hPa 0,0 l/m 23,3 km/h (4 Bft) NO 56 0 min 0,000 mm 0,0 UV-I 12 W/m 10,0 C 4,4 C 29,0 km/h (5 Bft) 100,00 %
11.05.2016 05:50 11,6 C 90 % 1007,8 hPa 0,0 l/m 22,6 km/h (4 Bft) N-NO 33 0 min 0,000 mm 0,0 UV-I 12 W/m 10,0 C 4,6 C 32,2 km/h (5 Bft) 100,00 %
11.05.2016 05:51 11,6 C 89 % 1007,8 hPa 0,0 l/m 24,6 km/h (4 Bft) O-NO 74 0 min 0,000 mm 0,0 UV-I 12 W/m 9,8 C 4,1 C 29,0 km/h (5 Bft) 96,55 %
11.05.2016 05:52 11,6 C 89 % 1007,8 hPa 0,0 l/m 19,0 km/h (3 Bft) O-NO 65 0 min 0,000 mm 0,0 UV-I 12 W/m 9,8 C 5,7 C 27,4 km/h (4 Bft) 100,00 %
11.05.2016 05:53 11,6 C 90 % 1007,8 hPa 0,0 l/m 22,1 km/h (4 Bft) O 80 0 min 0,000 mm 0,0 UV-I 14 W/m 10,0 C 4,7 C 30,6 km/h (5 Bft) 96,67 %
11.05.2016 05:54 11,6 C 89 % 1007,8 hPa 0,0 l/m 17,8 km/h (3 Bft) NO 44 0 min 0,000 mm 0,0 UV-I 15 W/m 9,8 C 6,1 C 22,5 km/h (4 Bft) 100,00 %
11.05.2016 05:55 11,6 C 89 % 1007,8 hPa 0,0 l/m 16,7 km/h (3 Bft) O-NO 57 0 min 0,000 mm 0,0 UV-I 15 W/m 9,8 C 6,4 C 25,7 km/h (4 Bft) 100,00 %
11.05.2016 05:56 11,6 C 89 % 1007,8 hPa 0,0 l/m 26,9 km/h (4 Bft) O-NO 57 0 min 0,000 mm 0,0 UV-I 18 W/m 9,8 C 3,6 C 35,4 km/h (5 Bft) 100,00 %
11.05.2016 05:57 11,6 C 89 % 1007,8 hPa 0,0 l/m 27,5 km/h (4 Bft) O 88 0 min 0,000 mm 0,0 UV-I 18 W/m 9,8 C 3,4 C 32,2 km/h (5 Bft) 100,00 %
11.05.2016 05:58 11,6 C 89 % 1007,8 hPa 0,0 l/m 27,1 km/h (4 Bft) O-NO 71 0 min 0,000 mm 0,0 UV-I 18 W/m 9,8 C 3,5 C 37,0 km/h (5 Bft) 100,00 %
11.05.2016 05:59 11,6 C 89 % 1007,9 hPa 0,0 l/m 24,0 km/h (4 Bft) O-NO 59 0 min 0,000 mm 0,0 UV-I 18 W/m 9,8 C 4,2 C 30,6 km/h (5 Bft) 100,00 %
11.05.2016 06:00 11,6 C 89 % 1007,8 hPa 0,0 l/m 23,9 km/h (4 Bft) O-NO 65 0 min 0,025 mm 0,0 UV-I 19 W/m 9,8 C 4,3 C 30,6 km/h (5 Bft) 100,00 %
11.05.2016 06:01 11,6 C 89 % 1007,8 hPa 0,0 l/m 27,8 km/h (4 Bft) NO 43 0 min 0,000 mm 0,0 UV-I 18 W/m 9,8 C 3,4 C 40,2 km/h (6 Bft) 100,00 %
11.05.2016 06:02 11,6 C 89 % 1007,8 hPa 0,0 l/m 23,8 km/h (4 Bft) O 85 0 min 0,000 mm 0,0 UV-I 19 W/m 9,8 C 4,3 C 30,6 km/h (5 Bft) 96,30 %
11.05.2016 06:03 11,6 C 89 % 1007,8 hPa 0,0 l/m 21,9 km/h (4 Bft) O-NO 68 0 min 0,000 mm 0,0 UV-I 16 W/m 9,8 C 4,8 C 30,6 km/h (5 Bft) 96,15 %
11.05.2016 06:04 11,6 C 89 % 1007,8 hPa 0,0 l/m 26,8 km/h (4 Bft) NO 42 0 min 0,000 mm 0,0 UV-I 16 W/m 9,8 C 3,6 C 33,8 km/h (5 Bft) 100,00 %
11.05.2016 06:05 11,6 C 89 % 1007,8 hPa 0,0 l/m 21,0 km/h (4 Bft) NO 48 0 min 0,000 mm 0,0 UV-I 15 W/m 9,8 C 5,1 C 29,0 km/h (5 Bft) 96,15 %
11.05.2016 06:06 11,6 C 89 % 1007,8 hPa 0,0 l/m 20,8 km/h (4 Bft) NO 44 0 min 0,000 mm 0,0 UV-I 14 W/m 9,8 C 5,1 C 27,4 km/h (4 Bft) 100,00 %
11.05.2016 06:07 11,7 C 89 % 1007,8 hPa 0,0 l/m 22,4 km/h (4 Bft) O 90 0 min 0,000 mm 0,0 UV-I 16 W/m 9,9 C 4,8 C 27,4 km/h (4 Bft) 96,15 %
11.05.2016 06:08 11,6 C 89 % 1007,8 hPa 0,0 l/m 17,1 km/h (3 Bft) O-NO 74 0 min 0,000 mm 0,0 UV-I 16 W/m 9,8 C 6,3 C 25,7 km/h (4 Bft) 100,00 %
11.05.2016 06:09 11,6 C 89 % 1007,9 hPa 0,0 l/m 22,1 km/h (4 Bft) O 80 0 min 0,000 mm 0,0 UV-I 12 W/m 9,8 C 4,7 C 32,2 km/h (5 Bft) 91,30 %
11.05.2016 06:10 11,7 C 89 % 1007,9 hPa 0,0 l/m 21,1 km/h (4 Bft) O-NO 62 0 min 0,000 mm 0,0 UV-I 11 W/m 9,9 C 5,2 C 25,7 km/h (4 Bft) 100,00 %
11.05.2016 06:11 11,7 C 89 % 1007,9 hPa 0,0 l/m 21,6 km/h (4 Bft) NO 54 0 min 0,000 mm 0,0 UV-I 11 W/m 9,9 C 5,0 C 29,0 km/h (5 Bft) 92,31 %
11.05.2016 06:12 11,7 C 89 % 1007,9 hPa 0,0 l/m 18,3 km/h (3 Bft) O-NO 74 0 min 0,000 mm 0,0 UV-I 11 W/m 9,9 C 6,0 C 24,1 km/h (4 Bft) 95,83 %
11.05.2016 06:13 11,7 C 89 % 1008,0 hPa 0,0 l/m 16,0 km/h (3 Bft) O-NO 74 0 min 0,000 mm 0,0 UV-I 11 W/m 9,9 C 6,8 C 19,3 km/h (3 Bft) 100,00 %
11.05.2016 06:14 11,7 C 89 % 1007,9 hPa 0,0 l/m 18,4 km/h (3 Bft) O-NO 74 0 min 0,000 mm 0,0 UV-I 11 W/m 9,9 C 6,0 C 33,8 km/h (5 Bft) 95,83 %
11.05.2016 06:15 11,7 C 89 % 1007,9 hPa 0,0 l/m 24,2 km/h (4 Bft) O 86 0 min 0,000 mm 0,0 UV-I 11 W/m 9,9 C 4,3 C 30,6 km/h (5 Bft) 100,00 %
11.05.2016 06:16 11,7 C 89 % 1007,9 hPa 0,0 l/m 21,2 km/h (4 Bft) O-NO 62 0 min 0,000 mm 0,0 UV-I 11 W/m 9,9 C 5,1 C 27,4 km/h (4 Bft) 93,33 %
11.05.2016 06:17 11,7 C 89 % 1007,9 hPa 0,0 l/m 21,6 km/h (4 Bft) O-NO 61 0 min 0,000 mm 0,0 UV-I 11 W/m 9,9 C 5,0 C 25,7 km/h (4 Bft) 100,00 %
11.05.2016 06:18 11,7 C 89 % 1007,9 hPa 0,0 l/m 21,8 km/h (4 Bft) O-NO 57 0 min 0,000 mm 0,0 UV-I 12 W/m 9,9 C 5,0 C 27,4 km/h (4 Bft) 91,30 %
11.05.2016 06:19 11,7 C 89 % 1007,9 hPa 0,0 l/m 22,9 km/h (4 Bft) O 94 0 min 0,000 mm 0,0 UV-I 12 W/m 9,9 C 4,7 C 27,4 km/h (4 Bft) 100,00 %
11.05.2016 06:20 11,7 C 89 % 1007,9 hPa 0,0 l/m 20,6 km/h (4 Bft) O-NO 65 0 min 0,000 mm 0,0 UV-I 12 W/m 9,9 C 5,3 C 25,7 km/h (4 Bft) 95,65 %
11.05.2016 06:21 11,7 C 89 % 1007,9 hPa 0,0 l/m 19,6 km/h (3 Bft) O-NO 70 0 min 0,000 mm 0,0 UV-I 12 W/m 9,9 C 5,6 C 24,1 km/h (4 Bft) 96,30 %
11.05.2016 06:22 11,7 C 89 % 1007,9 hPa 0,0 l/m 17,9 km/h (3 Bft) NO 55 0 min 0,000 mm 0,0 UV-I 12 W/m 9,9 C 6,1 C 24,1 km/h (4 Bft) 100,00 %
11.05.2016 06:23 11,7 C 89 % 1007,9 hPa 0,0 l/m 10,3 km/h (2 Bft) NO 40 0 min 0,000 mm 0,0 UV-I 12 W/m 9,9 C 9,3 C 16,1 km/h (3 Bft) 100,00 %
11.05.2016 06:24 11,7 C 89 % 1007,9 hPa 0,0 l/m 14,4 km/h (3 Bft) O-NO 63 0 min 0,000 mm 0,0 UV-I 12 W/m 9,9 C 7,4 C 24,1 km/h (4 Bft) 88,46 %
11.05.2016 06:25 11,7 C 89 % 1007,9 hPa 0,0 l/m 18,4 km/h (3 Bft) O-NO 62 0 min 0,000 mm 0,0 UV-I 12 W/m 9,9 C 6,0 C 24,1 km/h (4 Bft) 96,67 %
11.05.2016 06:26 11,7 C 89 % 1007,9 hPa 0,0 l/m 17,9 km/h (3 Bft) NO 42 0 min 0,000 mm 0,0 UV-I 12 W/m 9,9 C 6,1 C 24,1 km/h (4 Bft) 100,00 %
11.05.2016 06:27 11,7 C 89 % 1007,8 hPa 0,0 l/m 19,7 km/h (3 Bft) O-NO 67 0 min 0,000 mm 0,0 UV-I 12 W/m 9,9 C 5,6 C 29,0 km/h (5 Bft) 96,30 %
11.05.2016 06:28 11,7 C 89 % 1007,9 hPa 0,0 l/m 17,1 km/h (3 Bft) O 91 0 min 0,000 mm 0,0 UV-I 12 W/m 9,9 C 6,4 C 35,4 km/h (5 Bft) 100,00 %
11.05.2016 06:29 11,7 C 89 % 1007,8 hPa 0,0 l/m 25,3 km/h (4 Bft) O-NO 74 0 min 0,000 mm 0,0 UV-I 12 W/m 9,9 C 4,1 C 30,6 km/h (5 Bft) 96,30 %
11.05.2016 06:30 11,7 C 89 % 1007,9 hPa 0,0 l/m 17,5 km/h (3 Bft) O 86 0 min 0,000 mm 0,0 UV-I 12 W/m 9,9 C 6,3 C 25,7 km/h (4 Bft) 91,30 %
11.05.2016 06:31 11,7 C 89 % 1007,9 hPa 0,0 l/m 12,8 km/h (3 Bft) NO 35 0 min 0,000 mm 0,0 UV-I 12 W/m 9,9 C 8,1 C 16,1 km/h (3 Bft) 100,00 %
11.05.2016 06:32 11,7 C 89 % 1007,8 hPa 0,0 l/m 13,5 km/h (3 Bft) O-NO 59 0 min 0,000 mm 0,0 UV-I 12 W/m 9,9 C 7,8 C 22,5 km/h (4 Bft) 95,65 %
11.05.2016 06:33 11,7 C 89 % 1007,9 hPa 0,0 l/m 20,9 km/h (4 Bft) O-NO 60 0 min 0,000 mm 0,0 UV-I 12 W/m 9,9 C 5,2 C 30,6 km/h (5 Bft) 98,34 %
11.05.2016 06:34 11,7 C 89 % 1007,8 hPa 0,0 l/m 26,2 km/h (4 Bft) O-NO 65 0 min 0,000 mm 0,0 UV-I 12 W/m 9,9 C 3,9 C 33,8 km/h (5 Bft) 95,12 %
11.05.2016 06:35 11,8 C 89 % 1007,8 hPa 0,0 l/m 23,4 km/h (4 Bft) O-NO 64 0 min 0,000 mm 0,0 UV-I 12 W/m 10,0 C 4,7 C 32,2 km/h (5 Bft) 100,00 %
11.05.2016 06:36 11,7 C 89 % 1007,8 hPa 0,0 l/m 20,7 km/h (4 Bft) NO 42 0 min 0,000 mm 0,0 UV-I 11 W/m 9,9 C 5,3 C 27,4 km/h (4 Bft) 96,15 %
11.05.2016 06:37 11,7 C 89 % 1007,8 hPa 0,0 l/m 20,5 km/h (4 Bft) NO 52 0 min 0,000 mm 0,0 UV-I 11 W/m 9,9 C 5,3 C 25,7 km/h (4 Bft) 100,00 %
11.05.2016 06:38 11,8 C 89 % 1007,9 hPa 0,0 l/m 17,7 km/h (3 Bft) O-NO 75 0 min 0,000 mm 0,0 UV-I 12 W/m 10,0 C 6,3 C 24,1 km/h (4 Bft) 100,00 %
11.05.2016 06:39 11,8 C 89 % 1007,9 hPa 0,0 l/m 17,0 km/h (3 Bft) O 79 0 min 0,000 mm 0,0 UV-I 11 W/m 10,0 C 6,6 C 22,5 km/h (4 Bft) 96,55 %
11.05.2016 06:40 11,8 C 89 % 1007,9 hPa 0,0 l/m 20,9 km/h (4 Bft) O-NO 78 0 min 0,000 mm 0,0 UV-I 11 W/m 10,0 C 5,3 C 29,0 km/h (5 Bft) 100,00 %
11.05.2016 06:41 11,8 C 89 % 1007,8 hPa 0,0 l/m 20,5 km/h (4 Bft) O-NO 70 0 min 0,000 mm 0,0 UV-I 12 W/m 10,0 C 5,5 C 27,4 km/h (4 Bft) 91,30 %
11.05.2016 06:42 11,8 C 88 % 1007,9 hPa 0,0 l/m 22,9 km/h (4 Bft) O 82 0 min 0,000 mm 0,0 UV-I 12 W/m 9,9 C 4,8 C 27,4 km/h (4 Bft) 96,30 %
11.05.2016 06:43 11,8 C 88 % 1007,9 hPa 0,0 l/m 14,6 km/h (3 Bft) NO 53 0 min 0,000 mm 0,0 UV-I 12 W/m 9,9 C 7,5 C 19,3 km/h (3 Bft) 95,65 %
11.05.2016 06:44 11,8 C 88 % 1007,9 hPa 0,0 l/m 11,7 km/h (2 Bft) O-NO 63 0 min 0,000 mm 0,0 UV-I 14 W/m 9,9 C 8,7 C 19,3 km/h (3 Bft) 100,00 %
11.05.2016 06:45 11,8 C 88 % 1007,9 hPa 0,0 l/m 16,5 km/h (3 Bft) O 97 0 min 0,000 mm 0,0 UV-I 16 W/m 9,9 C 6,8 C 20,9 km/h (4 Bft) 100,00 %
11.05.2016 06:46 11,8 C 88 % 1007,9 hPa 0,0 l/m 9,3 km/h (2 Bft) O-SO 106 0 min 0,000 mm 0,0 UV-I 17 W/m 9,9 C 10,0 C 17,7 km/h (3 Bft) 100,00 %
11.05.2016 06:47 11,8 C 88 % 1007,9 hPa 0,0 l/m 11,8 km/h (2 Bft) O 80 0 min 0,000 mm 0,0 UV-I 17 W/m 9,9 C 8,7 C 19,3 km/h (3 Bft) 96,15 %
11.05.2016 06:48 11,8 C 88 % 1007,9 hPa 0,0 l/m 17,6 km/h (3 Bft) NO 44 0 min 0,000 mm 0,0 UV-I 14 W/m 9,9 C 6,4 C 24,1 km/h (4 Bft) 94,44 %
11.05.2016 06:49 11,8 C 88 % 1007,9 hPa 0,0 l/m 17,5 km/h (3 Bft) O-NO 63 0 min 0,000 mm 0,0 UV-I 14 W/m 9,9 C 6,4 C 22,5 km/h (4 Bft) 96,15 %
11.05.2016 06:50 11,8 C 88 % 1007,9 hPa 0,0 l/m 21,5 km/h (4 Bft) O-NO 72 0 min 0,000 mm 0,0 UV-I 16 W/m 9,9 C 5,2 C 29,0 km/h (5 Bft) 100,00 %
11.05.2016 06:51 11,8 C 88 % 1007,9 hPa 0,0 l/m 20,2 km/h (4 Bft) O-SO 121 0 min 0,000 mm 0,0 UV-I 16 W/m 9,9 C 5,6 C 27,4 km/h (4 Bft) 100,00 %
11.05.2016 06:52 11,8 C 88 % 1007,9 hPa 0,0 l/m 20,4 km/h (4 Bft) O-NO 61 0 min 0,000 mm 0,0 UV-I 17 W/m 9,9 C 5,5 C 27,4 km/h (4 Bft) 100,00 %
11.05.2016 06:53 11,8 C 88 % 1007,8 hPa 0,0 l/m 22,0 km/h (4 Bft) O 84 0 min 0,000 mm 0,0 UV-I 18 W/m 9,9 C 5,0 C 29,0 km/h (5 Bft) 100,00 %
11.05.2016 06:54 11,8 C 88 % 1007,8 hPa 0,0 l/m 16,0 km/h (3 Bft) NO 40 0 min 0,000 mm 0,0 UV-I 20 W/m 9,9 C 6,9 C 27,4 km/h (4 Bft) 100,00 %
11.05.2016 06:55 11,9 C 88 % 1007,8 hPa 0,0 l/m 19,0 km/h (3 Bft) NO 53 0 min 0,000 mm 0,0 UV-I 23 W/m 10,0 C 6,0 C 30,6 km/h (5 Bft) 95,65 %
11.05.2016 06:56 11,9 C 88 % 1007,8 hPa 0,0 l/m 20,6 km/h (4 Bft) NO 51 0 min 0,000 mm 0,0 UV-I 23 W/m 10,0 C 5,6 C 30,6 km/h (5 Bft) 100,00 %
11.05.2016 06:57 11,9 C 88 % 1007,8 hPa 0,0 l/m 14,1 km/h (3 Bft) NO 38 0 min 0,000 mm 0,0 UV-I 20 W/m 10,0 C 7,8 C 19,3 km/h (3 Bft) 100,00 %
11.05.2016 06:58 11,9 C 88 % 1007,8 hPa 0,0 l/m 13,8 km/h (3 Bft) O-NO 61 0 min 0,000 mm 0,0 UV-I 19 W/m 10,0 C 7,9 C 20,9 km/h (4 Bft) 100,00 %
11.05.2016 06:59 11,9 C 88 % 1007,8 hPa 0,0 l/m 15,4 km/h (3 Bft) O 85 0 min 0,000 mm 0,0 UV-I 21 W/m 10,0 C 7,3 C 20,9 km/h (4 Bft) 100,00 %
11.05.2016 07:00 11,9 C 88 % 1007,8 hPa 0,0 l/m 20,8 km/h (4 Bft) O-NO 75 0 min 0,000 mm 0,0 UV-I 23 W/m 10,0 C 5,5 C 25,7 km/h (4 Bft) 95,65 %
11.05.2016 07:01 11,9 C 88 % 1007,9 hPa 0,0 l/m 15,2 km/h (3 Bft) O-NO 71 0 min 0,026 mm 0,0 UV-I 25 W/m 10,0 C 7,4 C 22,5 km/h (4 Bft) 100,00 %
11.05.2016 07:02 11,9 C 88 % 1007,8 hPa 0,0 l/m 19,1 km/h (3 Bft) NO 49 0 min 0,000 mm 0,0 UV-I 30 W/m 10,0 C 6,0 C 25,7 km/h (4 Bft) 100,00 %
11.05.2016 07:03 11,9 C 88 % 1007,9 hPa 0,0 l/m 16,7 km/h (3 Bft) O 84 0 min 0,000 mm 0,0 UV-I 33 W/m 10,0 C 6,8 C 25,7 km/h (4 Bft) 100,00 %
11.05.2016 07:04 11,9 C 88 % 1007,8 hPa 0,0 l/m 16,2 km/h (3 Bft) O-NO 63 0 min 0,000 mm 0,0 UV-I 31 W/m 10,0 C 7,0 C 22,5 km/h (4 Bft) 100,00 %
11.05.2016 07:05 11,9 C 88 % 1007,8 hPa 0,0 l/m 23,3 km/h (4 Bft) NO 51 0 min 0,000 mm 0,0 UV-I 31 W/m 10,0 C 4,8 C 30,6 km/h (5 Bft) 100,00 %
11.05.2016 07:06 11,9 C 88 % 1007,8 hPa 0,0 l/m 22,2 km/h (4 Bft) O-NO 69 0 min 0,000 mm 0,0 UV-I 31 W/m 10,0 C 5,1 C 29,0 km/h (5 Bft) 92,86 %
11.05.2016 07:07 11,9 C 88 % 1007,8 hPa 0,0 l/m 28,1 km/h (4 Bft) O 82 0 min 0,000 mm 0,0 UV-I 32 W/m 10,0 C 3,7 C 37,0 km/h (5 Bft) 100,00 %
11.05.2016 07:08 11,9 C 88 % 1007,8 hPa 0,0 l/m 25,0 km/h (4 Bft) O 84 0 min 0,000 mm 0,0 UV-I 32 W/m 10,0 C 4,4 C 30,6 km/h (5 Bft) 100,00 %
11.05.2016 07:09 11,9 C 88 % 1007,7 hPa 0,0 l/m 22,2 km/h (4 Bft) O-NO 68 0 min 0,000 mm 0,0 UV-I 32 W/m 10,0 C 5,1 C 30,6 km/h (5 Bft) 100,00 %
11.05.2016 07:10 11,9 C 88 % 1007,8 hPa 0,0 l/m 19,1 km/h (3 Bft) O-NO 63 0 min 0,000 mm 0,0 UV-I 35 W/m 10,0 C 6,0 C 22,5 km/h (4 Bft) 100,00 %
11.05.2016 07:11 11,9 C 88 % 1007,8 hPa 0,0 l/m 21,6 km/h (4 Bft) O-NO 76 0 min 0,000 mm 0,0 UV-I 41 W/m 10,0 C 5,3 C 25,7 km/h (4 Bft) 100,00 %
11.05.2016 07:12 12,0 C 88 % 1007,7 hPa 0,0 l/m 23,3 km/h (4 Bft) O-NO 59 0 min 0,000 mm 0,0 UV-I 49 W/m 10,1 C 5,0 C 27,4 km/h (4 Bft) 95,65 %
11.05.2016 07:13 12,0 C 88 % 1007,7 hPa 0,0 l/m 17,3 km/h (3 Bft) NO 48 0 min 0,000 mm 0,0 UV-I 62 W/m 10,1 C 6,7 C 22,5 km/h (4 Bft) 100,00 %
11.05.2016 07:14 12,0 C 88 % 1007,7 hPa 0,0 l/m 15,3 km/h (3 Bft) O-NO 76 0 min 0,000 mm 0,0 UV-I 71 W/m 10,1 C 7,4 C 22,5 km/h (4 Bft) 100,00 %
11.05.2016 07:15 12,0 C 88 % 1007,7 hPa 0,0 l/m 18,8 km/h (3 Bft) NO 55 0 min 0,000 mm 0,0 UV-I 74 W/m 10,1 C 6,2 C 29,0 km/h (5 Bft) 95,83 %
11.05.2016 07:16 12,0 C 88 % 1007,7 hPa 0,0 l/m 21,9 km/h (4 Bft) NO 56 0 min 0,000 mm 0,0 UV-I 71 W/m 10,1 C 5,3 C 27,4 km/h (4 Bft) 100,00 %
11.05.2016 07:17 12,1 C 88 % 1007,7 hPa 0,0 l/m 18,1 km/h (3 Bft) O-NO 63 0 min 0,000 mm 0,0 UV-I 70 W/m 10,2 C 6,6 C 25,7 km/h (4 Bft) 100,00 %
11.05.2016 07:18 12,1 C 88 % 1007,7 hPa 0,0 l/m 21,7 km/h (4 Bft) O-NO 69 0 min 0,000 mm 0,0 UV-I 76 W/m 10,2 C 5,5 C 32,2 km/h (5 Bft) 100,00 %
11.05.2016 07:19 12,1 C 88 % 1007,6 hPa 0,0 l/m 26,0 km/h (4 Bft) O-NO 69 0 min 0,000 mm 0,0 UV-I 81 W/m 10,2 C 4,4 C 33,8 km/h (5 Bft) 92,31 %
11.05.2016 07:20 12,1 C 88 % 1007,6 hPa 0,0 l/m 22,8 km/h (4 Bft) O-NO 69 0 min 0,000 mm 0,0 UV-I 77 W/m 10,2 C 5,2 C 29,0 km/h (5 Bft) 100,00 %
11.05.2016 07:21 12,1 C 88 % 1007,6 hPa 0,0 l/m 19,2 km/h (3 Bft) NO 43 0 min 0,000 mm 0,0 UV-I 80 W/m 10,2 C 6,2 C 29,0 km/h (5 Bft) 100,00 %
11.05.2016 07:22 12,1 C 87 % 1007,6 hPa 0,0 l/m 22,0 km/h (4 Bft) O-NO 61 0 min 0,000 mm 0,0 UV-I 80 W/m 10,0 C 5,4 C 33,8 km/h (5 Bft) 100,00 %
11.05.2016 07:23 12,1 C 87 % 1007,7 hPa 0,0 l/m 24,4 km/h (4 Bft) O-NO 69 0 min 0,000 mm 0,0 UV-I 76 W/m 10,0 C 4,8 C 29,0 km/h (5 Bft) 100,00 %
11.05.2016 07:24 12,1 C 87 % 1007,7 hPa 0,0 l/m 21,0 km/h (4 Bft) O-NO 58 0 min 0,000 mm 0,0 UV-I 77 W/m 10,0 C 5,7 C 30,6 km/h (5 Bft) 100,00 %
11.05.2016 07:25 12,1 C 87 % 1007,6 hPa 0,0 l/m 26,5 km/h (4 Bft) O-NO 72 0 min 0,000 mm 0,0 UV-I 74 W/m 10,0 C 4,3 C 37,0 km/h (5 Bft) 100,00 %
11.05.2016 07:26 12,1 C 87 % 1007,6 hPa 0,0 l/m 25,3 km/h (4 Bft) O-NO 69 0 min 0,000 mm 0,0 UV-I 78 W/m 10,0 C 4,6 C 33,8 km/h (5 Bft) 100,00 %
11.05.2016 07:27 12,1 C 87 % 1007,7 hPa 0,0 l/m 21,8 km/h (4 Bft) O-NO 76 0 min 0,000 mm 0,0 UV-I 79 W/m 10,0 C 5,5 C 29,0 km/h (5 Bft) 96,15 %
11.05.2016 07:28 12,2 C 87 % 1007,7 hPa 0,0 l/m 22,8 km/h (4 Bft) NO 48 0 min 0,000 mm 0,0 UV-I 81 W/m 10,1 C 5,4 C 29,0 km/h (5 Bft) 100,00 %
11.05.2016 07:29 12,2 C 87 % 1007,6 hPa 0,0 l/m 20,5 km/h (4 Bft) O-NO 64 0 min 0,000 mm 0,0 UV-I 76 W/m 10,1 C 6,0 C 27,4 km/h (4 Bft) 100,00 %
11.05.2016 07:30 12,2 C 87 % 1007,6 hPa 0,0 l/m 21,7 km/h (4 Bft) O-NO 66 0 min 0,000 mm 0,0 UV-I 82 W/m 10,1 C 5,6 C 27,4 km/h (4 Bft) 100,00 %
11.05.2016 07:31 12,2 C 87 % 1007,6 hPa 0,0 l/m 20,6 km/h (4 Bft) NO 53 0 min 0,000 mm 0,0 UV-I 88 W/m 10,1 C 6,0 C 30,6 km/h (5 Bft) 95,65 %
11.05.2016 07:32 12,2 C 87 % 1007,5 hPa 0,0 l/m 22,9 km/h (4 Bft) O-NO 72 0 min 0,000 mm 0,0 UV-I 84 W/m 10,1 C 5,3 C 25,7 km/h (4 Bft) 100,00 %
11.05.2016 07:33 12,2 C 87 % 1007,6 hPa 0,0 l/m 19,2 km/h (3 Bft) O-NO 59 0 min 0,000 mm 0,0 UV-I 84 W/m 10,1 C 6,4 C 25,7 km/h (4 Bft) 100,00 %
11.05.2016 07:34 12,2 C 87 % 1007,6 hPa 0,0 l/m 22,0 km/h (4 Bft) NO 55 0 min 0,000 mm 0,0 UV-I 81 W/m 10,1 C 5,6 C 32,2 km/h (5 Bft) 100,00 %
11.05.2016 07:35 12,2 C 87 % 1007,6 hPa 0,0 l/m 18,5 km/h (3 Bft) O-NO 57 0 min 0,000 mm 0,0 UV-I 85 W/m 10,1 C 6,6 C 27,4 km/h (4 Bft) 96,15 %
11.05.2016 07:36 12,2 C 87 % 1007,6 hPa 0,0 l/m 20,3 km/h (4 Bft) O-NO 59 0 min 0,000 mm 0,0 UV-I 86 W/m 10,1 C 6,0 C 27,4 km/h (4 Bft) 91,67 %
11.05.2016 07:37 12,2 C 87 % 1007,6 hPa 0,0 l/m 27,8 km/h (4 Bft) O-NO 67 0 min 0,000 mm 0,0 UV-I 85 W/m 10,1 C 4,2 C 37,0 km/h (5 Bft) 100,00 %
11.05.2016 07:38 12,2 C 87 % 1007,5 hPa 0,0 l/m 24,2 km/h (4 Bft) O 83 0 min 0,000 mm 0,0 UV-I 81 W/m 10,1 C 5,0 C 32,2 km/h (5 Bft) 100,00 %
11.05.2016 07:39 12,2 C 87 % 1007,5 hPa 0,0 l/m 22,2 km/h (4 Bft) O-NO 76 0 min 0,000 mm 0,0 UV-I 92 W/m 10,1 C 5,5 C 25,7 km/h (4 Bft) 100,00 %
11.05.2016 07:40 12,2 C 87 % 1007,5 hPa 0,0 l/m 20,4 km/h (4 Bft) NO 52 0 min 0,000 mm 0,0 UV-I 98 W/m 10,1 C 6,0 C 24,1 km/h (4 Bft) 100,00 %
11.05.2016 07:41 12,2 C 87 % 1007,4 hPa 0,0 l/m 19,0 km/h (3 Bft) NO 47 0 min 0,000 mm 0,0 UV-I 109 W/m 10,1 C 6,4 C 24,1 km/h (4 Bft) 100,00 %
11.05.2016 07:42 12,3 C 87 % 1007,4 hPa 0,0 l/m 21,1 km/h (4 Bft) O-NO 78 0 min 0,000 mm 0,0 UV-I 107 W/m 10,2 C 5,9 C 24,1 km/h (4 Bft) 100,00 %
11.05.2016 07:43 12,3 C 87 % 1007,4 hPa 0,0 l/m 16,8 km/h (3 Bft) NO 56 0 min 0,000 mm 0,0 UV-I 118 W/m 10,2 C 7,3 C 24,1 km/h (4 Bft) 100,00 %
11.05.2016 07:44 12,3 C 87 % 1007,4 hPa 0,0 l/m 23,2 km/h (4 Bft) NO 41 0 min 0,000 mm 0,0 UV-I 119 W/m 10,2 C 5,4 C 32,2 km/h (5 Bft) 96,15 %
11.05.2016 07:45 12,3 C 87 % 1007,3 hPa 0,0 l/m 28,6 km/h (4 Bft) N-NO 30 0 min 0,000 mm 0,0 UV-I 127 W/m 10,2 C 4,2 C 35,4 km/h (5 Bft) 100,00 %
11.05.2016 07:46 12,3 C 87 % 1007,3 hPa 0,0 l/m 22,5 km/h (4 Bft) O-NO 72 0 min 0,000 mm 0,0 UV-I 123 W/m 10,2 C 5,6 C 29,0 km/h (5 Bft) 100,00 %
11.05.2016 07:47 12,3 C 87 % 1007,4 hPa 0,0 l/m 21,7 km/h (4 Bft) O-NO 77 0 min 0,000 mm 0,0 UV-I 122 W/m 10,2 C 5,8 C 30,6 km/h (5 Bft) 100,00 %
11.05.2016 07:48 12,3 C 87 % 1007,3 hPa 0,0 l/m 26,8 km/h (4 Bft) O 84 0 min 0,000 mm 0,0 UV-I 128 W/m 10,2 C 4,5 C 35,4 km/h (5 Bft) 100,00 %
11.05.2016 07:49 12,3 C 86 % 1007,3 hPa 0,0 l/m 30,7 km/h (5 Bft) O-NO 63 0 min 0,000 mm 0,0 UV-I 128 W/m 10,0 C 3,8 C 38,6 km/h (5 Bft) 93,33 %
11.05.2016 07:50 12,3 C 87 % 1007,4 hPa 0,0 l/m 27,1 km/h (4 Bft) NO 49 0 min 0,000 mm 0,0 UV-I 130 W/m 10,2 C 4,5 C 37,0 km/h (5 Bft) 95,65 %
11.05.2016 07:51 12,3 C 86 % 1007,4 hPa 0,0 l/m 19,4 km/h (3 Bft) O 80 0 min 0,000 mm 0,0 UV-I 113 W/m 10,0 C 6,4 C 33,8 km/h (5 Bft) 96,30 %
11.05.2016 07:52 12,4 C 87 % 1007,4 hPa 0,0 l/m 22,7 km/h (4 Bft) O 92 0 min 0,000 mm 0,0 UV-I 119 W/m 10,3 C 5,6 C 27,4 km/h (4 Bft) 100,00 %
11.05.2016 07:53 12,4 C 87 % 1007,4 hPa 0,0 l/m 20,1 km/h (4 Bft) O-NO 64 0 min 0,000 mm 0,0 UV-I 129 W/m 10,3 C 6,4 C 25,7 km/h (4 Bft) 100,00 %
11.05.2016 07:54 12,4 C 87 % 1007,5 hPa 0,0 l/m 22,1 km/h (4 Bft) O-NO 76 0 min 0,000 mm 0,0 UV-I 125 W/m 10,3 C 5,8 C 30,6 km/h (5 Bft) 100,00 %
11.05.2016 07:55 12,4 C 86 % 1007,4 hPa 0,0 l/m 27,4 km/h (4 Bft) NO 54 0 min 0,000 mm 0,0 UV-I 117 W/m 10,1 C 4,6 C 41,8 km/h (6 Bft) 100,00 %
11.05.2016 07:56 12,4 C 86 % 1007,5 hPa 0,0 l/m 28,4 km/h (4 Bft) O-NO 59 0 min 0,000 mm 0,0 UV-I 132 W/m 10,1 C 4,3 C 37,0 km/h (5 Bft) 100,00 %
11.05.2016 07:57 12,4 C 86 % 1007,5 hPa 0,0 l/m 19,8 km/h (3 Bft) O 92 0 min 0,000 mm 0,0 UV-I 132 W/m 10,1 C 6,4 C 24,1 km/h (4 Bft) 100,00 %
11.05.2016 07:58 12,4 C 86 % 1007,4 hPa 0,0 l/m 21,4 km/h (4 Bft) O-NO 61 0 min 0,000 mm 0,0 UV-I 135 W/m 10,1 C 6,0 C 32,2 km/h (5 Bft) 100,00 %
11.05.2016 07:59 12,4 C 86 % 1007,4 hPa 0,0 l/m 22,4 km/h (4 Bft) O-NO 63 0 min 0,000 mm 0,0 UV-I 151 W/m 10,1 C 5,7 C 37,0 km/h (5 Bft) 100,00 %
11.05.2016 08:00 12,4 C 86 % 1007,4 hPa 0,0 l/m 26,2 km/h (4 Bft) O-NO 74 0 min 0,000 mm 0,0 UV-I 149 W/m 10,1 C 4,8 C 32,2 km/h (5 Bft) 100,00 %
11.05.2016 08:02 12,5 C 86 % 1007,3 hPa 0,0 l/m 26,7 km/h (4 Bft) NO 56 0 min 0,076 mm 0,2 UV-I 148 W/m 10,2 C 4,8 C 35,4 km/h (5 Bft) 97,73 %
11.05.2016 08:03 12,5 C 86 % 1007,3 hPa 0,0 l/m 22,1 km/h (4 Bft) O 82 0 min 0,000 mm 0,0 UV-I 141 W/m 10,2 C 5,9 C 29,0 km/h (5 Bft) 100,00 %
11.05.2016 08:04 12,5 C 86 % 1007,3 hPa 0,0 l/m 17,4 km/h (3 Bft) NO 38 0 min 0,000 mm 0,0 UV-I 142 W/m 10,2 C 7,3 C 27,4 km/h (4 Bft) 91,67 %
11.05.2016 08:05 12,6 C 86 % 1007,4 hPa 0,0 l/m 21,0 km/h (4 Bft) O-NO 61 0 min 0,000 mm 0,0 UV-I 156 W/m 10,3 C 6,4 C 30,6 km/h (5 Bft) 100,00 %
11.05.2016 08:06 12,6 C 86 % 1007,5 hPa 0,0 l/m 29,5 km/h (5 Bft) O-NO 63 0 min 0,000 mm 0,4 UV-I 164 W/m 10,3 C 4,4 C 43,5 km/h (6 Bft) 96,30 %
11.05.2016 08:07 12,6 C 86 % 1007,4 hPa 0,0 l/m 27,9 km/h (4 Bft) O 79 0 min 0,000 mm 0,0 UV-I 144 W/m 10,3 C 4,7 C 37,0 km/h (5 Bft) 90,91 %
11.05.2016 08:08 12,6 C 86 % 1007,4 hPa 0,0 l/m 27,7 km/h (4 Bft) O-NO 69 0 min 0,000 mm 0,0 UV-I 142 W/m 10,3 C 4,8 C 33,8 km/h (5 Bft) 96,67 %
11.05.2016 08:09 12,6 C 85 % 1007,5 hPa 0,0 l/m 24,6 km/h (4 Bft) O-NO 61 0 min 0,000 mm 0,0 UV-I 130 W/m 10,1 C 5,4 C 35,4 km/h (5 Bft) 96,15 %
11.05.2016 08:10 12,6 C 86 % 1007,5 hPa 0,0 l/m 23,9 km/h (4 Bft) O-NO 74 0 min 0,000 mm 0,0 UV-I 127 W/m 10,3 C 5,6 C 33,8 km/h (5 Bft) 96,30 %
11.05.2016 08:11 12,6 C 86 % 1007,5 hPa 0,0 l/m 18,2 km/h (3 Bft) O-NO 67 0 min 0,000 mm 0,0 UV-I 127 W/m 10,3 C 7,2 C 24,1 km/h (4 Bft) 95,65 %
11.05.2016 08:12 12,6 C 86 % 1007,5 hPa 0,0 l/m 13,9 km/h (3 Bft) O-NO 67 0 min 0,000 mm 0,0 UV-I 134 W/m 10,3 C 8,7 C 19,3 km/h (3 Bft) 100,00 %
11.05.2016 08:13 12,6 C 86 % 1007,5 hPa 0,0 l/m 17,8 km/h (3 Bft) O-SO 103 0 min 0,000 mm 0,0 UV-I 128 W/m 10,3 C 7,3 C 24,1 km/h (4 Bft) 92,31 %
11.05.2016 08:14 12,6 C 86 % 1007,5 hPa 0,0 l/m 24,7 km/h (4 Bft) O 82 0 min 0,000 mm 0,0 UV-I 120 W/m 10,3 C 5,4 C 32,2 km/h (5 Bft) 96,30 %
11.05.2016 08:15 12,7 C 86 % 1007,6 hPa 0,0 l/m 19,9 km/h (4 Bft) O-NO 73 0 min 0,000 mm 0,0 UV-I 120 W/m 10,4 C 6,8 C 25,7 km/h (4 Bft) 100,00 %
11.05.2016 08:16 12,7 C 86 % 1007,6 hPa 0,0 l/m 23,6 km/h (4 Bft) O-NO 67 0 min 0,000 mm 0,0 UV-I 128 W/m 10,4 C 5,8 C 30,6 km/h (5 Bft) 96,55 %
11.05.2016 08:17 12,7 C 86 % 1007,6 hPa 0,0 l/m 21,3 km/h (4 Bft) O-NO 62 0 min 0,000 mm 0,0 UV-I 122 W/m 10,4 C 6,4 C 32,2 km/h (5 Bft) 100,00 %
11.05.2016 08:18 12,7 C 85 % 1007,6 hPa 0,0 l/m 28,8 km/h (4 Bft) O 86 0 min 0,000 mm 0,0 UV-I 124 W/m 10,2 C 4,7 C 35,4 km/h (5 Bft) 96,15 %
11.05.2016 08:19 12,6 C 85 % 1007,6 hPa 0,0 l/m 25,0 km/h (4 Bft) O 79 0 min 0,000 mm 0,0 UV-I 127 W/m 10,1 C 5,4 C 35,4 km/h (5 Bft) 100,00 %
11.05.2016 08:20 12,6 C 85 % 1007,6 hPa 0,0 l/m 22,7 km/h (4 Bft) O-NO 58 0 min 0,000 mm 0,0 UV-I 121 W/m 10,1 C 5,9 C 30,6 km/h (5 Bft) 96,15 %
11.05.2016 08:21 12,6 C 86 % 1007,5 hPa 0,0 l/m 28,2 km/h (4 Bft) NO 44 0 min 0,000 mm 0,0 UV-I 121 W/m 10,3 C 4,7 C 35,4 km/h (5 Bft) 100,00 %
11.05.2016 08:22 12,7 C 86 % 1007,6 hPa 0,0 l/m 26,0 km/h (4 Bft) O-NO 66 0 min 0,000 mm 0,0 UV-I 124 W/m 10,4 C 5,3 C 32,2 km/h (5 Bft) 95,65 %
11.05.2016 08:23 12,7 C 86 % 1007,6 hPa 0,0 l/m 17,5 km/h (3 Bft) O-NO 63 0 min 0,000 mm 0,0 UV-I 116 W/m 10,4 C 7,5 C 27,4 km/h (4 Bft) 100,00 %
11.05.2016 08:24 12,6 C 86 % 1007,6 hPa 0,0 l/m 19,1 km/h (3 Bft) O-NO 71 0 min 0,000 mm 0,0 UV-I 112 W/m 10,3 C 6,9 C 27,4 km/h (4 Bft) 95,00 %
11.05.2016 08:25 12,6 C 86 % 1007,6 hPa 0,0 l/m 23,0 km/h (4 Bft) O-SO 105 0 min 0,000 mm 0,0 UV-I 105 W/m 10,3 C 5,8 C 32,2 km/h (5 Bft) 97,44 %
11.05.2016 08:26 12,7 C 86 % 1007,6 hPa 0,0 l/m 23,6 km/h (4 Bft) O 101 0 min 0,000 mm 0,0 UV-I 107 W/m 10,4 C 5,8 C 32,2 km/h (5 Bft) 100,00 %
11.05.2016 08:27 12,7 C 86 % 1007,5 hPa 0,0 l/m 29,1 km/h (5 Bft) O-NO 77 0 min 0,000 mm 0,0 UV-I 112 W/m 10,4 C 4,6 C 35,4 km/h (5 Bft) 93,33 %
11.05.2016 08:28 12,7 C 86 % 1007,5 hPa 0,0 l/m 27,3 km/h (4 Bft) O-NO 66 0 min 0,000 mm 0,0 UV-I 110 W/m 10,4 C 5,0 C 35,4 km/h (5 Bft) 96,15 %
11.05.2016 08:29 12,6 C 85 % 1007,5 hPa 0,0 l/m 28,4 km/h (4 Bft) O-NO 58 0 min 0,000 mm 0,0 UV-I 109 W/m 10,1 C 4,6 C 38,6 km/h (5 Bft) 95,83 %
11.05.2016 08:30 12,6 C 86 % 1007,5 hPa 0,0 l/m 22,8 km/h (4 Bft) O-NO 61 0 min 0,000 mm 0,0 UV-I 105 W/m 10,3 C 5,9 C 29,0 km/h (5 Bft) 100,00 %
11.05.2016 08:31 12,6 C 86 % 1007,6 hPa 0,0 l/m 25,6 km/h (4 Bft) O-NO 66 0 min 0,000 mm 0,0 UV-I 111 W/m 10,3 C 5,2 C 38,6 km/h (5 Bft) 96,30 %
11.05.2016 08:32 12,6 C 86 % 1007,5 hPa 0,0 l/m 27,9 km/h (4 Bft) O-NO 76 0 min 0,000 mm 0,0 UV-I 116 W/m 10,3 C 4,7 C 35,4 km/h (5 Bft) 91,30 %
11.05.2016 08:33 12,6 C 86 % 1007,6 hPa 0,0 l/m 28,7 km/h (4 Bft) O 85 0 min 0,000 mm 0,0 UV-I 120 W/m 10,3 C 4,6 C 40,2 km/h (6 Bft) 100,00 %
11.05.2016 08:34 12,6 C 86 % 1007,6 hPa 0,0 l/m 29,4 km/h (5 Bft) O 88 0 min 0,000 mm 0,0 UV-I 122 W/m 10,3 C 4,4 C 38,6 km/h (5 Bft) 96,30 %
11.05.2016 08:35 12,6 C 86 % 1007,6 hPa 0,0 l/m 26,0 km/h (4 Bft) O 92 0 min 0,000 mm 0,0 UV-I 120 W/m 10,3 C 5,1 C 30,6 km/h (5 Bft) 100,00 %
11.05.2016 08:36 12,6 C 86 % 1007,6 hPa 0,0 l/m 20,6 km/h (4 Bft) O-NO 72 0 min 0,000 mm 0,0 UV-I 113 W/m 10,3 C 6,5 C 27,4 km/h (4 Bft) 100,00 %
11.05.2016 08:37 12,6 C 86 % 1007,6 hPa 0,0 l/m 23,7 km/h (4 Bft) O-NO 76 0 min 0,000 mm 0,0 UV-I 113 W/m 10,3 C 5,7 C 32,2 km/h (5 Bft) 100,00 %
11.05.2016 08:38 12,6 C 86 % 1007,6 hPa 0,0 l/m 22,1 km/h (4 Bft) O-NO 65 0 min 0,000 mm 0,0 UV-I 114 W/m 10,3 C 6,1 C 29,0 km/h (5 Bft) 96,30 %
11.05.2016 08:39 12,6 C 86 % 1007,6 hPa 0,0 l/m 22,5 km/h (4 Bft) O-NO 74 0 min 0,000 mm 0,0 UV-I 115 W/m 10,3 C 6,0 C 33,8 km/h (5 Bft) 100,00 %
11.05.2016 08:40 12,6 C 86 % 1007,6 hPa 0,0 l/m 24,3 km/h (4 Bft) O 84 0 min 0,000 mm 0,0 UV-I 116 W/m 10,3 C 5,5 C 29,0 km/h (5 Bft) 100,00 %
11.05.2016 08:41 12,6 C 86 % 1007,7 hPa 0,0 l/m 31,8 km/h (5 Bft) O 90 0 min 0,000 mm 0,0 UV-I 115 W/m 10,3 C 4,0 C 41,8 km/h (6 Bft) 100,00 %
11.05.2016 08:42 12,6 C 86 % 1007,6 hPa 0,0 l/m 28,6 km/h (4 Bft) O 87 0 min 0,000 mm 0,4 UV-I 124 W/m 10,3 C 4,6 C 38,6 km/h (5 Bft) 100,00 %
11.05.2016 08:43 12,6 C 86 % 1007,6 hPa 0,0 l/m 21,9 km/h (4 Bft) O-NO 63 0 min 0,000 mm 0,1 UV-I 122 W/m 10,3 C 6,1 C 33,8 km/h (5 Bft) 100,00 %
11.05.2016 08:44 12,6 C 86 % 1007,6 hPa 0,0 l/m 22,3 km/h (4 Bft) O 90 0 min 0,000 mm 0,5 UV-I 128 W/m 10,3 C 6,0 C 30,6 km/h (5 Bft) 95,83 %
11.05.2016 08:45 12,6 C 86 % 1007,6 hPa 0,0 l/m 19,8 km/h (3 Bft) O-NO 59 0 min 0,000 mm 0,5 UV-I 129 W/m 10,3 C 6,7 C 27,4 km/h (4 Bft) 95,65 %
11.05.2016 08:46 12,6 C 86 % 1007,6 hPa 0,0 l/m 23,3 km/h (4 Bft) O-NO 63 0 min 0,000 mm 0,5 UV-I 128 W/m 10,3 C 5,8 C 35,4 km/h (5 Bft) 100,00 %
11.05.2016 08:47 12,6 C 86 % 1007,6 hPa 0,0 l/m 25,5 km/h (4 Bft) O 95 0 min 0,000 mm 0,5 UV-I 137 W/m 10,3 C 5,2 C 32,2 km/h (5 Bft) 100,00 %
11.05.2016 08:48 12,6 C 86 % 1007,6 hPa 0,0 l/m 24,5 km/h (4 Bft) O-NO 65 0 min 0,000 mm 0,5 UV-I 146 W/m 10,3 C 5,5 C 37,0 km/h (5 Bft) 100,00 %
11.05.2016 08:49 12,6 C 86 % 1007,6 hPa 0,0 l/m 22,3 km/h (4 Bft) O-NO 61 0 min 0,000 mm 0,6 UV-I 158 W/m 10,3 C 6,0 C 33,8 km/h (5 Bft) 100,00 %
11.05.2016 08:50 12,7 C 86 % 1007,5 hPa 0,0 l/m 22,4 km/h (4 Bft) O-NO 67 0 min 0,000 mm 0,6 UV-I 159 W/m 10,4 C 6,1 C 27,4 km/h (4 Bft) 93,33 %
11.05.2016 08:51 12,7 C 86 % 1007,6 hPa 0,0 l/m 28,7 km/h (4 Bft) O-NO 75 0 min 0,000 mm 0,7 UV-I 175 W/m 10,4 C 4,7 C 37,0 km/h (5 Bft) 100,00 %
11.05.2016 08:52 12,7 C 86 % 1007,5 hPa 0,0 l/m 24,6 km/h (4 Bft) O 88 0 min 0,000 mm 0,7 UV-I 176 W/m 10,4 C 5,6 C 30,6 km/h (5 Bft) 100,00 %
11.05.2016 08:53 12,7 C 86 % 1007,5 hPa 0,0 l/m 29,7 km/h (5 Bft) O-NO 69 0 min 0,000 mm 0,6 UV-I 170 W/m 10,4 C 4,5 C 41,8 km/h (6 Bft) 100,00 %
11.05.2016 08:54 12,7 C 86 % 1007,5 hPa 0,0 l/m 24,1 km/h (4 Bft) O-NO 78 0 min 0,000 mm 0,7 UV-I 175 W/m 10,4 C 5,7 C 30,6 km/h (5 Bft) 100,00 %
11.05.2016 08:55 12,7 C 86 % 1007,6 hPa 0,0 l/m 18,0 km/h (3 Bft) O-NO 63 0 min 0,000 mm 0,7 UV-I 176 W/m 10,4 C 7,4 C 25,7 km/h (4 Bft) 100,00 %
11.05.2016 08:56 12,8 C 86 % 1007,6 hPa 0,0 l/m 14,8 km/h (3 Bft) NO 55 0 min 0,000 mm 0,7 UV-I 183 W/m 10,5 C 8,6 C 22,5 km/h (4 Bft) 100,00 %
11.05.2016 08:57 12,8 C 86 % 1007,5 hPa 0,0 l/m 15,8 km/h (3 Bft) O-NO 71 0 min 0,000 mm 0,8 UV-I 195 W/m 10,5 C 8,2 C 24,1 km/h (4 Bft) 100,00 %
11.05.2016 08:58 12,8 C 86 % 1007,6 hPa 0,0 l/m 21,1 km/h (4 Bft) O-NO 76 0 min 0,000 mm 0,8 UV-I 200 W/m 10,5 C 6,6 C 24,1 km/h (4 Bft) 100,00 %
11.05.2016 08:59 12,8 C 86 % 1007,6 hPa 0,0 l/m 24,7 km/h (4 Bft) O-NO 70 0 min 0,000 mm 0,8 UV-I 192 W/m 10,5 C 5,7 C 32,2 km/h (5 Bft) 100,00 %
11.05.2016 09:00 12,9 C 86 % 1007,6 hPa 0,0 l/m 19,6 km/h (3 Bft) O-NO 75 0 min 0,102 mm 0,7 UV-I 180 W/m 10,6 C 7,1 C 24,1 km/h (4 Bft) 100,00 %
11.05.2016 09:01 12,9 C 86 % 1007,6 hPa 0,0 l/m 22,6 km/h (4 Bft) O 96 0 min 0,000 mm 0,7 UV-I 198 W/m 10,6 C 6,3 C 29,0 km/h (5 Bft) 100,00 %
11.05.2016 09:02 12,9 C 85 % 1007,5 hPa 0,0 l/m 22,1 km/h (4 Bft) O 90 0 min 0,000 mm 0,8 UV-I 207 W/m 10,4 C 6,5 C 27,4 km/h (4 Bft) 100,00 %
11.05.2016 09:03 12,9 C 85 % 1007,6 hPa 0,0 l/m 26,7 km/h (4 Bft) O-NO 74 0 min 0,000 mm 0,8 UV-I 195 W/m 10,4 C 5,4 C 32,2 km/h (5 Bft) 100,00 %
11.05.2016 09:04 12,9 C 85 % 1007,6 hPa 0,0 l/m 21,3 km/h (4 Bft) NO 48 0 min 0,000 mm 0,8 UV-I 199 W/m 10,4 C 6,7 C 29,0 km/h (5 Bft) 100,00 %
11.05.2016 09:05 13,0 C 85 % 1007,6 hPa 0,0 l/m 24,6 km/h (4 Bft) O-NO 71 0 min 0,000 mm 0,8 UV-I 201 W/m 10,5 C 6,0 C 30,6 km/h (5 Bft) 100,00 %
11.05.2016 09:06 13,0 C 85 % 1007,5 hPa 0,0 l/m 18,5 km/h (3 Bft) NO 56 0 min 0,000 mm 0,9 UV-I 204 W/m 10,5 C 7,6 C 24,1 km/h (4 Bft) 100,00 %
11.05.2016 09:07 13,1 C 85 % 1007,5 hPa 0,0 l/m 24,8 km/h (4 Bft) O 99 0 min 0,000 mm 0,8 UV-I 204 W/m 10,6 C 6,1 C 35,4 km/h (5 Bft) 100,00 %
11.05.2016 09:08 13,1 C 85 % 1007,6 hPa 0,0 l/m 29,0 km/h (5 Bft) O-NO 69 0 min 0,000 mm 0,9 UV-I 209 W/m 10,6 C 5,2 C 40,2 km/h (6 Bft) 100,00 %
11.05.2016 09:09 13,1 C 85 % 1007,6 hPa 0,0 l/m 23,7 km/h (4 Bft) O-NO 71 0 min 0,000 mm 0,8 UV-I 205 W/m 10,6 C 6,3 C 33,8 km/h (5 Bft) 100,00 %
11.05.2016 09:10 13,1 C 85 % 1007,6 hPa 0,0 l/m 26,5 km/h (4 Bft) O-NO 73 0 min 0,000 mm 0,8 UV-I 202 W/m 10,6 C 5,7 C 33,8 km/h (5 Bft) 100,00 %
11.05.2016 09:11 13,1 C 85 % 1007,6 hPa 0,0 l/m 24,7 km/h (4 Bft) O 86 0 min 0,000 mm 0,8 UV-I 192 W/m 10,6 C 6,1 C 30,6 km/h (5 Bft) 100,00 %
11.05.2016 09:12 13,1 C 85 % 1007,6 hPa 0,0 l/m 24,1 km/h (4 Bft) O-SO 106 0 min 0,000 mm 0,8 UV-I 184 W/m 10,6 C 6,2 C 32,2 km/h (5 Bft) 100,00 %
11.05.2016 09:13 13,2 C 85 % 1007,6 hPa 0,0 l/m 29,1 km/h (5 Bft) NO 52 0 min 0,000 mm 0,8 UV-I 200 W/m 10,7 C 5,3 C 35,4 km/h (5 Bft) 100,00 %
11.05.2016 09:14 13,2 C 84 % 1007,5 hPa 0,0 l/m 24,6 km/h (4 Bft) O-NO 62 0 min 0,000 mm 0,8 UV-I 213 W/m 10,6 C 6,3 C 32,2 km/h (5 Bft) 100,00 %
11.05.2016 09:15 13,2 C 85 % 1007,5 hPa 0,0 l/m 24,6 km/h (4 Bft) NO 49 0 min 0,000 mm 0,9 UV-I 224 W/m 10,7 C 6,3 C 32,2 km/h (5 Bft) 96,88 %
11.05.2016 09:16 13,2 C 85 % 1007,5 hPa 0,0 l/m 25,4 km/h (4 Bft) O-SO 109 0 min 0,000 mm 1,0 UV-I 245 W/m 10,7 C 6,1 C 32,2 km/h (5 Bft) 100,00 %
11.05.2016 09:17 13,2 C 84 % 1007,5 hPa 0,0 l/m 17,9 km/h (3 Bft) NO 34 0 min 0,000 mm 1,1 UV-I 264 W/m 10,6 C 8,0 C 32,2 km/h (5 Bft) 100,00 %
11.05.2016 09:18 13,2 C 85 % 1007,5 hPa 0,0 l/m 21,4 km/h (4 Bft) O 97 0 min 0,000 mm 1,1 UV-I 248 W/m 10,7 C 7,0 C 29,0 km/h (5 Bft) 100,00 %
11.05.2016 09:19 13,3 C 85 % 1007,5 hPa 0,0 l/m 17,8 km/h (3 Bft) O-NO 75 0 min 0,000 mm 1,1 UV-I 248 W/m 10,8 C 8,2 C 27,4 km/h (4 Bft) 100,00 %
11.05.2016 09:20 13,3 C 84 % 1007,5 hPa 0,0 l/m 24,4 km/h (4 Bft) O-NO 71 0 min 0,000 mm 1,1 UV-I 268 W/m 10,7 C 6,4 C 40,2 km/h (6 Bft) 100,00 %
11.05.2016 09:21 13,3 C 84 % 1007,5 hPa 0,0 l/m 24,7 km/h (4 Bft) O-NO 78 0 min 0,000 mm 1,1 UV-I 259 W/m 10,7 C 6,4 C 30,6 km/h (5 Bft) 100,00 %
11.05.2016 09:22 13,3 C 84 % 1007,5 hPa 0,0 l/m 24,4 km/h (4 Bft) NO 55 0 min 0,000 mm 1,1 UV-I 267 W/m 10,7 C 6,4 C 32,2 km/h (5 Bft) 96,30 %
11.05.2016 09:23 13,3 C 84 % 1007,5 hPa 0,0 l/m 17,9 km/h (3 Bft) NO 55 0 min 0,000 mm 1,2 UV-I 304 W/m 10,7 C 8,2 C 24,1 km/h (4 Bft) 100,00 %
11.05.2016 09:24 13,4 C 84 % 1007,5 hPa 0,0 l/m 20,0 km/h (4 Bft) O-NO 67 1 min 0,000 mm 1,4 UV-I 333 W/m 10,8 C 7,7 C 29,0 km/h (5 Bft) 100,00 %
11.05.2016 09:25 13,4 C 84 % 1007,5 hPa 0,0 l/m 24,2 km/h (4 Bft) O-NO 78 0 min 0,000 mm 1,4 UV-I 322 W/m 10,8 C 6,6 C 32,2 km/h (5 Bft) 100,00 %
11.05.2016 09:26 13,4 C 84 % 1007,4 hPa 0,0 l/m 24,1 km/h (4 Bft) O-NO 72 0 min 0,000 mm 1,4 UV-I 323 W/m 10,8 C 6,6 C 35,4 km/h (5 Bft) 100,00 %
11.05.2016 09:27 13,5 C 83 % 1007,3 hPa 0,0 l/m 25,9 km/h (4 Bft) O-NO 77 0 min 0,000 mm 1,4 UV-I 324 W/m 10,7 C 6,4 C 30,6 km/h (5 Bft) 100,00 %
11.05.2016 09:28 13,6 C 83 % 1007,3 hPa 0,0 l/m 21,8 km/h (4 Bft) O-NO 72 0 min 0,000 mm 1,4 UV-I 315 W/m 10,8 C 7,5 C 29,0 km/h (5 Bft) 100,00 %
11.05.2016 09:29 13,6 C 84 % 1007,3 hPa 0,0 l/m 17,6 km/h (3 Bft) O 92 0 min 0,000 mm 1,5 UV-I 315 W/m 10,9 C 8,6 C 24,1 km/h (4 Bft) 100,00 %
11.05.2016 09:30 13,7 C 84 % 1007,4 hPa 0,0 l/m 20,5 km/h (4 Bft) O 98 0 min 0,000 mm 1,5 UV-I 313 W/m 11,0 C 7,9 C 29,0 km/h (5 Bft) 100,00 %
11.05.2016 09:31 13,7 C 84 % 1007,3 hPa 0,0 l/m 23,5 km/h (4 Bft) O-NO 59 0 min 0,000 mm 1,4 UV-I 309 W/m 11,0 C 7,2 C 29,0 km/h (5 Bft) 100,00 %
11.05.2016 09:32 13,7 C 83 % 1007,3 hPa 0,0 l/m 25,6 km/h (4 Bft) O 83 0 min 0,000 mm 1,4 UV-I 318 W/m 10,9 C 6,7 C 29,0 km/h (5 Bft) 100,00 %
11.05.2016 09:33 13,8 C 83 % 1007,3 hPa 0,0 l/m 20,1 km/h (4 Bft) NO 39 0 min 0,000 mm 1,5 UV-I 323 W/m 11,0 C 8,2 C 25,7 km/h (4 Bft) 100,00 %
11.05.2016 09:34 13,8 C 84 % 1007,3 hPa 0,0 l/m 19,7 km/h (3 Bft) NO 52 0 min 0,000 mm 1,3 UV-I 323 W/m 11,1 C 8,3 C 27,4 km/h (4 Bft) 100,00 %
11.05.2016 09:35 13,9 C 83 % 1007,2 hPa 0,0 l/m 15,8 km/h (3 Bft) O-NO 68 0 min 0,000 mm 1,6 UV-I 323 W/m 11,1 C 9,6 C 20,9 km/h (4 Bft) 100,00 %
11.05.2016 09:36 13,9 C 83 % 1007,2 hPa 0,0 l/m 24,5 km/h (4 Bft) O-NO 72 1 min 0,000 mm 1,7 UV-I 372 W/m 11,1 C 7,2 C 33,8 km/h (5 Bft) 97,56 %
11.05.2016 09:37 14,0 C 82 % 1007,2 hPa 0,0 l/m 21,6 km/h (4 Bft) O-NO 68 1 min 0,000 mm 1,9 UV-I 471 W/m 11,0 C 8,0 C 33,8 km/h (5 Bft) 100,00 %
11.05.2016 09:38 14,1 C 82 % 1007,1 hPa 0,0 l/m 25,6 km/h (4 Bft) NO 55 1 min 0,000 mm 1,7 UV-I 429 W/m 11,1 C 7,3 C 32,2 km/h (5 Bft) 98,53 %
11.05.2016 09:39 14,1 C 82 % 1007,1 hPa 0,0 l/m 22,0 km/h (4 Bft) O-NO 63 1 min 0,000 mm 2,0 UV-I 467 W/m 11,1 C 8,1 C 30,6 km/h (5 Bft) 100,00 %
11.05.2016 09:40 14,2 C 82 % 1007,1 hPa 0,0 l/m 23,5 km/h (4 Bft) O-NO 67 1 min 0,000 mm 1,4 UV-I 455 W/m 11,2 C 7,9 C 30,6 km/h (5 Bft) 100,00 %
11.05.2016 09:41 14,2 C 82 % 1007,1 hPa 0,0 l/m 22,6 km/h (4 Bft) NO 56 1 min 0,000 mm 1,5 UV-I 357 W/m 11,2 C 8,1 C 30,6 km/h (5 Bft) 100,00 %
11.05.2016 09:42 14,2 C 82 % 1007,0 hPa 0,0 l/m 19,6 km/h (3 Bft) N-NO 29 1 min 0,000 mm 1,5 UV-I 368 W/m 11,2 C 8,8 C 27,4 km/h (4 Bft) 100,00 %
11.05.2016 09:43 14,2 C 81 % 1007,0 hPa 0,0 l/m 28,0 km/h (4 Bft) O-NO 60 1 min 0,000 mm 1,6 UV-I 375 W/m 11,0 C 6,9 C 33,8 km/h (5 Bft) 100,00 %
11.05.2016 09:44 14,2 C 81 % 1007,0 hPa 0,0 l/m 24,1 km/h (4 Bft) O-NO 61 0 min 0,000 mm 1,6 UV-I 352 W/m 11,0 C 7,7 C 30,6 km/h (5 Bft) 100,00 %
11.05.2016 09:45 14,3 C 82 % 1007,0 hPa 0,0 l/m 26,3 km/h (4 Bft) O-NO 63 0 min 0,000 mm 2,2 UV-I 348 W/m 11,3 C 7,4 C 35,4 km/h (5 Bft) 100,00 %
11.05.2016 09:46 14,3 C 81 % 1006,9 hPa 0,0 l/m 22,6 km/h (4 Bft) O-NO 60 0 min 0,000 mm 2,4 UV-I 348 W/m 11,1 C 8,2 C 32,2 km/h (5 Bft) 100,00 %
11.05.2016 09:47 14,4 C 82 % 1007,0 hPa 0,0 l/m 23,9 km/h (4 Bft) NO 51 1 min 0,000 mm 1,8 UV-I 408 W/m 11,4 C 8,0 C 32,2 km/h (5 Bft) 100,00 %
11.05.2016 09:48 14,4 C 81 % 1007,0 hPa 0,0 l/m 26,3 km/h (4 Bft) NO 56 1 min 0,000 mm 1,9 UV-I 499 W/m 11,2 C 7,5 C 33,8 km/h (5 Bft) 100,00 %
11.05.2016 09:49 14,4 C 80 % 1006,9 hPa 0,0 l/m 23,1 km/h (4 Bft) O-NO 61 1 min 0,000 mm 1,6 UV-I 375 W/m 11,0 C 8,2 C 32,2 km/h (5 Bft) 100,00 %
11.05.2016 09:50 14,4 C 80 % 1006,9 hPa 0,0 l/m 28,6 km/h (4 Bft) O-NO 65 0 min 0,000 mm 1,7 UV-I 333 W/m 11,0 C 7,1 C 33,8 km/h (5 Bft) 100,00 %
11.05.2016 09:51 14,4 C 80 % 1006,9 hPa 0,0 l/m 24,1 km/h (4 Bft) O-NO 68 0 min 0,000 mm 1,9 UV-I 329 W/m 11,0 C 8,0 C 32,2 km/h (5 Bft) 100,00 %
11.05.2016 09:52 14,4 C 80 % 1006,9 hPa 0,0 l/m 23,3 km/h (4 Bft) O-NO 60 0 min 0,000 mm 1,7 UV-I 322 W/m 11,0 C 8,2 C 30,6 km/h (5 Bft) 100,00 %
11.05.2016 09:53 14,4 C 80 % 1006,8 hPa 0,0 l/m 26,8 km/h (4 Bft) O-NO 63 0 min 0,000 mm 1,6 UV-I 290 W/m 11,0 C 7,4 C 35,4 km/h (5 Bft) 100,00 %
11.05.2016 09:54 14,3 C 80 % 1006,8 hPa 0,0 l/m 33,0 km/h (5 Bft) NO 50 0 min 0,000 mm 1,7 UV-I 304 W/m 10,9 C 6,2 C 40,2 km/h (6 Bft) 100,00 %
11.05.2016 09:55 14,3 C 80 % 1006,7 hPa 0,0 l/m 24,3 km/h (4 Bft) O-NO 64 0 min 0,000 mm 1,9 UV-I 315 W/m 10,9 C 7,8 C 33,8 km/h (5 Bft) 100,00 %
11.05.2016 09:56 14,3 C 81 % 1006,7 hPa 0,0 l/m 22,7 km/h (4 Bft) N-NO 24 0 min 0,000 mm 1,9 UV-I 329 W/m 11,1 C 8,2 C 32,2 km/h (5 Bft) 100,00 %
11.05.2016 09:57 14,3 C 81 % 1006,6 hPa 0,0 l/m 26,8 km/h (4 Bft) NO 44 1 min 0,000 mm 1,9 UV-I 377 W/m 11,1 C 7,3 C 32,2 km/h (5 Bft) 100,00 %
11.05.2016 09:58 14,3 C 80 % 1006,7 hPa 0,0 l/m 20,4 km/h (4 Bft) NO 45 0 min 0,000 mm 1,9 UV-I 312 W/m 10,9 C 8,7 C 27,4 km/h (4 Bft) 96,30 %
11.05.2016 09:59 14,4 C 80 % 1006,8 hPa 0,0 l/m 30,2 km/h (5 Bft) NO 47 0 min 0,000 mm 2,0 UV-I 341 W/m 11,0 C 6,8 C 40,2 km/h (6 Bft) 100,00 %
11.05.2016 10:00 14,4 C 80 % 1006,7 hPa 0,0 l/m 29,7 km/h (5 Bft) NO 55 1 min 0,228 mm 2,8 UV-I 520 W/m 11,0 C 6,9 C 37,0 km/h (5 Bft) 96,30 %
11.05.2016 10:02 14,6 C 80 % 1006,7 hPa 0,0 l/m 28,8 km/h (4 Bft) O-NO 71 2 min 0,000 mm 2,4 UV-I 758 W/m 11,2 C 7,3 C 38,6 km/h (5 Bft) 97,73 %
11.05.2016 10:03 14,6 C 80 % 1006,7 hPa 0,0 l/m 30,8 km/h (5 Bft) NO 48 1 min 0,000 mm 2,4 UV-I 758 W/m 11,2 C 7,0 C 41,8 km/h (6 Bft) 100,00 %
11.05.2016 10:04 14,7 C 79 % 1006,7 hPa 0,0 l/m 30,7 km/h (5 Bft) O-NO 61 1 min 0,000 mm 2,7 UV-I 738 W/m 11,1 C 7,1 C 48,3 km/h (6 Bft) 96,30 %
11.05.2016 10:05 14,7 C 79 % 1006,7 hPa 0,0 l/m 29,4 km/h (5 Bft) O-NO 73 1 min 0,000 mm 2,8 UV-I 671 W/m 11,1 C 7,4 C 37,0 km/h (5 Bft) 100,00 %
11.05.2016 10:06 14,7 C 79 % 1006,7 hPa 0,0 l/m 27,1 km/h (4 Bft) O-NO 78 1 min 0,000 mm 2,8 UV-I 656 W/m 11,1 C 7,8 C 40,2 km/h (6 Bft) 93,33 %
11.05.2016 10:07 14,8 C 79 % 1006,8 hPa 0,0 l/m 31,6 km/h (5 Bft) NO 53 1 min 0,000 mm 2,8 UV-I 663 W/m 11,2 C 7,1 C 37,0 km/h (5 Bft) 95,12 %
11.05.2016 10:08 14,8 C 79 % 1006,7 hPa 0,0 l/m 25,2 km/h (4 Bft) O-NO 57 1 min 0,000 mm 2,9 UV-I 724 W/m 11,2 C 8,3 C 33,8 km/h (5 Bft) 100,00 %
11.05.2016 10:09 14,8 C 78 % 1006,7 hPa 0,0 l/m 24,4 km/h (4 Bft) O-NO 63 1 min 0,000 mm 3,0 UV-I 742 W/m 11,0 C 8,5 C 30,6 km/h (5 Bft) 93,33 %
11.05.2016 10:10 14,9 C 79 % 1006,7 hPa 0,0 l/m 24,2 km/h (4 Bft) NO 51 1 min 0,000 mm 3,0 UV-I 720 W/m 11,3 C 8,6 C 35,4 km/h (5 Bft) 100,00 %
11.05.2016 10:11 15,1 C 80 % 1006,7 hPa 0,0 l/m 28,4 km/h (4 Bft) O 90 1 min 0,000 mm 3,0 UV-I 733 W/m 11,7 C 8,1 C 35,4 km/h (5 Bft) 91,67 %
11.05.2016 10:12 15,1 C 79 % 1006,7 hPa 0,0 l/m 19,1 km/h (3 Bft) NO 54 1 min 0,000 mm 3,0 UV-I 754 W/m 11,5 C 10,1 C 27,4 km/h (4 Bft) 100,00 %
11.05.2016 10:13 15,2 C 78 % 1006,7 hPa 0,0 l/m 26,6 km/h (4 Bft) O-NO 68 1 min 0,000 mm 3,1 UV-I 760 W/m 11,4 C 8,6 C 35,4 km/h (5 Bft) 96,15 %
11.05.2016 10:14 15,3 C 78 % 1006,7 hPa 0,0 l/m 21,9 km/h (4 Bft) O-NO 59 1 min 0,000 mm 2,9 UV-I 759 W/m 11,5 C 9,7 C 29,0 km/h (5 Bft) 100,00 %
11.05.2016 10:15 15,4 C 78 % 1006,6 hPa 0,0 l/m 21,9 km/h (4 Bft) O-NO 57 1 min 0,000 mm 3,1 UV-I 759 W/m 11,6 C 9,8 C 25,7 km/h (4 Bft) 96,30 %
11.05.2016 10:16 15,4 C 77 % 1006,7 hPa 0,0 l/m 22,3 km/h (4 Bft) O-NO 77 1 min 0,000 mm 2,9 UV-I 791 W/m 11,4 C 9,7 C 32,2 km/h (5 Bft) 96,55 %
11.05.2016 10:17 15,5 C 77 % 1006,7 hPa 0,0 l/m 20,4 km/h (4 Bft) O 79 1 min 0,000 mm 3,1 UV-I 749 W/m 11,5 C 10,3 C 32,2 km/h (5 Bft) 100,00 %
11.05.2016 10:18 15,6 C 77 % 1006,7 hPa 0,0 l/m 29,4 km/h (5 Bft) O-NO 74 1 min 0,000 mm 2,7 UV-I 688 W/m 11,6 C 8,6 C 38,6 km/h (5 Bft) 96,15 %
11.05.2016 10:19 15,6 C 78 % 1006,7 hPa 0,0 l/m 30,0 km/h (5 Bft) O-NO 63 1 min 0,000 mm 2,5 UV-I 657 W/m 11,8 C 8,5 C 35,4 km/h (5 Bft) 96,30 %
11.05.2016 10:20 15,6 C 77 % 1006,7 hPa 0,0 l/m 27,8 km/h (4 Bft) O 89 1 min 0,000 mm 2,9 UV-I 657 W/m 11,6 C 8,9 C 37,0 km/h (5 Bft) 86,96 %
11.05.2016 10:21 15,6 C 76 % 1006,7 hPa 0,0 l/m 29,5 km/h (5 Bft) NO 42 1 min 0,000 mm 2,4 UV-I 608 W/m 11,4 C 8,6 C 35,4 km/h (5 Bft) 100,00 %
11.05.2016 10:22 15,6 C 76 % 1006,7 hPa 0,0 l/m 24,9 km/h (4 Bft) O-NO 72 1 min 0,000 mm 2,4 UV-I 413 W/m 11,4 C 9,4 C 32,2 km/h (5 Bft) 91,30 %
11.05.2016 10:23 15,6 C 77 % 1006,7 hPa 0,0 l/m 22,1 km/h (4 Bft) O 86 1 min 0,000 mm 3,0 UV-I 413 W/m 11,6 C 10,0 C 29,0 km/h (5 Bft) 95,83 %
11.05.2016 10:24 15,6 C 77 % 1006,7 hPa 0,0 l/m 23,9 km/h (4 Bft) O-NO 63 1 min 0,000 mm 2,4 UV-I 422 W/m 11,6 C 9,6 C 29,0 km/h (5 Bft) 98,48 %
11.05.2016 10:25 15,6 C 76 % 1006,7 hPa 0,0 l/m 22,6 km/h (4 Bft) O-NO 74 1 min 0,000 mm 2,8 UV-I 431 W/m 11,4 C 9,9 C 32,2 km/h (5 Bft) 97,56 %
11.05.2016 10:26 15,6 C 76 % 1006,7 hPa 0,0 l/m 30,6 km/h (5 Bft) O-NO 73 1 min 0,000 mm 2,6 UV-I 431 W/m 11,4 C 8,4 C 37,0 km/h (5 Bft) 96,15 %
11.05.2016 10:27 15,6 C 77 % 1006,7 hPa 0,0 l/m 21,8 km/h (4 Bft) O 86 1 min 0,000 mm 2,3 UV-I 436 W/m 11,6 C 10,1 C 30,6 km/h (5 Bft) 93,33 %
11.05.2016 10:28 15,6 C 77 % 1006,7 hPa 0,0 l/m 27,7 km/h (4 Bft) O-NO 77 1 min 0,000 mm 2,1 UV-I 432 W/m 11,6 C 8,9 C 32,2 km/h (5 Bft) 100,00 %
11.05.2016 10:29 15,7 C 77 % 1006,7 hPa 0,0 l/m 21,2 km/h (4 Bft) NO 40 1 min 0,000 mm 3,0 UV-I 595 W/m 11,7 C 10,4 C 27,4 km/h (4 Bft) 100,00 %
11.05.2016 10:30 15,7 C 76 % 1006,7 hPa 0,0 l/m 25,9 km/h (4 Bft) O-NO 74 1 min 0,000 mm 2,6 UV-I 874 W/m 11,5 C 9,4 C 38,6 km/h (5 Bft) 100,00 %
11.05.2016 10:31 15,8 C 76 % 1006,7 hPa 0,0 l/m 29,1 km/h (5 Bft) O-NO 67 1 min 0,000 mm 2,8 UV-I 767 W/m 11,6 C 9,0 C 35,4 km/h (5 Bft) 100,00 %
11.05.2016 10:32 15,8 C 76 % 1006,6 hPa 0,0 l/m 33,3 km/h (5 Bft) O-NO 78 1 min 0,000 mm 2,6 UV-I 721 W/m 11,6 C 8,3 C 41,8 km/h (6 Bft) 100,00 %
11.05.2016 10:33 15,7 C 75 % 1006,7 hPa 0,0 l/m 27,0 km/h (4 Bft) O 84 1 min 0,000 mm 2,6 UV-I 678 W/m 11,3 C 9,2 C 35,4 km/h (5 Bft) 100,00 %
11.05.2016 10:34 15,7 C 76 % 1006,6 hPa 0,0 l/m 27,0 km/h (4 Bft) O 79 1 min 0,000 mm 2,8 UV-I 428 W/m 11,5 C 9,2 C 30,6 km/h (5 Bft) 96,88 %
11.05.2016 10:35 15,7 C 76 % 1006,6 hPa 0,0 l/m 25,7 km/h (4 Bft) O-NO 59 0 min 0,000 mm 2,2 UV-I 342 W/m 11,5 C 9,4 C 33,8 km/h (5 Bft) 91,67 %
11.05.2016 10:36 15,7 C 76 % 1006,6 hPa 0,0 l/m 30,0 km/h (5 Bft) O-NO 69 0 min 0,000 mm 2,0 UV-I 330 W/m 11,5 C 8,7 C 40,2 km/h (6 Bft) 100,00 %
11.05.2016 10:37 15,6 C 76 % 1006,6 hPa 0,0 l/m 29,6 km/h (5 Bft) O 88 0 min 0,000 mm 2,2 UV-I 346 W/m 11,4 C 8,6 C 40,2 km/h (6 Bft) 100,00 %
11.05.2016 10:38 15,6 C 76 % 1006,5 hPa 0,0 l/m 30,8 km/h (5 Bft) O-NO 67 1 min 0,000 mm 2,3 UV-I 471 W/m 11,4 C 8,4 C 40,2 km/h (6 Bft) 100,00 %
11.05.2016 10:39 15,6 C 76 % 1006,5 hPa 0,0 l/m 25,7 km/h (4 Bft) O-NO 78 1 min 0,000 mm 2,7 UV-I 531 W/m 11,4 C 9,3 C 37,0 km/h (5 Bft) 100,00 %
11.05.2016 10:40 15,6 C 76 % 1006,5 hPa 0,0 l/m 26,0 km/h (4 Bft) O-SO 105 1 min 0,000 mm 2,9 UV-I 677 W/m 11,4 C 9,2 C 37,0 km/h (5 Bft) 100,00 %
11.05.2016 10:41 15,6 C 77 % 1006,5 hPa 0,0 l/m 23,9 km/h (4 Bft) O-NO 69 1 min 0,000 mm 3,0 UV-I 677 W/m 11,6 C 9,6 C 30,6 km/h (5 Bft) 100,00 %
11.05.2016 10:42 15,7 C 77 % 1006,5 hPa 0,0 l/m 30,7 km/h (5 Bft) O-NO 61 1 min 0,000 mm 3,0 UV-I 699 W/m 11,7 C 8,6 C 40,2 km/h (6 Bft) 100,00 %
11.05.2016 10:43 15,7 C 76 % 1006,5 hPa 0,0 l/m 25,9 km/h (4 Bft) NO 55 1 min 0,000 mm 3,3 UV-I 721 W/m 11,5 C 9,4 C 38,6 km/h (5 Bft) 100,00 %
11.05.2016 10:44 15,8 C 76 % 1006,5 hPa 0,0 l/m 29,9 km/h (5 Bft) O 80 1 min 0,000 mm 3,5 UV-I 767 W/m 11,6 C 8,8 C 38,6 km/h (5 Bft) 100,00 %
11.05.2016 10:45 15,8 C 76 % 1006,4 hPa 0,0 l/m 26,5 km/h (4 Bft) O-SO 104 1 min 0,000 mm 3,6 UV-I 767 W/m 11,6 C 9,4 C 33,8 km/h (5 Bft) 100,00 %
11.05.2016 10:46 15,9 C 76 % 1006,4 hPa 0,0 l/m 28,3 km/h (4 Bft) NO 46 1 min 0,000 mm 3,5 UV-I 758 W/m 11,7 C 9,2 C 35,4 km/h (5 Bft) 100,00 %
11.05.2016 10:47 15,9 C 76 % 1006,4 hPa 0,0 l/m 22,3 km/h (4 Bft) O 90 1 min 0,000 mm 3,5 UV-I 710 W/m 11,7 C 10,4 C 33,8 km/h (5 Bft) 100,00 %
11.05.2016 10:48 16,0 C 77 % 1006,4 hPa 0,0 l/m 24,1 km/h (4 Bft) O-NO 60 1 min 0,000 mm 3,6 UV-I 758 W/m 12,0 C 10,1 C 32,2 km/h (5 Bft) 93,33 %
11.05.2016 10:49 16,1 C 76 % 1006,3 hPa 0,0 l/m 21,5 km/h (4 Bft) O-NO 76 1 min 0,000 mm 3,6 UV-I 800 W/m 11,9 C 10,8 C 29,0 km/h (5 Bft) 100,00 %
11.05.2016 10:50 16,2 C 76 % 1006,3 hPa 0,0 l/m 24,3 km/h (4 Bft) O-NO 78 1 min 0,000 mm 3,6 UV-I 795 W/m 12,0 C 10,4 C 30,6 km/h (5 Bft) 100,00 %
11.05.2016 10:51 16,3 C 76 % 1006,3 hPa 0,0 l/m 24,8 km/h (4 Bft) NO 56 1 min 0,000 mm 3,6 UV-I 709 W/m 12,1 C 10,4 C 30,6 km/h (5 Bft) 96,15 %
11.05.2016 10:52 16,3 C 76 % 1006,3 hPa 0,0 l/m 22,7 km/h (4 Bft) O-NO 64 1 min 0,000 mm 3,6 UV-I 647 W/m 12,1 C 10,8 C 27,4 km/h (4 Bft) 95,83 %
11.05.2016 10:53 16,3 C 76 % 1006,3 hPa 0,0 l/m 25,0 km/h (4 Bft) O-NO 71 1 min 0,000 mm 3,6 UV-I 647 W/m 12,1 C 10,4 C 33,8 km/h (5 Bft) 100,00 %
11.05.2016 10:54 16,3 C 75 % 1006,3 hPa 0,0 l/m 27,3 km/h (4 Bft) O-NO 65 1 min 0,000 mm 3,0 UV-I 647 W/m 11,9 C 10,0 C 32,2 km/h (5 Bft) 100,00 %
11.05.2016 10:55 16,3 C 75 % 1006,3 hPa 0,0 l/m 19,0 km/h (3 Bft) O-NO 69 1 min 0,000 mm 2,9 UV-I 422 W/m 11,9 C 11,7 C 27,4 km/h (4 Bft) 100,00 %
11.05.2016 10:56 16,3 C 75 % 1006,3 hPa 0,0 l/m 22,2 km/h (4 Bft) NO 38 1 min 0,000 mm 3,3 UV-I 452 W/m 11,9 C 10,9 C 29,0 km/h (5 Bft) 100,00 %
11.05.2016 10:57 16,3 C 77 % 1006,3 hPa 0,0 l/m 25,9 km/h (4 Bft) O-NO 63 1 min 0,000 mm 3,5 UV-I 678 W/m 12,3 C 10,2 C 30,6 km/h (5 Bft) 100,00 %
11.05.2016 10:58 16,4 C 76 % 1006,2 hPa 0,0 l/m 25,5 km/h (4 Bft) NO 53 1 min 0,000 mm 3,1 UV-I 735 W/m 12,2 C 10,4 C 32,2 km/h (5 Bft) 92,86 %
11.05.2016 10:59 16,4 C 75 % 1006,2 hPa 0,0 l/m 21,6 km/h (4 Bft) O-NO 66 1 min 0,000 mm 2,7 UV-I 735 W/m 12,0 C 11,2 C 32,2 km/h (5 Bft) 100,00 %
11.05.2016 11:00 16,4 C 75 % 1006,3 hPa 0,0 l/m 23,4 km/h (4 Bft) N-NO 26 1 min 0,000 mm 3,1 UV-I 602 W/m 12,0 C 10,8 C 29,0 km/h (5 Bft) 100,00 %
11.05.2016 11:02 16,4 C 75 % 1006,2 hPa 0,0 l/m 22,1 km/h (4 Bft) O-NO 57 2 min 0,407 mm 3,2 UV-I 564 W/m 12,0 C 11,1 C 35,4 km/h (5 Bft) 100,00 %
11.05.2016 11:03 16,5 C 74 % 1006,1 hPa 0,0 l/m 20,6 km/h (4 Bft) O-SO 120 1 min 0,000 mm 3,6 UV-I 671 W/m 11,8 C 11,5 C 30,6 km/h (5 Bft) 100,00 %
11.05.2016 11:04 16,5 C 74 % 1006,1 hPa 0,0 l/m 25,1 km/h (4 Bft) O-NO 59 1 min 0,000 mm 3,4 UV-I 688 W/m 11,8 C 10,6 C 33,8 km/h (5 Bft) 100,00 %
11.05.2016 11:05 16,5 C 73 % 1006,2 hPa 0,0 l/m 29,1 km/h (5 Bft) NO 56 1 min 0,000 mm 3,3 UV-I 624 W/m 11,6 C 9,9 C 37,0 km/h (5 Bft) 100,00 %
11.05.2016 11:06 16,5 C 74 % 1006,1 hPa 0,0 l/m 20,0 km/h (4 Bft) O 80 1 min 0,000 mm 3,3 UV-I 632 W/m 11,8 C 11,7 C 30,6 km/h (5 Bft) 100,00 %
11.05.2016 11:07 16,5 C 74 % 1006,1 hPa 0,0 l/m 25,4 km/h (4 Bft) O-NO 78 1 min 0,000 mm 3,6 UV-I 701 W/m 11,8 C 10,6 C 41,8 km/h (6 Bft) 100,00 %
11.05.2016 11:08 16,5 C 73 % 1006,0 hPa 0,0 l/m 31,5 km/h (5 Bft) O 81 1 min 0,000 mm 3,8 UV-I 743 W/m 11,6 C 9,6 C 41,8 km/h (6 Bft) 100,00 %
11.05.2016 11:09 16,5 C 73 % 1006,0 hPa 0,0 l/m 26,9 km/h (4 Bft) O-NO 65 1 min 0,000 mm 4,0 UV-I 802 W/m 11,6 C 10,3 C 38,6 km/h (5 Bft) 100,00 %
11.05.2016 11:10 16,5 C 74 % 1006,0 hPa 0,0 l/m 26,0 km/h (4 Bft) O-NO 64 1 min 0,000 mm 3,8 UV-I 735 W/m 11,8 C 10,5 C 33,8 km/h (5 Bft) 100,00 %
11.05.2016 11:11 16,6 C 74 % 1006,0 hPa 0,0 l/m 24,9 km/h (4 Bft) O-NO 66 1 min 0,000 mm 3,4 UV-I 698 W/m 11,9 C 10,8 C 35,4 km/h (5 Bft) 95,83 %
11.05.2016 11:12 16,6 C 74 % 1006,0 hPa 0,0 l/m 22,4 km/h (4 Bft) O-NO 59 1 min 0,000 mm 3,3 UV-I 641 W/m 11,9 C 11,3 C 29,0 km/h (5 Bft) 100,00 %
11.05.2016 11:13 16,6 C 74 % 1006,0 hPa 0,0 l/m 30,3 km/h (5 Bft) O 82 1 min 0,000 mm 3,2 UV-I 617 W/m 11,9 C 9,9 C 41,8 km/h (6 Bft) 100,00 %
11.05.2016 11:14 16,5 C 74 % 1006,0 hPa 0,0 l/m 22,2 km/h (4 Bft) O-NO 61 1 min 0,000 mm 3,3 UV-I 617 W/m 11,8 C 11,2 C 27,4 km/h (4 Bft) 91,67 %
11.05.2016 11:15 16,5 C 74 % 1006,0 hPa 0,0 l/m 27,6 km/h (4 Bft) NO 55 1 min 0,000 mm 3,6 UV-I 639 W/m 11,8 C 10,2 C 37,0 km/h (5 Bft) 100,00 %
11.05.2016 11:16 16,5 C 74 % 1005,9 hPa 0,0 l/m 30,7 km/h (5 Bft) O 84 1 min 0,000 mm 3,4 UV-I 640 W/m 11,8 C 9,7 C 40,2 km/h (6 Bft) 100,00 %
11.05.2016 11:17 16,5 C 73 % 1005,9 hPa 0,0 l/m 26,6 km/h (4 Bft) NO 53 1 min 0,000 mm 3,6 UV-I 646 W/m 11,6 C 10,4 C 33,8 km/h (5 Bft) 100,00 %
11.05.2016 11:18 16,5 C 73 % 1005,8 hPa 0,0 l/m 30,6 km/h (5 Bft) NO 55 1 min 0,000 mm 3,4 UV-I 612 W/m 11,6 C 9,7 C 40,2 km/h (6 Bft) 100,00 %
11.05.2016 11:19 16,5 C 73 % 1005,8 hPa 0,0 l/m 27,8 km/h (4 Bft) O-NO 58 1 min 0,000 mm 3,1 UV-I 507 W/m 11,6 C 10,1 C 35,4 km/h (5 Bft) 100,00 %
11.05.2016 11:20 16,5 C 75 % 1005,8 hPa 0,0 l/m 29,9 km/h (5 Bft) O-NO 76 1 min 0,000 mm 3,2 UV-I 565 W/m 12,1 C 9,8 C 38,6 km/h (5 Bft) 100,00 %
11.05.2016 11:21 16,5 C 74 % 1005,8 hPa 0,0 l/m 31,9 km/h (5 Bft) O-NO 65 1 min 0,000 mm 3,4 UV-I 628 W/m 11,8 C 9,5 C 43,5 km/h (6 Bft) 100,00 %
11.05.2016 11:22 16,5 C 74 % 1005,8 hPa 0,0 l/m 25,0 km/h (4 Bft) O-NO 60 1 min 0,000 mm 3,6 UV-I 716 W/m 11,8 C 10,6 C 32,2 km/h (5 Bft) 100,00 %
11.05.2016 11:23 16,6 C 74 % 1005,8 hPa 0,0 l/m 26,9 km/h (4 Bft) O 92 1 min 0,000 mm 3,8 UV-I 759 W/m 11,9 C 10,4 C 35,4 km/h (5 Bft) 100,00 %
11.05.2016 11:24 16,6 C 74 % 1005,7 hPa 0,0 l/m 16,6 km/h (3 Bft) O-NO 69 1 min 0,000 mm 3,9 UV-I 768 W/m 11,9 C 12,7 C 24,1 km/h (4 Bft) 100,00 %
11.05.2016 11:25 16,7 C 75 % 1005,7 hPa 0,0 l/m 17,2 km/h (3 Bft) O-NO 65 1 min 0,000 mm 4,1 UV-I 843 W/m 12,2 C 12,6 C 27,4 km/h (4 Bft) 100,00 %
11.05.2016 11:26 16,8 C 75 % 1005,7 hPa 0,0 l/m 27,7 km/h (4 Bft) NO 36 1 min 0,000 mm 3,8 UV-I 781 W/m 12,3 C 10,6 C 35,4 km/h (5 Bft) 100,00 %
11.05.2016 11:27 16,9 C 75 % 1005,6 hPa 0,0 l/m 27,6 km/h (4 Bft) NO 36 1 min 0,000 mm 3,9 UV-I 750 W/m 12,4 C 10,7 C 38,6 km/h (5 Bft) 100,00 %
11.05.2016 11:28 16,9 C 75 % 1005,6 hPa 0,0 l/m 30,3 km/h (5 Bft) NO 39 1 min 0,000 mm 3,6 UV-I 749 W/m 12,4 C 10,3 C 35,4 km/h (5 Bft) 95,83 %
11.05.2016 11:29 16,9 C 74 % 1005,6 hPa 0,0 l/m 24,0 km/h (4 Bft) NO 38 1 min 0,000 mm 3,0 UV-I 749 W/m 12,2 C 11,4 C 38,6 km/h (5 Bft) 100,00 %
11.05.2016 11:30 16,9 C 74 % 1005,6 hPa 0,0 l/m 30,5 km/h (5 Bft) NO 51 1 min 0,000 mm 3,0 UV-I 749 W/m 12,2 C 10,3 C 35,4 km/h (5 Bft) 100,00 %
11.05.2016 11:31 16,8 C 73 % 1005,5 hPa 0,0 l/m 22,9 km/h (4 Bft) NO 55 1 min 0,000 mm 2,8 UV-I 716 W/m 11,9 C 11,4 C 29,0 km/h (5 Bft) 96,97 %
11.05.2016 11:32 16,7 C 73 % 1005,6 hPa 0,0 l/m 24,2 km/h (4 Bft) O-NO 63 0 min 0,000 mm 2,7 UV-I 350 W/m 11,8 C 11,1 C 35,4 km/h (5 Bft) 100,00 %
11.05.2016 11:33 16,7 C 73 % 1005,6 hPa 0,0 l/m 25,1 km/h (4 Bft) N-NO 31 0 min 0,000 mm 3,1 UV-I 350 W/m 11,8 C 10,9 C 32,2 km/h (5 Bft) 100,00 %
11.05.2016 11:34 16,7 C 74 % 1005,6 hPa 0,0 l/m 24,9 km/h (4 Bft) O-NO 62 0 min 0,000 mm 2,9 UV-I 395 W/m 12,0 C 10,9 C 38,6 km/h (5 Bft) 100,00 %
11.05.2016 11:35 16,7 C 73 % 1005,6 hPa 0,0 l/m 24,1 km/h (4 Bft) N-NO 31 0 min 0,000 mm 2,9 UV-I 435 W/m 11,8 C 11,1 C 29,0 km/h (5 Bft) 96,67 %
11.05.2016 11:36 16,7 C 74 % 1005,5 hPa 0,0 l/m 22,1 km/h (4 Bft) NO 55 0 min 0,000 mm 3,0 UV-I 427 W/m 12,0 C 11,5 C 30,6 km/h (5 Bft) 100,00 %
11.05.2016 11:37 16,7 C 75 % 1005,5 hPa 0,0 l/m 27,4 km/h (4 Bft) NO 41 0 min 0,000 mm 2,8 UV-I 427 W/m 12,2 C 10,5 C 38,6 km/h (5 Bft) 100,00 %
11.05.2016 11:38 16,7 C 75 % 1005,5 hPa 0,0 l/m 22,3 km/h (4 Bft) NO 49 0 min 0,000 mm 3,3 UV-I 445 W/m 12,2 C 11,4 C 27,4 km/h (4 Bft) 100,00 %
11.05.2016 11:39 16,7 C 75 % 1005,4 hPa 0,0 l/m 28,2 km/h (4 Bft) NO 43 1 min 0,000 mm 3,2 UV-I 493 W/m 12,2 C 10,4 C 37,0 km/h (5 Bft) 100,00 %
11.05.2016 11:40 16,7 C 75 % 1005,4 hPa 0,0 l/m 25,0 km/h (4 Bft) NO 38 1 min 0,000 mm 3,0 UV-I 464 W/m 12,2 C 10,9 C 33,8 km/h (5 Bft) 100,00 %
11.05.2016 11:41 16,7 C 74 % 1005,4 hPa 0,0 l/m 27,2 km/h (4 Bft) NO 39 0 min 0,000 mm 2,9 UV-I 413 W/m 12,0 C 10,5 C 35,4 km/h (5 Bft) 100,00 %
11.05.2016 11:42 16,8 C 74 % 1005,4 hPa 0,0 l/m 20,6 km/h (4 Bft) O-NO 74 1 min 0,000 mm 3,1 UV-I 527 W/m 12,1 C 11,9 C 33,8 km/h (5 Bft) 90,91 %
11.05.2016 11:43 16,8 C 73 % 1005,5 hPa 0,0 l/m 22,1 km/h (4 Bft) NO 49 1 min 0,000 mm 3,2 UV-I 547 W/m 11,9 C 11,6 C 30,6 km/h (5 Bft) 100,00 %
11.05.2016 11:44 16,8 C 74 % 1005,4 hPa 0,0 l/m 19,1 km/h (3 Bft) O-NO 67 1 min 0,000 mm 3,2 UV-I 526 W/m 12,1 C 12,3 C 27,4 km/h (4 Bft) 100,00 %
11.05.2016 11:45 16,9 C 74 % 1005,5 hPa 0,0 l/m 22,0 km/h (4 Bft) NO 55 1 min 0,000 mm 3,4 UV-I 526 W/m 12,2 C 11,8 C 32,2 km/h (5 Bft) 100,00 %
11.05.2016 11:46 17,0 C 73 % 1005,4 hPa 0,0 l/m 26,0 km/h (4 Bft) O-NO 74 1 min 0,000 mm 3,1 UV-I 497 W/m 12,1 C 11,1 C 35,4 km/h (5 Bft) 91,67 %
11.05.2016 11:47 17,0 C 72 % 1005,4 hPa 0,0 l/m 29,0 km/h (5 Bft) O-NO 74 1 min 0,000 mm 3,2 UV-I 507 W/m 11,9 C 10,7 C 35,4 km/h (5 Bft) 96,15 %
11.05.2016 11:48 17,0 C 72 % 1005,4 hPa 0,0 l/m 27,0 km/h (4 Bft) O-NO 63 1 min 0,000 mm 3,2 UV-I 522 W/m 11,9 C 11,0 C 33,8 km/h (5 Bft) 96,15 %
11.05.2016 11:49 16,9 C 71 % 1005,4 hPa 0,0 l/m 26,4 km/h (4 Bft) O-NO 58 1 min 0,000 mm 3,1 UV-I 494 W/m 11,6 C 10,9 C 33,8 km/h (5 Bft) 100,00 %
11.05.2016 11:50 16,9 C 72 % 1005,4 hPa 0,0 l/m 24,7 km/h (4 Bft) NO 51 1 min 0,000 mm 3,2 UV-I 520 W/m 11,8 C 11,2 C 32,2 km/h (5 Bft) 91,67 %
11.05.2016 11:51 16,9 C 73 % 1005,4 hPa 0,0 l/m 20,9 km/h (4 Bft) O-NO 61 1 min 0,000 mm 3,0 UV-I 480 W/m 12,0 C 12,0 C 27,4 km/h (4 Bft) 100,00 %
11.05.2016 11:52 16,9 C 74 % 1005,3 hPa 0,0 l/m 18,3 km/h (3 Bft) NO 50 1 min 0,000 mm 3,2 UV-I 559 W/m 12,2 C 12,6 C 30,6 km/h (5 Bft) 96,30 %
11.05.2016 11:53 17,0 C 73 % 1005,4 hPa 0,0 l/m 29,2 km/h (5 Bft) O-NO 58 1 min 0,000 mm 3,4 UV-I 571 W/m 12,1 C 10,6 C 38,6 km/h (5 Bft) 96,15 %
11.05.2016 11:54 17,0 C 72 % 1005,4 hPa 0,0 l/m 23,3 km/h (4 Bft) O 82 1 min 0,000 mm 3,5 UV-I 595 W/m 11,9 C 11,6 C 33,8 km/h (5 Bft) 100,00 %
11.05.2016 11:55 17,0 C 72 % 1005,3 hPa 0,0 l/m 29,3 km/h (5 Bft) NO 48 1 min 0,000 mm 3,3 UV-I 555 W/m 11,9 C 10,6 C 37,0 km/h (5 Bft) 94,12 %
11.05.2016 11:56 17,0 C 72 % 1005,2 hPa 0,0 l/m 28,6 km/h (4 Bft) O-NO 63 1 min 0,000 mm 3,5 UV-I 588 W/m 11,9 C 10,7 C 33,8 km/h (5 Bft) 100,00 %
11.05.2016 11:57 17,1 C 72 % 1005,3 hPa 0,0 l/m 26,5 km/h (4 Bft) O-NO 60 1 min 0,000 mm 3,4 UV-I 633 W/m 12,0 C 11,2 C 33,8 km/h (5 Bft) 96,15 %
11.05.2016 11:58 17,1 C 72 % 1005,3 hPa 0,0 l/m 25,1 km/h (4 Bft) O-NO 58 1 min 0,000 mm 3,0 UV-I 495 W/m 12,0 C 11,4 C 35,4 km/h (5 Bft) 100,00 %
11.05.2016 11:59 17,1 C 72 % 1005,3 hPa 0,0 l/m 26,1 km/h (4 Bft) O-NO 63 1 min 0,000 mm 3,0 UV-I 460 W/m 12,0 C 11,3 C 30,6 km/h (5 Bft) 96,15 %
11.05.2016 12:00 17,1 C 73 % 1005,2 hPa 0,0 l/m 23,2 km/h (4 Bft) O-NO 57 0 min 0,000 mm 2,8 UV-I 410 W/m 12,2 C 11,8 C 29,0 km/h (5 Bft) 92,59 %
11.05.2016 12:01 17,1 C 73 % 1005,2 hPa 0,0 l/m 20,2 km/h (4 Bft) NO 46 0 min 0,406 mm 2,8 UV-I 401 W/m 12,2 C 12,4 C 25,7 km/h (4 Bft) 100,00 %
11.05.2016 12:02 17,1 C 73 % 1005,2 hPa 0,0 l/m 16,9 km/h (3 Bft) NO 47 1 min 0,000 mm 3,0 UV-I 461 W/m 12,2 C 13,2 C 33,8 km/h (5 Bft) 96,30 %
11.05.2016 12:03 17,2 C 73 % 1005,2 hPa 0,0 l/m 21,8 km/h (4 Bft) NO 40 1 min 0,000 mm 3,0 UV-I 543 W/m 12,3 C 12,2 C 32,2 km/h (5 Bft) 100,00 %
11.05.2016 12:04 17,2 C 74 % 1005,1 hPa 0,0 l/m 23,2 km/h (4 Bft) NO 44 1 min 0,000 mm 3,4 UV-I 561 W/m 12,5 C 11,9 C 30,6 km/h (5 Bft) 92,59 %
11.05.2016 12:05 17,2 C 75 % 1005,2 hPa 0,0 l/m 25,2 km/h (4 Bft) N-NO 28 1 min 0,000 mm 3,4 UV-I 579 W/m 12,7 C 11,6 C 33,8 km/h (5 Bft) 100,00 %
11.05.2016 12:06 17,3 C 74 % 1005,1 hPa 0,0 l/m 27,0 km/h (4 Bft) NO 52 1 min 0,000 mm 3,5 UV-I 583 W/m 12,6 C 11,4 C 32,2 km/h (5 Bft) 92,59 %
11.05.2016 12:07 17,3 C 73 % 1005,1 hPa 0,0 l/m 24,3 km/h (4 Bft) O-NO 63 1 min 0,000 mm 3,6 UV-I 595 W/m 12,4 C 11,9 C 29,0 km/h (5 Bft) 100,00 %
11.05.2016 12:08 17,3 C 73 % 1005,1 hPa 0,0 l/m 20,6 km/h (4 Bft) O 88 1 min 0,000 mm 3,7 UV-I 636 W/m 12,4 C 12,6 C 29,0 km/h (5 Bft) 95,83 %
11.05.2016 12:09 17,3 C 73 % 1005,1 hPa 0,0 l/m 21,5 km/h (4 Bft) NO 49 1 min 0,000 mm 3,8 UV-I 683 W/m 12,4 C 12,4 C 25,7 km/h (4 Bft) 96,15 %
11.05.2016 12:10 17,4 C 72 % 1005,1 hPa 0,0 l/m 24,0 km/h (4 Bft) O-NO 73 1 min 0,000 mm 3,9 UV-I 692 W/m 12,3 C 12,0 C 33,8 km/h (5 Bft) 100,00 %
11.05.2016 12:11 17,4 C 72 % 1005,1 hPa 0,0 l/m 18,4 km/h (3 Bft) O-NO 57 1 min 0,000 mm 3,7 UV-I 694 W/m 12,3 C 13,2 C 24,1 km/h (4 Bft) 96,15 %
11.05.2016 12:12 17,5 C 73 % 1005,1 hPa 0,0 l/m 17,9 km/h (3 Bft) NO 47 1 min 0,000 mm 3,5 UV-I 571 W/m 12,6 C 13,5 C 29,0 km/h (5 Bft) 100,00 %
11.05.2016 12:13 17,6 C 72 % 1005,1 hPa 0,0 l/m 24,5 km/h (4 Bft) NO 35 1 min 0,000 mm 3,6 UV-I 562 W/m 12,5 C 12,2 C 33,8 km/h (5 Bft) 96,67 %
11.05.2016 12:14 17,6 C 73 % 1005,1 hPa 0,0 l/m 24,3 km/h (4 Bft) NO 49 1 min 0,000 mm 3,5 UV-I 556 W/m 12,7 C 12,3 C 30,6 km/h (5 Bft) 100,00 %
11.05.2016 12:15 17,7 C 72 % 1005,1 hPa 0,0 l/m 17,9 km/h (3 Bft) NO 44 1 min 0,000 mm 3,7 UV-I 560 W/m 12,6 C 13,7 C 29,0 km/h (5 Bft) 92,59 %
11.05.2016 12:16 17,7 C 71 % 1005,0 hPa 0,0 l/m 24,3 km/h (4 Bft) O-NO 65 1 min 0,000 mm 3,9 UV-I 533 W/m 12,4 C 12,4 C 33,8 km/h (5 Bft) 100,00 %
11.05.2016 12:17 17,7 C 71 % 1005,0 hPa 0,0 l/m 29,0 km/h (5 Bft) NO 55 1 min 0,000 mm 4,0 UV-I 661 W/m 12,4 C 11,6 C 35,4 km/h (5 Bft) 100,00 %
11.05.2016 12:18 17,7 C 70 % 1005,0 hPa 0,0 l/m 27,5 km/h (4 Bft) NO 52 1 min 0,000 mm 4,0 UV-I 702 W/m 12,2 C 11,9 C 35,4 km/h (5 Bft) 100,00 %
11.05.2016 12:19 17,7 C 71 % 1005,0 hPa 0,0 l/m 23,6 km/h (4 Bft) NO 52 1 min 0,000 mm 4,0 UV-I 707 W/m 12,4 C 12,5 C 30,6 km/h (5 Bft) 100,00 %
11.05.2016 12:20 17,8 C 72 % 1004,9 hPa 0,0 l/m 20,0 km/h (4 Bft) NO 55 1 min 0,000 mm 4,1 UV-I 726 W/m 12,7 C 13,4 C 37,0 km/h (5 Bft) 100,00 %
11.05.2016 12:21 17,8 C 71 % 1004,9 hPa 0,0 l/m 21,2 km/h (4 Bft) NO 40 1 min 0,000 mm 4,0 UV-I 758 W/m 12,5 C 13,1 C 29,0 km/h (5 Bft) 95,83 %
11.05.2016 12:22 17,9 C 71 % 1004,9 hPa 0,0 l/m 24,0 km/h (4 Bft) NO 56 1 min 0,000 mm 3,8 UV-I 676 W/m 12,6 C 12,7 C 30,6 km/h (5 Bft) 96,15 %
11.05.2016 12:23 17,9 C 70 % 1004,9 hPa 0,0 l/m 24,1 km/h (4 Bft) O-NO 61 1 min 0,000 mm 4,1 UV-I 692 W/m 12,3 C 12,7 C 32,2 km/h (5 Bft) 100,00 %
11.05.2016 12:24 17,9 C 71 % 1004,9 hPa 0,0 l/m 23,5 km/h (4 Bft) O-NO 71 1 min 0,000 mm 4,4 UV-I 772 W/m 12,6 C 12,8 C 41,8 km/h (6 Bft) 100,00 %
11.05.2016 12:25 18,0 C 70 % 1004,9 hPa 0,0 l/m 26,9 km/h (4 Bft) O-NO 65 1 min 0,000 mm 4,0 UV-I 699 W/m 12,4 C 12,4 C 33,8 km/h (5 Bft) 100,00 %
11.05.2016 12:26 18,1 C 70 % 1004,9 hPa 0,0 l/m 25,5 km/h (4 Bft) O-NO 60 1 min 0,000 mm 4,1 UV-I 699 W/m 12,5 C 12,7 C 30,6 km/h (5 Bft) 100,00 %
11.05.2016 12:27 18,1 C 70 % 1004,9 hPa 0,0 l/m 28,6 km/h (4 Bft) O-NO 62 1 min 0,000 mm 3,6 UV-I 663 W/m 12,5 C 12,2 C 33,8 km/h (5 Bft) 100,00 %
11.05.2016 12:28 18,1 C 69 % 1004,8 hPa 0,0 l/m 28,8 km/h (4 Bft) O-NO 66 1 min 0,000 mm 3,5 UV-I 540 W/m 12,3 C 12,2 C 38,6 km/h (5 Bft) 100,00 %
11.05.2016 12:29 18,1 C 69 % 1004,9 hPa 0,0 l/m 34,6 km/h (5 Bft) O-NO 74 1 min 0,000 mm 3,5 UV-I 539 W/m 12,3 C 11,5 C 49,9 km/h (6 Bft) 100,00 %
11.05.2016 12:30 18,0 C 68 % 1004,9 hPa 0,0 l/m 36,0 km/h (5 Bft) NO 44 1 min 0,000 mm 3,7 UV-I 630 W/m 12,0 C 11,2 C 48,3 km/h (6 Bft) 100,00 %
11.05.2016 12:31 17,9 C 68 % 1004,9 hPa 0,0 l/m 24,4 km/h (4 Bft) O 84 1 min 0,000 mm 3,7 UV-I 612 W/m 11,9 C 12,6 C 32,2 km/h (5 Bft) 100,00 %
11.05.2016 12:32 17,9 C 70 % 1004,9 hPa 0,0 l/m 22,4 km/h (4 Bft) NO 46 1 min 0,000 mm 3,9 UV-I 635 W/m 12,3 C 13,0 C 30,6 km/h (5 Bft) 100,00 %
11.05.2016 12:33 17,9 C 69 % 1004,9 hPa 0,0 l/m 30,0 km/h (5 Bft) O-NO 74 1 min 0,000 mm 4,1 UV-I 629 W/m 12,1 C 11,8 C 40,2 km/h (6 Bft) 100,00 %
11.05.2016 12:34 17,9 C 70 % 1004,9 hPa 0,0 l/m 22,0 km/h (4 Bft) O-NO 58 1 min 0,000 mm 4,1 UV-I 687 W/m 12,3 C 13,1 C 29,0 km/h (5 Bft) 96,30 %
11.05.2016 12:35 17,9 C 70 % 1004,9 hPa 0,0 l/m 23,2 km/h (4 Bft) O 90 1 min 0,000 mm 3,8 UV-I 628 W/m 12,3 C 12,9 C 32,2 km/h (5 Bft) 100,00 %
11.05.2016 12:36 17,9 C 70 % 1004,9 hPa 0,0 l/m 28,4 km/h (4 Bft) NO 55 1 min 0,000 mm 3,4 UV-I 598 W/m 12,3 C 12,0 C 41,8 km/h (6 Bft) 100,00 %
11.05.2016 12:37 17,9 C 69 % 1004,9 hPa 0,0 l/m 29,3 km/h (5 Bft) O 91 1 min 0,000 mm 3,5 UV-I 556 W/m 12,1 C 11,9 C 38,6 km/h (5 Bft) 100,00 %
11.05.2016 12:38 17,9 C 69 % 1004,9 hPa 0,0 l/m 30,3 km/h (5 Bft) O-NO 76 1 min 0,000 mm 3,8 UV-I 613 W/m 12,1 C 11,7 C 37,0 km/h (5 Bft) 100,00 %
11.05.2016 12:39 17,9 C 69 % 1004,8 hPa 0,0 l/m 31,3 km/h (5 Bft) NO 42 1 min 0,000 mm 3,9 UV-I 629 W/m 12,1 C 11,6 C 41,8 km/h (6 Bft) 100,00 %
11.05.2016 12:40 17,8 C 68 % 1004,9 hPa 0,0 l/m 30,4 km/h (5 Bft) O 96 1 min 0,000 mm 3,9 UV-I 654 W/m 11,8 C 11,6 C 40,2 km/h (6 Bft) 100,00 %
11.05.2016 12:41 17,9 C 69 % 1004,9 hPa 0,0 l/m 25,8 km/h (4 Bft) O-NO 78 1 min 0,000 mm 4,0 UV-I 657 W/m 12,1 C 12,4 C 32,2 km/h (5 Bft) 100,00 %
11.05.2016 12:42 17,9 C 70 % 1004,8 hPa 0,0 l/m 28,6 km/h (4 Bft) O 79 1 min 0,000 mm 4,0 UV-I 676 W/m 12,3 C 12,0 C 35,4 km/h (5 Bft) 100,00 %
11.05.2016 12:43 17,9 C 69 % 1004,8 hPa 0,0 l/m 19,6 km/h (3 Bft) O-NO 58 1 min 0,000 mm 4,0 UV-I 661 W/m 12,1 C 13,6 C 25,7 km/h (4 Bft) 100,00 %
11.05.2016 12:44 17,9 C 70 % 1004,8 hPa 0,0 l/m 20,1 km/h (4 Bft) O 87 1 min 0,000 mm 3,9 UV-I 638 W/m 12,3 C 13,5 C 29,0 km/h (5 Bft) 100,00 %
11.05.2016 12:45 17,9 C 69 % 1004,8 hPa 0,0 l/m 29,7 km/h (5 Bft) O-NO 65 1 min 0,000 mm 3,9 UV-I 629 W/m 12,1 C 11,8 C 37,0 km/h (5 Bft) 91,30 %
11.05.2016 12:46 17,9 C 70 % 1004,9 hPa 0,0 l/m 25,9 km/h (4 Bft) NO 55 1 min 0,000 mm 3,9 UV-I 631 W/m 12,3 C 12,4 C 35,4 km/h (5 Bft) 100,00 %
11.05.2016 12:47 18,0 C 69 % 1004,9 hPa 0,0 l/m 24,4 km/h (4 Bft) O-NO 63 1 min 0,000 mm 3,9 UV-I 631 W/m 12,2 C 12,8 C 37,0 km/h (5 Bft) 96,88 %
11.05.2016 12:48 18,0 C 70 % 1004,8 hPa 0,0 l/m 29,4 km/h (5 Bft) NO 45 1 min 0,000 mm 3,9 UV-I 628 W/m 12,4 C 12,0 C 40,2 km/h (6 Bft) 100,00 %
11.05.2016 12:49 18,1 C 69 % 1004,8 hPa 0,0 l/m 32,3 km/h (5 Bft) NO 51 1 min 0,000 mm 3,6 UV-I 615 W/m 12,3 C 11,7 C 38,6 km/h (5 Bft) 100,00 %
11.05.2016 12:50 18,1 C 67 % 1004,8 hPa 0,0 l/m 33,1 km/h (5 Bft) NO 55 1 min 0,000 mm 3,8 UV-I 607 W/m 11,9 C 11,6 C 46,7 km/h (6 Bft) 100,00 %
11.05.2016 12:51 18,0 C 67 % 1004,8 hPa 0,0 l/m 29,1 km/h (5 Bft) O-NO 59 1 min 0,000 mm 4,0 UV-I 660 W/m 11,8 C 12,0 C 37,0 km/h (5 Bft) 100,00 %
11.05.2016 12:52 18,1 C 69 % 1004,9 hPa 0,0 l/m 24,0 km/h (4 Bft) O 96 1 min 0,000 mm 4,3 UV-I 713 W/m 12,3 C 13,0 C 29,0 km/h (5 Bft) 97,14 %
11.05.2016 12:53 18,1 C 69 % 1004,9 hPa 0,0 l/m 23,7 km/h (4 Bft) O-NO 78 1 min 0,000 mm 4,3 UV-I 742 W/m 12,3 C 13,0 C 33,8 km/h (5 Bft) 100,00 %
11.05.2016 12:54 18,2 C 70 % 1004,9 hPa 0,0 l/m 24,2 km/h (4 Bft) O-NO 57 1 min 0,000 mm 4,2 UV-I 679 W/m 12,6 C 13,1 C 32,2 km/h (5 Bft) 92,86 %
11.05.2016 12:55 18,2 C 69 % 1004,8 hPa 0,0 l/m 28,4 km/h (4 Bft) O-NO 67 1 min 0,000 mm 4,7 UV-I 742 W/m 12,4 C 12,4 C 41,8 km/h (6 Bft) 100,00 %
11.05.2016 12:56 18,3 C 67 % 1004,8 hPa 0,0 l/m 32,1 km/h (5 Bft) NO 42 1 min 0,000 mm 4,6 UV-I 794 W/m 12,1 C 12,1 C 40,2 km/h (6 Bft) 100,00 %
11.05.2016 12:57 18,2 C 68 % 1004,8 hPa 0,0 l/m 28,0 km/h (4 Bft) NO 43 1 min 0,000 mm 4,4 UV-I 728 W/m 12,2 C 12,5 C 33,8 km/h (5 Bft) 100,00 %
11.05.2016 12:58 18,3 C 69 % 1004,7 hPa 0,0 l/m 24,8 km/h (4 Bft) O 83 1 min 0,000 mm 4,2 UV-I 662 W/m 12,5 C 13,1 C 33,8 km/h (5 Bft) 100,00 %
11.05.2016 12:59 18,3 C 69 % 1004,7 hPa 0,0 l/m 30,3 km/h (5 Bft) O-NO 69 1 min 0,000 mm 4,3 UV-I 713 W/m 12,5 C 12,3 C 41,8 km/h (6 Bft) 100,00 %
11.05.2016 13:00 18,3 C 68 % 1004,7 hPa 0,0 l/m 31,1 km/h (5 Bft) O-NO 73 1 min 0,000 mm 3,9 UV-I 622 W/m 12,3 C 12,2 C 38,6 km/h (5 Bft) 100,00 %
11.05.2016 13:01 18,3 C 68 % 1004,7 hPa 0,0 l/m 28,0 km/h (4 Bft) O-NO 68 1 min 0,457 mm 3,9 UV-I 606 W/m 12,3 C 12,6 C 40,2 km/h (6 Bft) 100,00 %
11.05.2016 13:02 18,3 C 68 % 1004,7 hPa 0,0 l/m 29,5 km/h (5 Bft) O 80 1 min 0,000 mm 4,0 UV-I 639 W/m 12,3 C 12,4 C 40,2 km/h (6 Bft) 100,00 %
11.05.2016 13:03 18,3 C 68 % 1004,7 hPa 0,0 l/m 30,1 km/h (5 Bft) O 96 1 min 0,000 mm 4,1 UV-I 685 W/m 12,3 C 12,3 C 38,6 km/h (5 Bft) 100,00 %
11.05.2016 13:04 18,3 C 68 % 1004,6 hPa 0,0 l/m 33,3 km/h (5 Bft) NO 53 1 min 0,000 mm 3,8 UV-I 691 W/m 12,3 C 11,9 C 41,8 km/h (6 Bft) 100,00 %
11.05.2016 13:05 18,3 C 68 % 1004,7 hPa 0,0 l/m 30,0 km/h (5 Bft) O-NO 65 1 min 0,000 mm 3,6 UV-I 543 W/m 12,3 C 12,3 C 35,4 km/h (5 Bft) 100,00 %
11.05.2016 13:06 18,3 C 69 % 1004,7 hPa 0,0 l/m 22,2 km/h (4 Bft) O-NO 76 1 min 0,000 mm 3,7 UV-I 533 W/m 12,5 C 13,6 C 33,8 km/h (5 Bft) 100,00 %
11.05.2016 13:07 18,3 C 68 % 1004,6 hPa 0,0 l/m 25,5 km/h (4 Bft) NO 36 1 min 0,000 mm 3,8 UV-I 565 W/m 12,3 C 13,0 C 33,8 km/h (5 Bft) 100,00 %
11.05.2016 13:08 18,3 C 68 % 1004,6 hPa 0,0 l/m 28,7 km/h (4 Bft) O-NO 62 1 min 0,000 mm 3,8 UV-I 572 W/m 12,3 C 12,5 C 35,4 km/h (5 Bft) 100,00 %
11.05.2016 13:09 18,3 C 68 % 1004,6 hPa 0,0 l/m 24,3 km/h (4 Bft) O-NO 68 1 min 0,000 mm 4,0 UV-I 622 W/m 12,3 C 13,2 C 32,2 km/h (5 Bft) 100,00 %
11.05.2016 13:10 18,3 C 68 % 1004,7 hPa 0,0 l/m 30,4 km/h (5 Bft) NO 45 1 min 0,000 mm 4,1 UV-I 655 W/m 12,3 C 12,3 C 40,2 km/h (6 Bft) 100,00 %
11.05.2016 13:11 18,3 C 68 % 1004,7 hPa 0,0 l/m 29,9 km/h (5 Bft) O 90 1 min 0,000 mm 3,9 UV-I 601 W/m 12,3 C 12,3 C 37,0 km/h (5 Bft) 100,00 %
11.05.2016 13:12 18,3 C 68 % 1004,6 hPa 0,0 l/m 23,7 km/h (4 Bft) NO 36 1 min 0,000 mm 3,9 UV-I 565 W/m 12,3 C 13,3 C 29,0 km/h (5 Bft) 100,00 %
11.05.2016 13:13 18,3 C 68 % 1004,6 hPa 0,0 l/m 27,8 km/h (4 Bft) O-NO 70 1 min 0,000 mm 4,3 UV-I 582 W/m 12,3 C 12,6 C 40,2 km/h (6 Bft) 96,88 %
11.05.2016 13:14 18,4 C 69 % 1004,6 hPa 0,0 l/m 25,2 km/h (4 Bft) O-NO 63 1 min 0,000 mm 4,8 UV-I 582 W/m 12,6 C 13,2 C 33,8 km/h (5 Bft) 100,00 %
11.05.2016 13:15 18,4 C 69 % 1004,6 hPa 0,0 l/m 24,5 km/h (4 Bft) NO 48 1 min 0,000 mm 5,1 UV-I 866 W/m 12,6 C 13,3 C 32,2 km/h (5 Bft) 100,00 %
11.05.2016 13:16 18,6 C 69 % 1004,6 hPa 0,0 l/m 23,8 km/h (4 Bft) NO 34 1 min 0,000 mm 5,1 UV-I 894 W/m 12,8 C 13,7 C 32,2 km/h (5 Bft) 100,00 %
11.05.2016 13:17 18,6 C 68 % 1004,5 hPa 0,0 l/m 27,9 km/h (4 Bft) O-NO 66 1 min 0,000 mm 5,0 UV-I 862 W/m 12,6 C 13,0 C 35,4 km/h (5 Bft) 100,00 %
11.05.2016 13:18 18,7 C 69 % 1004,5 hPa 0,0 l/m 30,3 km/h (5 Bft) NO 55 1 min 0,000 mm 5,0 UV-I 842 W/m 12,9 C 12,9 C 38,6 km/h (5 Bft) 96,67 %
11.05.2016 13:19 18,7 C 67 % 1004,5 hPa 0,0 l/m 32,9 km/h (5 Bft) O-NO 73 1 min 0,000 mm 5,0 UV-I 863 W/m 12,4 C 12,5 C 40,2 km/h (6 Bft) 100,00 %
11.05.2016 13:20 18,7 C 67 % 1004,6 hPa 0,0 l/m 30,6 km/h (5 Bft) O-NO 73 1 min 0,000 mm 5,1 UV-I 888 W/m 12,4 C 12,8 C 40,2 km/h (6 Bft) 100,00 %
11.05.2016 13:21 18,8 C 68 % 1004,6 hPa 0,0 l/m 26,6 km/h (4 Bft) NO 55 1 min 0,000 mm 5,2 UV-I 888 W/m 12,8 C 13,5 C 37,0 km/h (5 Bft) 100,00 %
11.05.2016 13:22 18,8 C 67 % 1004,6 hPa 0,0 l/m 30,6 km/h (5 Bft) O 82 1 min 0,000 mm 5,1 UV-I 883 W/m 12,5 C 13,0 C 46,7 km/h (6 Bft) 100,00 %
11.05.2016 13:23 18,8 C 67 % 1004,5 hPa 0,0 l/m 33,3 km/h (5 Bft) NO 54 1 min 0,000 mm 4,9 UV-I 835 W/m 12,5 C 12,6 C 45,1 km/h (6 Bft) 100,00 %
11.05.2016 13:24 18,8 C 66 % 1004,6 hPa 0,0 l/m 33,3 km/h (5 Bft) O-NO 68 1 min 0,000 mm 4,6 UV-I 756 W/m 12,3 C 12,6 C 46,7 km/h (6 Bft) 100,00 %
11.05.2016 13:25 18,8 C 66 % 1004,5 hPa 0,0 l/m 29,1 km/h (5 Bft) O-SO 104 1 min 0,000 mm 4,6 UV-I 749 W/m 12,3 C 13,2 C 45,1 km/h (6 Bft) 98,61 %
11.05.2016 13:26 18,8 C 67 % 1004,5 hPa 0,0 l/m 29,0 km/h (5 Bft) O-NO 67 1 min 0,000 mm 4,7 UV-I 751 W/m 12,5 C 13,2 C 37,0 km/h (5 Bft) 100,00 %
11.05.2016 13:27 18,8 C 67 % 1004,5 hPa 0,0 l/m 27,0 km/h (4 Bft) O-NO 61 1 min 0,000 mm 4,6 UV-I 739 W/m 12,5 C 13,4 C 33,8 km/h (5 Bft) 100,00 %
11.05.2016 13:28 18,8 C 68 % 1004,4 hPa 0,0 l/m 23,8 km/h (4 Bft) O-NO 59 1 min 0,000 mm 4,9 UV-I 794 W/m 12,8 C 14,0 C 30,6 km/h (5 Bft) 100,00 %
11.05.2016 13:29 18,8 C 68 % 1004,4 hPa 0,0 l/m 21,2 km/h (4 Bft) NO 49 1 min 0,000 mm 5,0 UV-I 855 W/m 12,8 C 14,4 C 25,7 km/h (4 Bft) 100,00 %
11.05.2016 13:30 18,9 C 71 % 1004,4 hPa 0,0 l/m 37,4 km/h (5 Bft) NO 43 1 min 0,000 mm 5,2 UV-I 898 W/m 13,5 C 12,3 C 45,1 km/h (6 Bft) 100,00 %
11.05.2016 13:32 19,1 C 66 % 1004,5 hPa 0,0 l/m 32,9 km/h (5 Bft) NO 38 2 min 0,000 mm 5,1 UV-I 904 W/m 12,6 C 13,1 C 43,5 km/h (6 Bft) 100,00 %
11.05.2016 13:33 19,0 C 66 % 1004,5 hPa 0,0 l/m 39,1 km/h (6 Bft) NO 56 1 min 0,000 mm 5,0 UV-I 914 W/m 12,5 C 12,3 C 49,9 km/h (6 Bft) 100,00 %
11.05.2016 13:34 18,9 C 65 % 1004,4 hPa 0,0 l/m 33,9 km/h (5 Bft) O-NO 71 1 min 0,000 mm 5,0 UV-I 906 W/m 12,2 C 12,7 C 45,1 km/h (6 Bft) 100,00 %
11.05.2016 13:35 18,9 C 66 % 1004,5 hPa 0,0 l/m 38,6 km/h (5 Bft) NO 52 1 min 0,000 mm 4,9 UV-I 850 W/m 12,4 C 12,2 C 46,7 km/h (6 Bft) 100,00 %
11.05.2016 13:36 18,8 C 65 % 1004,4 hPa 0,0 l/m 35,2 km/h (5 Bft) O-NO 73 1 min 0,000 mm 5,0 UV-I 839 W/m 12,1 C 12,4 C 45,1 km/h (6 Bft) 96,15 %
11.05.2016 13:37 18,8 C 66 % 1004,4 hPa 0,0 l/m 29,9 km/h (5 Bft) NO 53 1 min 0,000 mm 5,0 UV-I 834 W/m 12,3 C 13,0 C 40,2 km/h (6 Bft) 95,83 %
11.05.2016 13:38 18,8 C 66 % 1004,3 hPa 0,0 l/m 34,1 km/h (5 Bft) NO 49 1 min 0,000 mm 4,9 UV-I 832 W/m 12,3 C 12,5 C 38,6 km/h (5 Bft) 100,00 %
11.05.2016 13:39 18,8 C 66 % 1004,3 hPa 0,0 l/m 23,7 km/h (4 Bft) NO 39 1 min 0,000 mm 5,0 UV-I 823 W/m 12,3 C 14,0 C 33,8 km/h (5 Bft) 96,30 %
11.05.2016 13:40 18,8 C 66 % 1004,3 hPa 0,0 l/m 33,5 km/h (5 Bft) NO 51 1 min 0,000 mm 5,1 UV-I 879 W/m 12,3 C 12,6 C 46,7 km/h (6 Bft) 100,00 %
11.05.2016 13:41 18,8 C 67 % 1004,3 hPa 0,0 l/m 27,8 km/h (4 Bft) NO 42 1 min 0,000 mm 5,1 UV-I 868 W/m 12,5 C 13,3 C 35,4 km/h (5 Bft) 96,67 %
11.05.2016 13:42 18,9 C 67 % 1004,3 hPa 0,0 l/m 28,5 km/h (4 Bft) O-NO 57 1 min 0,000 mm 5,1 UV-I 886 W/m 12,6 C 13,4 C 38,6 km/h (5 Bft) 98,62 %
11.05.2016 13:43 18,9 C 68 % 1004,4 hPa 0,0 l/m 26,7 km/h (4 Bft) NO 49 1 min 0,000 mm 5,2 UV-I 876 W/m 12,9 C 13,6 C 41,8 km/h (6 Bft) 97,73 %
11.05.2016 13:44 19,0 C 67 % 1004,4 hPa 0,0 l/m 33,6 km/h (5 Bft) NO 51 1 min 0,000 mm 5,1 UV-I 872 W/m 12,7 C 12,9 C 45,1 km/h (6 Bft) 96,15 %
11.05.2016 13:45 19,1 C 66 % 1004,4 hPa 0,0 l/m 33,8 km/h (5 Bft) NO 56 1 min 0,000 mm 5,2 UV-I 905 W/m 12,6 C 13,0 C 43,5 km/h (6 Bft) 100,00 %
11.05.2016 13:46 19,1 C 65 % 1004,4 hPa 0,0 l/m 29,5 km/h (5 Bft) NO 53 1 min 0,000 mm 5,3 UV-I 917 W/m 12,4 C 13,5 C 43,5 km/h (6 Bft) 93,10 %
11.05.2016 13:47 19,1 C 67 % 1004,4 hPa 0,0 l/m 25,5 km/h (4 Bft) O-NO 66 1 min 0,000 mm 5,3 UV-I 920 W/m 12,8 C 14,1 C 33,8 km/h (5 Bft) 100,00 %
11.05.2016 13:48 19,1 C 66 % 1004,3 hPa 0,0 l/m 24,5 km/h (4 Bft) O-NO 64 1 min 0,000 mm 5,2 UV-I 908 W/m 12,6 C 14,2 C 33,8 km/h (5 Bft) 95,83 %
11.05.2016 13:49 19,2 C 66 % 1004,3 hPa 0,0 l/m 29,2 km/h (5 Bft) NO 38 1 min 0,000 mm 5,2 UV-I 901 W/m 12,7 C 13,7 C 48,3 km/h (6 Bft) 100,00 %
11.05.2016 13:50 19,2 C 64 % 1004,3 hPa 0,0 l/m 33,5 km/h (5 Bft) O-NO 63 1 min 0,000 mm 5,1 UV-I 898 W/m 12,2 C 13,2 C 45,1 km/h (6 Bft) 95,83 %
11.05.2016 13:51 19,2 C 65 % 1004,3 hPa 0,0 l/m 30,1 km/h (5 Bft) NO 38 1 min 0,000 mm 5,0 UV-I 858 W/m 12,5 C 13,6 C 43,5 km/h (6 Bft) 96,55 %
11.05.2016 13:52 19,2 C 65 % 1004,3 hPa 0,0 l/m 32,8 km/h (5 Bft) NO 54 1 min 0,000 mm 4,8 UV-I 827 W/m 12,5 C 13,3 C 43,5 km/h (6 Bft) 100,00 %
11.05.2016 13:53 19,2 C 66 % 1004,2 hPa 0,0 l/m 31,5 km/h (5 Bft) O 89 1 min 0,000 mm 4,9 UV-I 818 W/m 12,7 C 13,4 C 45,1 km/h (6 Bft) 96,30 %
11.05.2016 13:54 19,2 C 65 % 1004,2 hPa 0,0 l/m 26,4 km/h (4 Bft) NO 46 1 min 0,000 mm 4,9 UV-I 820 W/m 12,5 C 14,1 C 37,0 km/h (5 Bft) 100,00 %
11.05.2016 13:55 19,2 C 66 % 1004,2 hPa 0,0 l/m 31,0 km/h (5 Bft) O-NO 71 1 min 0,000 mm 4,7 UV-I 778 W/m 12,7 C 13,5 C 38,6 km/h (5 Bft) 94,12 %
11.05.2016 13:56 19,2 C 65 % 1004,2 hPa 0,0 l/m 36,9 km/h (5 Bft) O-NO 73 1 min 0,000 mm 4,7 UV-I 800 W/m 12,5 C 12,8 C 46,7 km/h (6 Bft) 100,00 %
11.05.2016 13:57 19,2 C 65 % 1004,2 hPa 0,0 l/m 39,8 km/h (6 Bft) O-NO 69 1 min 0,000 mm 4,9 UV-I 837 W/m 12,5 C 12,6 C 45,1 km/h (6 Bft) 95,65 %
11.05.2016 13:58 19,1 C 64 % 1004,2 hPa 0,0 l/m 33,1 km/h (5 Bft) O-NO 63 1 min 0,000 mm 4,8 UV-I 820 W/m 12,1 C 13,1 C 41,8 km/h (6 Bft) 100,00 %
11.05.2016 13:59 19,1 C 65 % 1004,2 hPa 0,0 l/m 31,4 km/h (5 Bft) O-NO 69 1 min 0,000 mm 4,7 UV-I 799 W/m 12,4 C 13,3 C 41,8 km/h (6 Bft) 93,10 %
11.05.2016 14:00 19,0 C 65 % 1004,2 hPa 0,0 l/m 34,9 km/h (5 Bft) O-NO 66 1 min 0,000 mm 4,6 UV-I 752 W/m 12,3 C 12,7 C 45,1 km/h (6 Bft) 96,30 %
11.05.2016 14:01 19,0 C 65 % 1004,1 hPa 0,0 l/m 32,0 km/h (5 Bft) NO 53 1 min 0,584 mm 4,6 UV-I 787 W/m 12,3 C 13,1 C 38,6 km/h (5 Bft) 96,15 %
11.05.2016 14:02 19,0 C 66 % 1004,1 hPa 0,0 l/m 29,0 km/h (5 Bft) O-SO 103 1 min 0,000 mm 4,7 UV-I 809 W/m 12,5 C 13,4 C 38,6 km/h (5 Bft) 95,83 %
11.05.2016 14:03 19,1 C 66 % 1004,1 hPa 0,0 l/m 25,7 km/h (4 Bft) O-NO 66 1 min 0,000 mm 4,8 UV-I 821 W/m 12,6 C 14,1 C 38,6 km/h (5 Bft) 100,00 %
11.05.2016 14:04 19,1 C 65 % 1004,1 hPa 0,0 l/m 34,2 km/h (5 Bft) O-NO 63 1 min 0,000 mm 4,6 UV-I 790 W/m 12,4 C 13,0 C 45,1 km/h (6 Bft) 91,67 %
11.05.2016 14:05 19,1 C 65 % 1004,1 hPa 0,0 l/m 27,4 km/h (4 Bft) NO 55 1 min 0,000 mm 4,6 UV-I 774 W/m 12,4 C 13,8 C 33,8 km/h (5 Bft) 100,00 %
11.05.2016 14:06 19,1 C 65 % 1004,0 hPa 0,0 l/m 25,5 km/h (4 Bft) NO 56 1 min 0,000 mm 4,5 UV-I 753 W/m 12,4 C 14,1 C 43,5 km/h (6 Bft) 100,00 %
11.05.2016 14:07 19,1 C 67 % 1004,0 hPa 0,0 l/m 30,3 km/h (5 Bft) O-NO 75 1 min 0,000 mm 4,2 UV-I 747 W/m 12,8 C 13,4 C 40,2 km/h (6 Bft) 100,00 %
11.05.2016 14:08 19,1 C 65 % 1004,1 hPa 0,0 l/m 32,7 km/h (5 Bft) O-NO 65 1 min 0,000 mm 4,2 UV-I 694 W/m 12,4 C 13,1 C 40,2 km/h (6 Bft) 100,00 %
11.05.2016 14:09 19,1 C 64 % 1004,1 hPa 0,0 l/m 29,8 km/h (5 Bft) O 82 1 min 0,000 mm 4,6 UV-I 692 W/m 12,1 C 13,5 C 41,8 km/h (6 Bft) 96,30 %
11.05.2016 14:10 19,1 C 65 % 1004,1 hPa 0,0 l/m 25,9 km/h (4 Bft) NO 47 1 min 0,000 mm 4,9 UV-I 861 W/m 12,4 C 14,0 C 38,6 km/h (5 Bft) 90,91 %
11.05.2016 14:11 19,2 C 66 % 1004,1 hPa 0,0 l/m 22,1 km/h (4 Bft) O-NO 62 1 min 0,000 mm 4,9 UV-I 878 W/m 12,7 C 14,8 C 37,0 km/h (5 Bft) 100,00 %
11.05.2016 14:12 19,3 C 65 % 1004,0 hPa 0,0 l/m 31,5 km/h (5 Bft) O 84 1 min 0,000 mm 4,9 UV-I 880 W/m 12,6 C 13,6 C 45,1 km/h (6 Bft) 96,88 %
11.05.2016 14:13 19,3 C 65 % 1004,0 hPa 0,0 l/m 26,2 km/h (4 Bft) O-NO 57 1 min 0,000 mm 5,0 UV-I 890 W/m 12,6 C 14,3 C 33,8 km/h (5 Bft) 100,00 %
11.05.2016 14:14 19,3 C 65 % 1004,0 hPa 0,0 l/m 29,1 km/h (5 Bft) O 79 1 min 0,000 mm 4,9 UV-I 885 W/m 12,6 C 13,9 C 43,5 km/h (6 Bft) 100,00 %
11.05.2016 14:15 19,3 C 64 % 1004,0 hPa 0,0 l/m 32,0 km/h (5 Bft) O-NO 58 1 min 0,000 mm 4,9 UV-I 870 W/m 12,3 C 13,5 C 43,5 km/h (6 Bft) 100,00 %
11.05.2016 14:16 19,3 C 64 % 1003,9 hPa 0,0 l/m 28,9 km/h (5 Bft) O-NO 72 1 min 0,000 mm 4,8 UV-I 875 W/m 12,3 C 13,9 C 37,0 km/h (5 Bft) 96,55 %
11.05.2016 14:17 19,4 C 66 % 1003,9 hPa 0,0 l/m 23,4 km/h (4 Bft) O-NO 63 1 min 0,000 mm 4,2 UV-I 772 W/m 12,9 C 14,8 C 38,6 km/h (5 Bft) 95,83 %
11.05.2016 14:18 19,4 C 67 % 1003,9 hPa 0,0 l/m 34,7 km/h (5 Bft) NO 51 1 min 0,000 mm 4,4 UV-I 629 W/m 13,1 C 13,3 C 49,9 km/h (6 Bft) 100,00 %
11.05.2016 14:19 19,4 C 65 % 1003,8 hPa 0,0 l/m 29,7 km/h (5 Bft) O-NO 65 1 min 0,000 mm 4,8 UV-I 785 W/m 12,6 C 13,9 C 40,2 km/h (6 Bft) 96,97 %
11.05.2016 14:20 19,5 C 64 % 1003,9 hPa 0,0 l/m 33,8 km/h (5 Bft) O-NO 67 1 min 0,000 mm 4,8 UV-I 864 W/m 12,5 C 13,6 C 41,8 km/h (6 Bft) 100,00 %
11.05.2016 14:21 19,5 C 64 % 1003,8 hPa 0,0 l/m 26,6 km/h (4 Bft) O-NO 76 1 min 0,000 mm 4,7 UV-I 813 W/m 12,5 C 14,5 C 32,2 km/h (5 Bft) 100,00 %
11.05.2016 14:22 19,6 C 64 % 1003,8 hPa 0,0 l/m 33,5 km/h (5 Bft) O-NO 69 1 min 0,000 mm 4,7 UV-I 765 W/m 12,6 C 13,8 C 48,3 km/h (6 Bft) 100,00 %
11.05.2016 14:23 19,6 C 64 % 1003,8 hPa 0,0 l/m 35,7 km/h (5 Bft) O-NO 75 1 min 0,000 mm 4,9 UV-I 829 W/m 12,6 C 13,5 C 43,5 km/h (6 Bft) 100,00 %
11.05.2016 14:24 19,6 C 65 % 1003,8 hPa 0,0 l/m 30,3 km/h (5 Bft) O-NO 60 1 min 0,000 mm 4,9 UV-I 882 W/m 12,8 C 14,1 C 40,2 km/h (6 Bft) 100,00 %
11.05.2016 14:25 19,6 C 62 % 1003,8 hPa 0,0 l/m 33,1 km/h (5 Bft) O-NO 62 1 min 0,000 mm 4,9 UV-I 884 W/m 12,1 C 13,8 C 41,8 km/h (6 Bft) 100,00 %
11.05.2016 14:26 19,5 C 63 % 1003,8 hPa 0,0 l/m 30,0 km/h (5 Bft) NO 39 1 min 0,000 mm 4,9 UV-I 892 W/m 12,3 C 14,0 C 41,8 km/h (6 Bft) 100,00 %
11.05.2016 14:27 19,5 C 65 % 1003,9 hPa 0,0 l/m 25,8 km/h (4 Bft) O-NO 71 1 min 0,000 mm 4,9 UV-I 885 W/m 12,7 C 14,6 C 35,4 km/h (5 Bft) 100,00 %
11.05.2016 14:28 19,6 C 64 % 1003,8 hPa 0,0 l/m 25,3 km/h (4 Bft) NO 55 1 min 0,000 mm 4,8 UV-I 848 W/m 12,6 C 14,8 C 32,2 km/h (5 Bft) 100,00 %
11.05.2016 14:29 19,6 C 64 % 1003,8 hPa 0,0 l/m 30,2 km/h (5 Bft) NO 53 1 min 0,000 mm 4,7 UV-I 846 W/m 12,6 C 14,1 C 41,8 km/h (6 Bft) 100,00 %
11.05.2016 14:30 19,7 C 65 % 1003,8 hPa 0,0 l/m 24,4 km/h (4 Bft) O-NO 73 1 min 0,000 mm 4,3 UV-I 757 W/m 12,9 C 15,1 C 30,6 km/h (5 Bft) 100,00 %
11.05.2016 14:31 19,7 C 64 % 1003,8 hPa 0,0 l/m 33,4 km/h (5 Bft) NO 55 1 min 0,000 mm 4,2 UV-I 735 W/m 12,7 C 13,9 C 45,1 km/h (6 Bft) 100,00 %
11.05.2016 14:32 19,6 C 63 % 1003,7 hPa 0,0 l/m 31,9 km/h (5 Bft) NO 50 1 min 0,000 mm 4,5 UV-I 814 W/m 12,4 C 13,9 C 38,6 km/h (5 Bft) 100,00 %
11.05.2016 14:33 19,6 C 62 % 1003,8 hPa 0,0 l/m 29,0 km/h (5 Bft) O-NO 58 1 min 0,000 mm 4,7 UV-I 846 W/m 12,1 C 14,3 C 40,2 km/h (6 Bft) 100,00 %
11.05.2016 14:34 19,6 C 64 % 1003,7 hPa 0,0 l/m 26,6 km/h (4 Bft) O-NO 59 1 min 0,000 mm 4,8 UV-I 877 W/m 12,6 C 14,6 C 32,2 km/h (5 Bft) 100,00 %
11.05.2016 14:35 19,6 C 65 % 1003,7 hPa 0,0 l/m 22,9 km/h (4 Bft) O-NO 76 1 min 0,000 mm 4,8 UV-I 874 W/m 12,8 C 15,2 C 30,6 km/h (5 Bft) 100,00 %
11.05.2016 14:36 19,7 C 65 % 1003,8 hPa 0,0 l/m 22,0 km/h (4 Bft) NO 46 1 min 0,000 mm 4,6 UV-I 847 W/m 12,9 C 15,5 C 27,4 km/h (4 Bft) 100,00 %
11.05.2016 14:37 19,8 C 64 % 1003,7 hPa 0,0 l/m 23,9 km/h (4 Bft) O-NO 77 1 min 0,000 mm 4,5 UV-I 824 W/m 12,8 C 15,3 C 35,4 km/h (5 Bft) 100,00 %
11.05.2016 14:38 19,8 C 63 % 1003,7 hPa 0,0 l/m 23,7 km/h (4 Bft) NO 53 1 min 0,000 mm 4,6 UV-I 845 W/m 12,5 C 15,3 C 35,4 km/h (5 Bft) 100,00 %
11.05.2016 14:39 19,8 C 64 % 1003,6 hPa 0,0 l/m 20,0 km/h (4 Bft) O-NO 67 1 min 0,000 mm 4,5 UV-I 824 W/m 12,8 C 15,9 C 29,0 km/h (5 Bft) 92,86 %
11.05.2016 14:40 19,9 C 64 % 1003,7 hPa 0,0 l/m 25,0 km/h (4 Bft) O-NO 77 1 min 0,000 mm 4,5 UV-I 804 W/m 12,9 C 15,2 C 32,2 km/h (5 Bft) 100,00 %
11.05.2016 14:41 19,9 C 63 % 1003,8 hPa 0,0 l/m 29,8 km/h (5 Bft) NO 46 1 min 0,000 mm 4,3 UV-I 790 W/m 12,6 C 14,6 C 45,1 km/h (6 Bft) 96,55 %
11.05.2016 14:42 19,9 C 64 % 1003,7 hPa 0,0 l/m 27,3 km/h (4 Bft) NO 42 1 min 0,000 mm 4,3 UV-I 777 W/m 12,9 C 14,9 C 40,2 km/h (6 Bft) 100,00 %
11.05.2016 14:43 19,9 C 64 % 1003,6 hPa 0,0 l/m 28,3 km/h (4 Bft) NO 44 1 min 0,000 mm 4,4 UV-I 807 W/m 12,9 C 14,8 C 33,8 km/h (5 Bft) 100,00 %
11.05.2016 14:44 19,9 C 64 % 1003,7 hPa 0,0 l/m 21,2 km/h (4 Bft) NO 44 1 min 0,000 mm 4,5 UV-I 826 W/m 12,9 C 15,9 C 30,6 km/h (5 Bft) 96,88 %
11.05.2016 14:45 20,0 C 65 % 1003,6 hPa 0,0 l/m 29,5 km/h (5 Bft) NO 46 1 min 0,000 mm 4,4 UV-I 790 W/m 13,2 C 14,8 C 37,0 km/h (5 Bft) 100,00 %
11.05.2016 14:46 20,0 C 62 % 1003,6 hPa 0,0 l/m 31,6 km/h (5 Bft) O-NO 57 1 min 0,000 mm 4,3 UV-I 768 W/m 12,5 C 14,5 C 43,5 km/h (6 Bft) 95,65 %
11.05.2016 14:47 20,0 C 62 % 1003,6 hPa 0,0 l/m 33,7 km/h (5 Bft) O-NO 63 1 min 0,000 mm 4,3 UV-I 761 W/m 12,5 C 14,3 C 41,8 km/h (6 Bft) 100,00 %
11.05.2016 14:48 20,0 C 63 % 1003,6 hPa 0,0 l/m 21,9 km/h (4 Bft) O-NO 57 1 min 0,000 mm 4,3 UV-I 779 W/m 12,7 C 15,9 C 32,2 km/h (5 Bft) 100,00 %
11.05.2016 14:49 20,1 C 64 % 1003,7 hPa 0,0 l/m 20,7 km/h (4 Bft) O-NO 74 1 min 0,000 mm 4,3 UV-I 799 W/m 13,1 C 16,2 C 27,4 km/h (4 Bft) 100,00 %
11.05.2016 14:50 20,1 C 65 % 1003,7 hPa 0,0 l/m 18,6 km/h (3 Bft) O-NO 78 1 min 0,000 mm 4,2 UV-I 780 W/m 13,3 C 16,6 C 25,7 km/h (4 Bft) 100,00 %
11.05.2016 14:51 20,2 C 62 % 1003,5 hPa 0,0 l/m 34,8 km/h (5 Bft) O-NO 58 1 min 0,000 mm 4,1 UV-I 751 W/m 12,7 C 14,5 C 43,5 km/h (6 Bft) 100,00 %
11.05.2016 14:52 20,1 C 62 % 1003,6 hPa 0,0 l/m 23,0 km/h (4 Bft) NO 34 1 min 0,000 mm 3,9 UV-I 662 W/m 12,6 C 15,8 C 30,6 km/h (5 Bft) 100,00 %
11.05.2016 14:53 20,1 C 62 % 1003,5 hPa 0,0 l/m 27,4 km/h (4 Bft) O 80 1 min 0,000 mm 3,8 UV-I 663 W/m 12,6 C 15,2 C 45,1 km/h (6 Bft) 100,00 %
11.05.2016 14:54 20,1 C 63 % 1003,6 hPa 0,0 l/m 34,1 km/h (5 Bft) O-NO 61 1 min 0,000 mm 3,8 UV-I 659 W/m 12,8 C 14,4 C 49,9 km/h (6 Bft) 100,00 %
11.05.2016 14:55 19,9 C 62 % 1003,6 hPa 0,0 l/m 31,7 km/h (5 Bft) NO 36 1 min 0,000 mm 3,6 UV-I 590 W/m 12,4 C 14,4 C 46,7 km/h (6 Bft) 100,00 %
11.05.2016 14:56 19,9 C 62 % 1003,6 hPa 0,0 l/m 35,2 km/h (5 Bft) O-NO 63 1 min 0,000 mm 3,6 UV-I 612 W/m 12,4 C 14,0 C 48,3 km/h (6 Bft) 100,00 %
11.05.2016 14:57 19,8 C 62 % 1003,7 hPa 0,0 l/m 33,0 km/h (5 Bft) O 80 1 min 0,000 mm 3,5 UV-I 554 W/m 12,3 C 14,1 C 38,6 km/h (5 Bft) 100,00 %
11.05.2016 14:58 19,8 C 62 % 1003,5 hPa 0,0 l/m 31,3 km/h (5 Bft) O-NO 74 1 min 0,000 mm 3,2 UV-I 592 W/m 12,3 C 14,3 C 40,2 km/h (6 Bft) 100,00 %
11.05.2016 14:59 19,7 C 63 % 1003,6 hPa 0,0 l/m 28,6 km/h (4 Bft) N-NO 31 1 min 0,000 mm 3,8 UV-I 686 W/m 12,5 C 14,5 C 45,1 km/h (6 Bft) 100,00 %
11.05.2016 15:00 19,7 C 63 % 1003,6 hPa 0,0 l/m 27,9 km/h (4 Bft) NO 55 1 min 0,000 mm 4,0 UV-I 776 W/m 12,5 C 14,6 C 37,0 km/h (5 Bft) 96,15 %
11.05.2016 15:01 19,7 C 64 % 1003,5 hPa 0,0 l/m 25,8 km/h (4 Bft) O-NO 57 1 min 0,584 mm 4,1 UV-I 777 W/m 12,7 C 14,9 C 33,8 km/h (5 Bft) 100,00 %
11.05.2016 15:02 19,7 C 64 % 1003,5 hPa 0,0 l/m 30,2 km/h (5 Bft) N 355 1 min 0,001 mm 4,0 UV-I 773 W/m 12,7 C 14,3 C 41,8 km/h (6 Bft) 100,00 %
11.05.2016 15:03 19,7 C 65 % 1003,5 hPa 0,0 l/m 29,5 km/h (5 Bft) N-NO 28 1 min 0,000 mm 4,0 UV-I 774 W/m 12,9 C 14,4 C 41,8 km/h (6 Bft) 100,00 %
11.05.2016 15:04 19,7 C 65 % 1003,4 hPa 0,0 l/m 29,0 km/h (5 Bft) NO 38 1 min 0,000 mm 4,0 UV-I 766 W/m 12,9 C 14,4 C 41,8 km/h (6 Bft) 100,00 %
11.05.2016 15:05 19,8 C 65 % 1003,4 hPa 0,0 l/m 27,4 km/h (4 Bft) NO 50 1 min 0,000 mm 4,0 UV-I 749 W/m 13,0 C 14,8 C 35,4 km/h (5 Bft) 100,00 %
11.05.2016 15:06 19,8 C 66 % 1003,3 hPa 0,0 l/m 26,0 km/h (4 Bft) N-NO 15 1 min 0,000 mm 3,9 UV-I 751 W/m 13,3 C 15,0 C 32,2 km/h (5 Bft) 93,33 %
11.05.2016 15:07 19,9 C 66 % 1003,5 hPa 0,0 l/m 29,2 km/h (5 Bft) NO 46 1 min 0,000 mm 3,9 UV-I 759 W/m 13,4 C 14,7 C 37,0 km/h (5 Bft) 92,31 %
11.05.2016 15:08 19,9 C 66 % 1003,5 hPa 0,0 l/m 29,1 km/h (5 Bft) NO 52 1 min 0,000 mm 3,9 UV-I 756 W/m 13,4 C 14,7 C 37,0 km/h (5 Bft) 100,00 %
11.05.2016 15:09 19,9 C 64 % 1003,4 hPa 0,0 l/m 29,5 km/h (5 Bft) NO 52 1 min 0,000 mm 3,8 UV-I 723 W/m 12,9 C 14,6 C 38,6 km/h (5 Bft) 92,86 %
11.05.2016 15:10 20,0 C 63 % 1003,4 hPa 0,0 l/m 27,7 km/h (4 Bft) O-NO 60 1 min 0,000 mm 3,9 UV-I 756 W/m 12,7 C 15,0 C 43,5 km/h (6 Bft) 100,00 %
11.05.2016 15:11 20,0 C 63 % 1003,4 hPa 0,0 l/m 29,5 km/h (5 Bft) O-NO 58 1 min 0,000 mm 3,8 UV-I 756 W/m 12,7 C 14,8 C 45,1 km/h (6 Bft) 100,00 %
11.05.2016 15:12 19,9 C 62 % 1003,5 hPa 0,0 l/m 30,2 km/h (5 Bft) O-NO 63 1 min 0,000 mm 3,4 UV-I 763 W/m 12,4 C 14,6 C 40,2 km/h (6 Bft) 100,00 %
11.05.2016 15:13 19,9 C 63 % 1003,4 hPa 0,0 l/m 30,2 km/h (5 Bft) O-NO 69 1 min 0,000 mm 3,6 UV-I 762 W/m 12,6 C 14,6 C 40,2 km/h (6 Bft) 100,00 %
11.05.2016 15:14 19,8 C 63 % 1003,5 hPa 0,0 l/m 29,1 km/h (5 Bft) O-NO 60 1 min 0,000 mm 3,8 UV-I 745 W/m 12,5 C 14,5 C 43,5 km/h (6 Bft) 100,00 %
11.05.2016 15:15 19,8 C 62 % 1003,4 hPa 0,0 l/m 31,3 km/h (5 Bft) O-NO 58 1 min 0,000 mm 3,7 UV-I 753 W/m 12,3 C 14,3 C 41,8 km/h (6 Bft) 100,00 %
11.05.2016 15:16 19,8 C 64 % 1003,5 hPa 0,0 l/m 28,6 km/h (4 Bft) NO 42 1 min 0,000 mm 3,7 UV-I 756 W/m 12,8 C 14,6 C 40,2 km/h (6 Bft) 100,00 %
11.05.2016 15:17 19,8 C 63 % 1003,5 hPa 0,0 l/m 23,4 km/h (4 Bft) NO 51 1 min 0,000 mm 3,7 UV-I 752 W/m 12,5 C 15,4 C 33,8 km/h (5 Bft) 100,00 %
11.05.2016 15:18 19,8 C 64 % 1003,4 hPa 0,0 l/m 29,9 km/h (5 Bft) O-NO 74 1 min 0,000 mm 3,6 UV-I 711 W/m 12,8 C 14,4 C 43,5 km/h (6 Bft) 100,00 %
11.05.2016 15:19 19,8 C 62 % 1003,4 hPa 0,0 l/m 34,8 km/h (5 Bft) O-NO 78 1 min 0,000 mm 3,5 UV-I 691 W/m 12,3 C 13,9 C 43,5 km/h (6 Bft) 100,00 %
11.05.2016 15:20 19,8 C 63 % 1003,5 hPa 0,0 l/m 33,2 km/h (5 Bft) O 82 1 min 0,000 mm 3,5 UV-I 662 W/m 12,5 C 14,1 C 41,8 km/h (6 Bft) 100,00 %
11.05.2016 15:21 19,8 C 63 % 1003,4 hPa 0,0 l/m 22,9 km/h (4 Bft) O-NO 65 1 min 0,000 mm 3,5 UV-I 694 W/m 12,5 C 15,4 C 29,0 km/h (5 Bft) 100,00 %
11.05.2016 15:22 19,8 C 65 % 1003,4 hPa 0,0 l/m 29,4 km/h (5 Bft) O-NO 76 1 min 0,000 mm 3,5 UV-I 708 W/m 13,0 C 14,5 C 37,0 km/h (5 Bft) 100,00 %
11.05.2016 15:23 19,8 C 64 % 1003,4 hPa 0,0 l/m 26,4 km/h (4 Bft) NO 41 1 min 0,000 mm 3,6 UV-I 712 W/m 12,8 C 14,9 C 32,2 km/h (5 Bft) 100,00 %
11.05.2016 15:24 19,8 C 63 % 1003,3 hPa 0,0 l/m 25,6 km/h (4 Bft) NO 55 1 min 0,000 mm 3,6 UV-I 719 W/m 12,5 C 15,0 C 32,2 km/h (5 Bft) 100,00 %
11.05.2016 15:25 19,8 C 64 % 1003,4 hPa 0,0 l/m 25,4 km/h (4 Bft) O-NO 71 1 min 0,000 mm 3,5 UV-I 716 W/m 12,8 C 15,1 C 37,0 km/h (5 Bft) 98,64 %
11.05.2016 15:26 19,9 C 64 % 1003,4 hPa 0,0 l/m 25,4 km/h (4 Bft) NO 35 1 min 0,000 mm 3,5 UV-I 703 W/m 12,9 C 15,2 C 35,4 km/h (5 Bft) 100,00 %
11.05.2016 15:27 20,0 C 65 % 1003,4 hPa 0,0 l/m 27,9 km/h (4 Bft) O-NO 66 1 min 0,000 mm 3,5 UV-I 711 W/m 13,2 C 15,0 C 38,6 km/h (5 Bft) 96,30 %
11.05.2016 15:28 20,0 C 64 % 1003,3 hPa 0,0 l/m 25,6 km/h (4 Bft) NO 36 1 min 0,000 mm 3,4 UV-I 690 W/m 13,0 C 15,3 C 35,4 km/h (5 Bft) 100,00 %
11.05.2016 15:29 20,1 C 64 % 1003,3 hPa 0,0 l/m 28,8 km/h (4 Bft) O-NO 59 1 min 0,000 mm 3,4 UV-I 682 W/m 13,1 C 15,0 C 38,6 km/h (5 Bft) 96,67 %
11.05.2016 15:30 20,1 C 63 % 1003,3 hPa 0,0 l/m 26,9 km/h (4 Bft) O 88 1 min 0,000 mm 3,4 UV-I 692 W/m 12,8 C 15,3 C 35,4 km/h (5 Bft) 95,65 %
11.05.2016 15:31 20,1 C 64 % 1003,3 hPa 0,0 l/m 27,7 km/h (4 Bft) O-NO 66 1 min 0,000 mm 3,4 UV-I 704 W/m 13,1 C 15,1 C 40,2 km/h (6 Bft) 100,00 %
11.05.2016 15:32 20,1 C 64 % 1003,3 hPa 0,0 l/m 29,0 km/h (5 Bft) O-NO 62 1 min 0,000 mm 3,4 UV-I 701 W/m 13,1 C 15,0 C 46,7 km/h (6 Bft) 91,30 %
11.05.2016 15:33 20,1 C 63 % 1003,3 hPa 0,0 l/m 25,7 km/h (4 Bft) NO 52 1 min 0,000 mm 3,3 UV-I 689 W/m 12,8 C 15,4 C 38,6 km/h (5 Bft) 100,00 %
11.05.2016 15:34 20,1 C 63 % 1003,3 hPa 0,0 l/m 25,7 km/h (4 Bft) O-NO 76 1 min 0,000 mm 3,3 UV-I 690 W/m 12,8 C 15,4 C 35,4 km/h (5 Bft) 95,65 %
11.05.2016 15:35 20,1 C 63 % 1003,3 hPa 0,0 l/m 25,3 km/h (4 Bft) O-NO 61 1 min 0,000 mm 3,3 UV-I 691 W/m 12,8 C 15,5 C 33,8 km/h (5 Bft) 100,00 %
11.05.2016 15:36 20,1 C 63 % 1003,3 hPa 0,0 l/m 26,3 km/h (4 Bft) O-NO 71 1 min 0,000 mm 3,3 UV-I 680 W/m 12,8 C 15,3 C 33,8 km/h (5 Bft) 94,12 %
11.05.2016 15:37 20,1 C 63 % 1003,3 hPa 0,0 l/m 29,7 km/h (5 Bft) NO 34 1 min 0,000 mm 3,3 UV-I 690 W/m 12,8 C 14,9 C 40,2 km/h (6 Bft) 100,00 %
11.05.2016 15:38 20,1 C 64 % 1003,3 hPa 0,0 l/m 25,5 km/h (4 Bft) O-NO 65 1 min 0,000 mm 3,3 UV-I 685 W/m 13,1 C 15,4 C 33,8 km/h (5 Bft) 91,30 %
11.05.2016 15:39 20,1 C 64 % 1003,1 hPa 0,0 l/m 23,2 km/h (4 Bft) NO 34 1 min 0,000 mm 3,2 UV-I 672 W/m 13,1 C 15,8 C 32,2 km/h (5 Bft) 96,30 %
11.05.2016 15:40 20,1 C 64 % 1003,2 hPa 0,0 l/m 31,7 km/h (5 Bft) O-NO 57 1 min 0,000 mm 3,2 UV-I 666 W/m 13,1 C 14,7 C 38,6 km/h (5 Bft) 98,61 %
11.05.2016 15:41 20,0 C 64 % 1003,2 hPa 0,0 l/m 25,5 km/h (4 Bft) O-NO 63 1 min 0,000 mm 3,1 UV-I 667 W/m 13,0 C 15,3 C 30,6 km/h (5 Bft) 97,37 %
11.05.2016 15:42 20,0 C 64 % 1003,2 hPa 0,0 l/m 25,3 km/h (4 Bft) O-NO 72 1 min 0,000 mm 3,1 UV-I 644 W/m 13,0 C 15,3 C 30,6 km/h (5 Bft) 100,00 %
11.05.2016 15:43 20,0 C 63 % 1003,3 hPa 0,0 l/m 28,8 km/h (4 Bft) NO 53 1 min 0,000 mm 3,1 UV-I 639 W/m 12,7 C 14,9 C 37,0 km/h (5 Bft) 97,14 %
11.05.2016 15:44 19,9 C 64 % 1003,1 hPa 0,0 l/m 29,8 km/h (5 Bft) O-NO 60 1 min 0,000 mm 3,0 UV-I 638 W/m 12,9 C 14,6 C 43,5 km/h (6 Bft) 98,60 %
11.05.2016 15:45 19,9 C 63 % 1003,2 hPa 0,0 l/m 24,2 km/h (4 Bft) NO 55 1 min 0,000 mm 2,9 UV-I 609 W/m 12,6 C 15,4 C 32,2 km/h (5 Bft) 97,73 %
11.05.2016 15:46 19,9 C 66 % 1003,1 hPa 0,0 l/m 28,9 km/h (5 Bft) NO 41 1 min 0,000 mm 3,0 UV-I 617 W/m 13,4 C 14,7 C 45,1 km/h (6 Bft) 91,30 %
11.05.2016 15:47 19,8 C 65 % 1003,1 hPa 0,0 l/m 35,8 km/h (5 Bft) N-NO 28 1 min 0,000 mm 3,0 UV-I 636 W/m 13,0 C 13,8 C 46,7 km/h (6 Bft) 100,00 %
11.05.2016 15:48 19,9 C 65 % 1003,0 hPa 0,0 l/m 26,2 km/h (4 Bft) O-NO 61 1 min 0,000 mm 3,0 UV-I 640 W/m 13,1 C 15,1 C 37,0 km/h (5 Bft) 96,30 %
11.05.2016 15:49 19,8 C 64 % 1003,1 hPa 0,0 l/m 29,6 km/h (5 Bft) NO 38 1 min 0,000 mm 2,9 UV-I 642 W/m 12,8 C 14,5 C 46,7 km/h (6 Bft) 100,00 %
11.05.2016 15:50 19,8 C 65 % 1003,0 hPa 0,0 l/m 35,8 km/h (5 Bft) NO 48 1 min 0,000 mm 2,9 UV-I 643 W/m 13,0 C 13,8 C 45,1 km/h (6 Bft) 92,31 %
11.05.2016 15:51 19,8 C 64 % 1003,1 hPa 0,0 l/m 26,3 km/h (4 Bft) NO 52 1 min 0,000 mm 2,9 UV-I 636 W/m 12,8 C 14,9 C 32,2 km/h (5 Bft) 100,00 %
11.05.2016 15:52 19,8 C 64 % 1003,0 hPa 0,0 l/m 29,2 km/h (5 Bft) NO 46 1 min 0,000 mm 2,9 UV-I 620 W/m 12,8 C 14,5 C 43,5 km/h (6 Bft) 91,67 %
11.05.2016 15:53 19,8 C 64 % 1003,1 hPa 0,0 l/m 29,0 km/h (5 Bft) NO 37 1 min 0,000 mm 2,9 UV-I 612 W/m 12,8 C 14,6 C 45,1 km/h (6 Bft) 100,00 %
11.05.2016 15:54 19,8 C 64 % 1003,0 hPa 0,0 l/m 29,2 km/h (5 Bft) O-NO 62 1 min 0,000 mm 2,8 UV-I 614 W/m 12,8 C 14,5 C 37,0 km/h (5 Bft) 96,30 %
11.05.2016 15:55 19,7 C 63 % 1003,0 hPa 0,0 l/m 26,8 km/h (4 Bft) O 82 1 min 0,000 mm 2,8 UV-I 610 W/m 12,5 C 14,7 C 33,8 km/h (5 Bft) 95,65 %
11.05.2016 15:56 19,7 C 63 % 1003,0 hPa 0,0 l/m 32,3 km/h (5 Bft) O-NO 58 1 min 0,000 mm 2,8 UV-I 623 W/m 12,5 C 14,0 C 40,2 km/h (6 Bft) 100,00 %
11.05.2016 15:57 19,7 C 63 % 1003,0 hPa 0,0 l/m 36,4 km/h (5 Bft) NO 49 1 min 0,000 mm 2,8 UV-I 624 W/m 12,5 C 13,6 C 49,9 km/h (6 Bft) 95,65 %
11.05.2016 15:58 19,7 C 64 % 1003,0 hPa 0,0 l/m 29,0 km/h (5 Bft) NO 47 1 min 0,000 mm 2,8 UV-I 633 W/m 12,7 C 14,4 C 38,6 km/h (5 Bft) 100,00 %
11.05.2016 15:59 19,7 C 65 % 1003,0 hPa 0,0 l/m 27,5 km/h (4 Bft) O-NO 64 1 min 0,000 mm 2,8 UV-I 630 W/m 12,9 C 14,6 C 43,5 km/h (6 Bft) 100,00 %
11.05.2016 16:00 19,8 C 64 % 1003,0 hPa 0,0 l/m 27,3 km/h (4 Bft) O-NO 59 1 min 0,000 mm 2,7 UV-I 614 W/m 12,8 C 14,8 C 37,0 km/h (5 Bft) 100,00 %
11.05.2016 16:01 19,8 C 64 % 1003,0 hPa 0,0 l/m 33,3 km/h (5 Bft) O 80 1 min 0,533 mm 2,7 UV-I 617 W/m 12,8 C 14,1 C 43,5 km/h (6 Bft) 100,00 %
11.05.2016 16:02 19,8 C 64 % 1003,0 hPa 0,0 l/m 30,2 km/h (5 Bft) O 87 1 min 0,000 mm 2,7 UV-I 599 W/m 12,8 C 14,4 C 40,2 km/h (6 Bft) 100,00 %
11.05.2016 16:03 19,8 C 64 % 1002,9 hPa 0,0 l/m 30,5 km/h (5 Bft) O 80 1 min 0,000 mm 2,7 UV-I 587 W/m 12,8 C 14,4 C 41,8 km/h (6 Bft) 100,00 %
11.05.2016 16:04 19,8 C 62 % 1002,9 hPa 0,0 l/m 34,3 km/h (5 Bft) O-NO 74 1 min 0,000 mm 2,6 UV-I 581 W/m 12,3 C 14,0 C 40,2 km/h (6 Bft) 100,00 %
11.05.2016 16:05 19,8 C 63 % 1002,9 hPa 0,0 l/m 31,5 km/h (5 Bft) O-NO 71 1 min 0,000 mm 2,6 UV-I 588 W/m 12,5 C 14,3 C 38,6 km/h (5 Bft) 100,00 %
11.05.2016 16:06 19,7 C 63 % 1002,9 hPa 0,0 l/m 34,3 km/h (5 Bft) O-NO 69 1 min 0,000 mm 2,5 UV-I 580 W/m 12,5 C 13,8 C 43,5 km/h (6 Bft) 96,15 %
11.05.2016 16:07 19,7 C 62 % 1002,9 hPa 0,0 l/m 27,6 km/h (4 Bft) N-NO 31 1 min 0,000 mm 2,5 UV-I 569 W/m 12,2 C 14,6 C 33,8 km/h (5 Bft) 100,00 %
11.05.2016 16:08 19,7 C 63 % 1002,8 hPa 0,0 l/m 34,6 km/h (5 Bft) NO 56 1 min 0,000 mm 2,5 UV-I 577 W/m 12,5 C 13,8 C 43,5 km/h (6 Bft) 100,00 %
11.05.2016 16:09 19,6 C 63 % 1002,8 hPa 0,0 l/m 30,3 km/h (5 Bft) O-NO 59 1 min 0,000 mm 2,5 UV-I 574 W/m 12,4 C 14,1 C 40,2 km/h (6 Bft) 100,00 %
11.05.2016 16:10 19,6 C 63 % 1002,8 hPa 0,0 l/m 37,4 km/h (5 Bft) NO 40 1 min 0,000 mm 2,5 UV-I 578 W/m 12,4 C 13,4 C 49,9 km/h (6 Bft) 100,00 %
11.05.2016 16:11 19,6 C 64 % 1002,8 hPa 0,0 l/m 34,1 km/h (5 Bft) NO 42 1 min 0,000 mm 2,5 UV-I 580 W/m 12,6 C 13,7 C 40,2 km/h (6 Bft) 100,00 %
11.05.2016 16:12 19,6 C 63 % 1002,7 hPa 0,0 l/m 36,1 km/h (5 Bft) NO 36 1 min 0,000 mm 2,4 UV-I 548 W/m 12,4 C 13,5 C 46,7 km/h (6 Bft) 100,00 %
11.05.2016 16:13 19,5 C 64 % 1002,8 hPa 0,0 l/m 32,9 km/h (5 Bft) O-NO 59 1 min 0,000 mm 2,3 UV-I 507 W/m 12,5 C 13,7 C 38,6 km/h (5 Bft) 100,00 %
11.05.2016 16:14 19,5 C 64 % 1002,8 hPa 0,0 l/m 26,9 km/h (4 Bft) O-NO 59 1 min 0,000 mm 2,2 UV-I 496 W/m 12,5 C 14,4 C 37,0 km/h (5 Bft) 96,15 %
11.05.2016 16:15 19,5 C 64 % 1002,8 hPa 0,0 l/m 28,8 km/h (4 Bft) O-NO 71 1 min 0,000 mm 2,2 UV-I 524 W/m 12,5 C 14,2 C 33,8 km/h (5 Bft) 100,00 %
11.05.2016 16:16 19,6 C 64 % 1002,8 hPa 0,0 l/m 28,6 km/h (4 Bft) NO 53 1 min 0,000 mm 2,3 UV-I 549 W/m 12,6 C 14,3 C 37,0 km/h (5 Bft) 100,00 %
11.05.2016 16:17 19,6 C 65 % 1002,8 hPa 0,0 l/m 23,2 km/h (4 Bft) NO 36 1 min 0,000 mm 2,3 UV-I 548 W/m 12,8 C 15,1 C 33,8 km/h (5 Bft) 100,00 %
11.05.2016 16:18 19,6 C 65 % 1002,7 hPa 0,0 l/m 24,4 km/h (4 Bft) NO 38 1 min 0,000 mm 2,3 UV-I 542 W/m 12,8 C 14,9 C 30,6 km/h (5 Bft) 100,00 %
11.05.2016 16:19 19,6 C 64 % 1002,8 hPa 0,0 l/m 28,4 km/h (4 Bft) O-NO 63 1 min 0,000 mm 2,3 UV-I 555 W/m 12,6 C 14,4 C 35,4 km/h (5 Bft) 100,00 %
11.05.2016 16:20 19,6 C 64 % 1002,7 hPa 0,0 l/m 26,6 km/h (4 Bft) O-NO 65 1 min 0,000 mm 2,2 UV-I 541 W/m 12,6 C 14,6 C 33,8 km/h (5 Bft) 100,00 %
11.05.2016 16:21 19,6 C 66 % 1002,8 hPa 0,0 l/m 23,6 km/h (4 Bft) NO 38 1 min 0,000 mm 2,3 UV-I 540 W/m 13,1 C 15,1 C 41,8 km/h (6 Bft) 100,00 %
11.05.2016 16:22 19,6 C 64 % 1002,7 hPa 0,0 l/m 32,2 km/h (5 Bft) O-NO 62 1 min 0,000 mm 2,2 UV-I 554 W/m 12,6 C 13,9 C 41,8 km/h (6 Bft) 100,00 %
11.05.2016 16:23 19,7 C 64 % 1002,8 hPa 0,0 l/m 23,8 km/h (4 Bft) NO 53 1 min 0,000 mm 2,3 UV-I 575 W/m 12,7 C 15,2 C 33,8 km/h (5 Bft) 100,00 %
11.05.2016 16:24 19,7 C 64 % 1002,8 hPa 0,0 l/m 33,1 km/h (5 Bft) NO 37 1 min 0,000 mm 2,2 UV-I 534 W/m 12,7 C 13,9 C 41,8 km/h (6 Bft) 100,00 %
11.05.2016 16:25 19,6 C 63 % 1002,8 hPa 0,0 l/m 29,5 km/h (5 Bft) NO 56 1 min 0,000 mm 2,2 UV-I 509 W/m 12,4 C 14,2 C 40,2 km/h (6 Bft) 100,00 %
11.05.2016 16:26 19,6 C 63 % 1002,8 hPa 0,0 l/m 24,5 km/h (4 Bft) NO 49 1 min 0,000 mm 2,1 UV-I 515 W/m 12,4 C 14,9 C 35,4 km/h (5 Bft) 100,00 %
11.05.2016 16:27 19,6 C 64 % 1002,8 hPa 0,0 l/m 25,8 km/h (4 Bft) O-NO 58 1 min 0,000 mm 2,2 UV-I 522 W/m 12,6 C 14,7 C 30,6 km/h (5 Bft) 100,00 %
11.05.2016 16:28 19,6 C 63 % 1002,8 hPa 0,0 l/m 26,6 km/h (4 Bft) NO 37 1 min 0,000 mm 2,2 UV-I 562 W/m 12,4 C 14,6 C 35,4 km/h (5 Bft) 100,00 %
11.05.2016 16:29 19,6 C 65 % 1002,6 hPa 0,0 l/m 35,5 km/h (5 Bft) NO 50 1 min 0,000 mm 2,2 UV-I 563 W/m 12,8 C 13,5 C 41,8 km/h (6 Bft) 100,00 %
11.05.2016 16:30 19,5 C 63 % 1002,8 hPa 0,0 l/m 29,9 km/h (5 Bft) NO 42 1 min 0,000 mm 2,1 UV-I 528 W/m 12,3 C 14,0 C 38,6 km/h (5 Bft) 100,00 %
11.05.2016 16:31 19,5 C 65 % 1002,8 hPa 0,0 l/m 32,1 km/h (5 Bft) O 84 1 min 0,000 mm 2,1 UV-I 527 W/m 12,7 C 13,8 C 46,7 km/h (6 Bft) 96,15 %
11.05.2016 16:32 19,4 C 64 % 1002,8 hPa 0,0 l/m 25,3 km/h (4 Bft) NO 53 1 min 0,000 mm 2,1 UV-I 515 W/m 12,4 C 14,5 C 32,2 km/h (5 Bft) 100,00 %
11.05.2016 16:33 19,4 C 65 % 1002,8 hPa 0,0 l/m 23,4 km/h (4 Bft) O-NO 61 1 min 0,000 mm 2,1 UV-I 509 W/m 12,6 C 14,8 C 30,6 km/h (5 Bft) 100,00 %
11.05.2016 16:34 19,4 C 65 % 1002,8 hPa 0,0 l/m 27,7 km/h (4 Bft) O-NO 76 1 min 0,000 mm 2,1 UV-I 528 W/m 12,6 C 14,2 C 38,6 km/h (5 Bft) 100,00 %
11.05.2016 16:35 19,5 C 64 % 1002,8 hPa 0,0 l/m 28,4 km/h (4 Bft) O-NO 61 1 min 0,000 mm 2,1 UV-I 535 W/m 12,5 C 14,2 C 40,2 km/h (6 Bft) 100,00 %
11.05.2016 16:36 19,4 C 63 % 1002,7 hPa 0,0 l/m 29,6 km/h (5 Bft) NO 46 1 min 0,000 mm 2,0 UV-I 524 W/m 12,2 C 13,9 C 40,2 km/h (6 Bft) 100,00 %
11.05.2016 16:37 19,4 C 64 % 1002,8 hPa 0,0 l/m 36,9 km/h (5 Bft) NO 50 1 min 0,000 mm 2,1 UV-I 541 W/m 12,4 C 13,1 C 45,1 km/h (6 Bft) 100,00 %
11.05.2016 16:38 19,4 C 63 % 1002,8 hPa 0,0 l/m 32,8 km/h (5 Bft) NO 53 1 min 0,000 mm 2,0 UV-I 548 W/m 12,2 C 13,5 C 46,7 km/h (6 Bft) 100,00 %
11.05.2016 16:39 19,4 C 63 % 1002,8 hPa 0,0 l/m 35,2 km/h (5 Bft) O-NO 71 1 min 0,000 mm 2,1 UV-I 531 W/m 12,2 C 13,3 C 45,1 km/h (6 Bft) 100,00 %
11.05.2016 16:40 19,3 C 63 % 1002,8 hPa 0,0 l/m 33,5 km/h (5 Bft) NO 35 1 min 0,000 mm 2,0 UV-I 516 W/m 12,1 C 13,3 C 43,5 km/h (6 Bft) 100,00 %
11.05.2016 16:41 19,3 C 63 % 1002,8 hPa 0,0 l/m 32,2 km/h (5 Bft) NO 45 1 min 0,000 mm 1,9 UV-I 508 W/m 12,1 C 13,5 C 40,2 km/h (6 Bft) 100,00 %
11.05.2016 16:42 19,3 C 64 % 1002,8 hPa 0,0 l/m 27,8 km/h (4 Bft) O-NO 58 1 min 0,000 mm 1,9 UV-I 499 W/m 12,3 C 14,0 C 37,0 km/h (5 Bft) 100,00 %
11.05.2016 16:43 19,3 C 63 % 1002,8 hPa 0,0 l/m 31,5 km/h (5 Bft) NO 45 1 min 0,000 mm 1,9 UV-I 483 W/m 12,1 C 13,6 C 38,6 km/h (5 Bft) 100,00 %
11.05.2016 16:44 19,3 C 63 % 1002,8 hPa 0,0 l/m 28,6 km/h (4 Bft) O-NO 66 1 min 0,000 mm 1,9 UV-I 507 W/m 12,1 C 13,9 C 35,4 km/h (5 Bft) 100,00 %
11.05.2016 16:45 19,3 C 64 % 1002,8 hPa 0,0 l/m 30,0 km/h (5 Bft) O-NO 65 1 min 0,000 mm 1,9 UV-I 506 W/m 12,3 C 13,7 C 37,0 km/h (5 Bft) 95,83 %
11.05.2016 16:46 19,2 C 64 % 1002,8 hPa 0,0 l/m 29,0 km/h (5 Bft) O-NO 73 1 min 0,000 mm 1,9 UV-I 510 W/m 12,2 C 13,7 C 38,6 km/h (5 Bft) 100,00 %
11.05.2016 16:47 19,2 C 64 % 1002,8 hPa 0,0 l/m 26,6 km/h (4 Bft) O 81 1 min 0,000 mm 1,8 UV-I 502 W/m 12,2 C 14,1 C 38,6 km/h (5 Bft) 100,00 %
11.05.2016 16:48 19,3 C 64 % 1002,8 hPa 0,0 l/m 23,2 km/h (4 Bft) O 82 1 min 0,000 mm 1,8 UV-I 500 W/m 12,3 C 14,7 C 32,2 km/h (5 Bft) 100,00 %
11.05.2016 16:49 19,3 C 65 % 1002,8 hPa 0,0 l/m 28,7 km/h (4 Bft) NO 52 1 min 0,000 mm 1,8 UV-I 492 W/m 12,6 C 13,9 C 41,8 km/h (6 Bft) 100,00 %
11.05.2016 16:50 19,3 C 64 % 1002,6 hPa 0,0 l/m 31,9 km/h (5 Bft) NO 48 1 min 0,000 mm 1,8 UV-I 516 W/m 12,3 C 13,5 C 41,8 km/h (6 Bft) 100,00 %
11.05.2016 16:51 19,3 C 65 % 1002,8 hPa 0,0 l/m 24,6 km/h (4 Bft) O-NO 76 1 min 0,000 mm 1,8 UV-I 539 W/m 12,6 C 14,5 C 35,4 km/h (5 Bft) 100,00 %
11.05.2016 16:52 19,3 C 65 % 1002,8 hPa 0,0 l/m 27,4 km/h (4 Bft) O 82 1 min 0,000 mm 1,8 UV-I 545 W/m 12,6 C 14,1 C 45,1 km/h (6 Bft) 100,00 %
11.05.2016 16:53 19,4 C 63 % 1002,7 hPa 0,0 l/m 31,0 km/h (5 Bft) NO 49 1 min 0,000 mm 1,8 UV-I 554 W/m 12,2 C 13,8 C 41,8 km/h (6 Bft) 100,00 %
11.05.2016 16:54 19,3 C 63 % 1002,7 hPa 0,0 l/m 35,9 km/h (5 Bft) N-NO 33 1 min 0,000 mm 1,8 UV-I 558 W/m 12,1 C 13,1 C 43,5 km/h (6 Bft) 100,00 %
11.05.2016 16:55 19,3 C 62 % 1002,7 hPa 0,0 l/m 35,7 km/h (5 Bft) NO 44 1 min 0,000 mm 1,8 UV-I 536 W/m 11,8 C 13,1 C 46,7 km/h (6 Bft) 100,00 %
11.05.2016 16:56 19,3 C 62 % 1002,7 hPa 0,0 l/m 35,0 km/h (5 Bft) NO 55 1 min 0,000 mm 1,7 UV-I 506 W/m 11,8 C 13,2 C 46,7 km/h (6 Bft) 100,00 %
11.05.2016 16:57 19,3 C 63 % 1002,7 hPa 0,0 l/m 32,8 km/h (5 Bft) O-NO 74 1 min 0,000 mm 1,7 UV-I 501 W/m 12,1 C 13,4 C 41,8 km/h (6 Bft) 98,66 %
11.05.2016 16:58 19,3 C 63 % 1002,7 hPa 0,0 l/m 33,1 km/h (5 Bft) O-NO 63 1 min 0,000 mm 1,7 UV-I 510 W/m 12,1 C 13,4 C 40,2 km/h (6 Bft) 100,00 %
11.05.2016 16:59 19,3 C 64 % 1002,7 hPa 0,0 l/m 25,3 km/h (4 Bft) O-NO 63 1 min 0,000 mm 1,7 UV-I 511 W/m 12,3 C 14,4 C 35,4 km/h (5 Bft) 100,00 %
11.05.2016 17:00 19,3 C 64 % 1002,7 hPa 0,0 l/m 30,2 km/h (5 Bft) NO 53 1 min 0,000 mm 1,6 UV-I 495 W/m 12,3 C 13,7 C 45,1 km/h (6 Bft) 96,15 %
11.05.2016 17:01 19,2 C 63 % 1002,7 hPa 0,0 l/m 33,8 km/h (5 Bft) O-NO 69 1 min 0,457 mm 1,6 UV-I 470 W/m 12,0 C 13,1 C 40,2 km/h (6 Bft) 100,00 %
11.05.2016 17:02 19,2 C 63 % 1002,7 hPa 0,0 l/m 31,8 km/h (5 Bft) O-NO 65 1 min 0,000 mm 1,6 UV-I 462 W/m 12,0 C 13,4 C 40,2 km/h (6 Bft) 100,00 %
11.05.2016 17:03 19,2 C 64 % 1002,7 hPa 0,0 l/m 27,4 km/h (4 Bft) NO 38 1 min 0,000 mm 1,5 UV-I 459 W/m 12,2 C 13,9 C 37,0 km/h (5 Bft) 100,00 %
11.05.2016 17:04 19,2 C 64 % 1002,7 hPa 0,0 l/m 27,4 km/h (4 Bft) O-NO 69 1 min 0,000 mm 1,5 UV-I 467 W/m 12,2 C 13,9 C 38,6 km/h (5 Bft) 100,00 %
11.05.2016 17:05 19,3 C 64 % 1002,7 hPa 0,0 l/m 25,0 km/h (4 Bft) NO 50 1 min 0,000 mm 1,5 UV-I 433 W/m 12,3 C 14,4 C 32,2 km/h (5 Bft) 100,00 %
11.05.2016 17:06 19,3 C 65 % 1002,7 hPa 0,0 l/m 20,4 km/h (4 Bft) O-NO 74 1 min 0,000 mm 1,4 UV-I 419 W/m 12,6 C 15,2 C 29,0 km/h (5 Bft) 100,00 %
11.05.2016 17:07 19,3 C 65 % 1002,7 hPa 0,0 l/m 23,2 km/h (4 Bft) NO 53 1 min 0,000 mm 1,5 UV-I 432 W/m 12,6 C 14,7 C 33,8 km/h (5 Bft) 100,00 %
11.05.2016 17:08 19,3 C 64 % 1002,7 hPa 0,0 l/m 26,5 km/h (4 Bft) NO 53 1 min 0,000 mm 1,4 UV-I 441 W/m 12,3 C 14,2 C 35,4 km/h (5 Bft) 100,00 %
11.05.2016 17:09 19,3 C 63 % 1002,7 hPa 0,0 l/m 33,5 km/h (5 Bft) O-NO 76 1 min 0,000 mm 1,4 UV-I 422 W/m 12,1 C 13,3 C 40,2 km/h (6 Bft) 100,00 %
11.05.2016 17:10 19,3 C 63 % 1002,7 hPa 0,0 l/m 28,8 km/h (4 Bft) NO 35 1 min 0,000 mm 1,4 UV-I 423 W/m 12,1 C 13,9 C 37,0 km/h (5 Bft) 100,00 %
11.05.2016 17:11 19,3 C 63 % 1002,6 hPa 0,0 l/m 32,8 km/h (5 Bft) NO 43 1 min 0,000 mm 1,4 UV-I 423 W/m 12,1 C 13,4 C 40,2 km/h (6 Bft) 100,00 %
11.05.2016 17:12 19,2 C 63 % 1002,6 hPa 0,0 l/m 34,1 km/h (5 Bft) NO 54 1 min 0,000 mm 1,3 UV-I 401 W/m 12,0 C 13,1 C 41,8 km/h (6 Bft) 100,00 %
11.05.2016 17:13 19,2 C 63 % 1002,6 hPa 0,0 l/m 30,5 km/h (5 Bft) NO 45 1 min 0,000 mm 1,3 UV-I 394 W/m 12,0 C 13,5 C 37,0 km/h (5 Bft) 100,00 %
11.05.2016 17:14 19,2 C 64 % 1002,6 hPa 0,0 l/m 22,3 km/h (4 Bft) O-NO 63 1 min 0,000 mm 1,3 UV-I 400 W/m 12,2 C 14,7 C 27,4 km/h (4 Bft) 100,00 %
11.05.2016 17:15 19,2 C 64 % 1002,6 hPa 0,0 l/m 29,1 km/h (5 Bft) N-NO 32 1 min 0,000 mm 1,3 UV-I 419 W/m 12,2 C 13,7 C 45,1 km/h (6 Bft) 100,00 %
11.05.2016 17:16 19,1 C 63 % 1002,5 hPa 0,0 l/m 37,2 km/h (5 Bft) O-NO 72 1 min 0,000 mm 1,3 UV-I 431 W/m 11,9 C 12,6 C 46,7 km/h (6 Bft) 100,00 %
11.05.2016 17:17 19,1 C 63 % 1002,6 hPa 0,0 l/m 30,7 km/h (5 Bft) O 85 1 min 0,000 mm 1,3 UV-I 432 W/m 11,9 C 13,4 C 40,2 km/h (6 Bft) 100,00 %
11.05.2016 17:18 19,1 C 63 % 1002,6 hPa 0,0 l/m 26,2 km/h (4 Bft) NO 44 1 min 0,000 mm 1,3 UV-I 443 W/m 11,9 C 14,0 C 38,6 km/h (5 Bft) 100,00 %
11.05.2016 17:19 19,1 C 64 % 1002,6 hPa 0,0 l/m 24,3 km/h (4 Bft) O-NO 63 1 min 0,000 mm 1,3 UV-I 451 W/m 12,1 C 14,3 C 30,6 km/h (5 Bft) 96,55 %
11.05.2016 17:20 19,1 C 65 % 1002,6 hPa 0,0 l/m 26,9 km/h (4 Bft) NO 34 1 min 0,000 mm 1,3 UV-I 466 W/m 12,4 C 13,9 C 35,4 km/h (5 Bft) 100,00 %
11.05.2016 17:21 19,2 C 64 % 1002,6 hPa 0,0 l/m 22,4 km/h (4 Bft) NO 51 1 min 0,000 mm 1,3 UV-I 469 W/m 12,2 C 14,7 C 30,6 km/h (5 Bft) 95,65 %
11.05.2016 17:22 19,2 C 65 % 1002,6 hPa 0,0 l/m 27,0 km/h (4 Bft) NO 54 1 min 0,000 mm 1,3 UV-I 452 W/m 12,5 C 14,0 C 33,8 km/h (5 Bft) 100,00 %
11.05.2016 17:23 19,2 C 65 % 1002,6 hPa 0,0 l/m 28,4 km/h (4 Bft) O 80 1 min 0,000 mm 1,2 UV-I 439 W/m 12,5 C 13,8 C 37,0 km/h (5 Bft) 100,00 %
11.05.2016 17:24 19,2 C 64 % 1002,6 hPa 0,0 l/m 27,5 km/h (4 Bft) N-NO 26 1 min 0,000 mm 1,2 UV-I 417 W/m 12,2 C 13,9 C 37,0 km/h (5 Bft) 97,56 %
11.05.2016 17:25 19,2 C 64 % 1002,5 hPa 0,0 l/m 31,1 km/h (5 Bft) N-NO 30 1 min 0,000 mm 1,2 UV-I 403 W/m 12,2 C 13,5 C 38,6 km/h (5 Bft) 96,15 %
11.05.2016 17:26 19,2 C 63 % 1002,5 hPa 0,0 l/m 28,4 km/h (4 Bft) O-NO 57 1 min 0,000 mm 1,2 UV-I 401 W/m 12,0 C 13,8 C 41,8 km/h (6 Bft) 100,00 %
11.05.2016 17:27 19,1 C 64 % 1002,5 hPa 0,0 l/m 26,4 km/h (4 Bft) NO 49 1 min 0,000 mm 1,1 UV-I 375 W/m 12,1 C 13,9 C 35,4 km/h (5 Bft) 96,67 %
11.05.2016 17:28 19,1 C 64 % 1002,5 hPa 0,0 l/m 30,4 km/h (5 Bft) NO 38 1 min 0,000 mm 1,0 UV-I 367 W/m 12,1 C 13,4 C 38,6 km/h (5 Bft) 100,00 %
11.05.2016 17:29 19,1 C 64 % 1002,5 hPa 0,0 l/m 30,4 km/h (5 Bft) NO 34 0 min 0,000 mm 1,0 UV-I 252 W/m 12,1 C 13,4 C 45,1 km/h (6 Bft) 96,00 %
11.05.2016 17:30 19,0 C 63 % 1002,5 hPa 0,0 l/m 30,3 km/h (5 Bft) NO 52 1 min 0,000 mm 1,0 UV-I 317 W/m 11,8 C 13,3 C 40,2 km/h (6 Bft) 96,15 %
11.05.2016 17:31 19,0 C 64 % 1002,5 hPa 0,0 l/m 29,2 km/h (5 Bft) O-NO 76 1 min 0,000 mm 1,1 UV-I 382 W/m 12,0 C 13,4 C 38,6 km/h (5 Bft) 100,00 %
11.05.2016 17:32 18,9 C 63 % 1002,5 hPa 0,0 l/m 30,5 km/h (5 Bft) NO 46 1 min 0,000 mm 1,1 UV-I 400 W/m 11,7 C 13,1 C 40,2 km/h (6 Bft) 95,65 %
11.05.2016 17:33 18,9 C 64 % 1002,6 hPa 0,0 l/m 29,0 km/h (5 Bft) NO 40 1 min 0,000 mm 1,1 UV-I 396 W/m 11,9 C 13,3 C 38,6 km/h (5 Bft) 100,00 %
11.05.2016 17:34 18,9 C 64 % 1002,6 hPa 0,0 l/m 33,1 km/h (5 Bft) NO 36 1 min 0,000 mm 1,0 UV-I 376 W/m 11,9 C 12,8 C 45,1 km/h (6 Bft) 95,65 %
11.05.2016 17:35 18,9 C 64 % 1002,5 hPa 0,0 l/m 26,6 km/h (4 Bft) NO 53 1 min 0,000 mm 1,0 UV-I 364 W/m 11,9 C 13,6 C 35,4 km/h (5 Bft) 100,00 %
11.05.2016 17:36 18,9 C 64 % 1002,5 hPa 0,0 l/m 33,0 km/h (5 Bft) O-NO 59 1 min 0,000 mm 1,0 UV-I 352 W/m 11,9 C 12,8 C 43,5 km/h (6 Bft) 96,15 %
11.05.2016 17:37 18,9 C 64 % 1002,5 hPa 0,0 l/m 28,5 km/h (4 Bft) NO 42 1 min 0,000 mm 1,0 UV-I 347 W/m 11,9 C 13,4 C 37,0 km/h (5 Bft) 100,00 %
11.05.2016 17:38 18,9 C 64 % 1002,4 hPa 0,0 l/m 26,8 km/h (4 Bft) O-NO 59 1 min 0,000 mm 1,0 UV-I 354 W/m 11,9 C 13,6 C 35,4 km/h (5 Bft) 96,15 %
11.05.2016 17:39 18,9 C 64 % 1002,4 hPa 0,0 l/m 32,0 km/h (5 Bft) O-NO 57 1 min 0,000 mm 0,9 UV-I 360 W/m 11,9 C 12,9 C 40,2 km/h (6 Bft) 92,59 %
11.05.2016 17:40 18,8 C 64 % 1002,4 hPa 0,0 l/m 26,5 km/h (4 Bft) O-NO 76 1 min 0,000 mm 0,9 UV-I 308 W/m 11,8 C 13,5 C 33,8 km/h (5 Bft) 100,00 %
11.05.2016 17:41 18,8 C 64 % 1002,5 hPa 0,0 l/m 33,4 km/h (5 Bft) NO 40 1 min 0,000 mm 0,8 UV-I 277 W/m 11,8 C 12,6 C 41,8 km/h (6 Bft) 95,83 %
11.05.2016 17:42 18,8 C 64 % 1002,4 hPa 0,0 l/m 28,3 km/h (4 Bft) NO 54 0 min 0,000 mm 0,8 UV-I 183 W/m 11,8 C 13,3 C 32,2 km/h (5 Bft) 96,15 %
11.05.2016 17:43 18,8 C 64 % 1002,4 hPa 0,0 l/m 33,0 km/h (5 Bft) O-NO 72 0 min 0,000 mm 0,8 UV-I 215 W/m 11,8 C 12,7 C 40,2 km/h (6 Bft) 98,65 %
11.05.2016 17:44 18,7 C 65 % 1002,4 hPa 0,0 l/m 32,7 km/h (5 Bft) NO 46 1 min 0,000 mm 0,8 UV-I 292 W/m 12,0 C 12,6 C 45,1 km/h (6 Bft) 97,62 %
11.05.2016 17:45 18,7 C 65 % 1002,3 hPa 0,0 l/m 30,1 km/h (5 Bft) O-NO 57 1 min 0,000 mm 0,8 UV-I 309 W/m 12,0 C 12,9 C 38,6 km/h (5 Bft) 95,65 %
11.05.2016 17:46 18,6 C 64 % 1002,4 hPa 0,0 l/m 35,8 km/h (5 Bft) NO 53 1 min 0,000 mm 0,8 UV-I 241 W/m 11,7 C 12,1 C 48,3 km/h (6 Bft) 100,00 %
11.05.2016 17:47 18,6 C 65 % 1002,3 hPa 0,0 l/m 22,0 km/h (4 Bft) O-NO 58 0 min 0,000 mm 0,7 UV-I 190 W/m 11,9 C 14,0 C 32,2 km/h (5 Bft) 97,44 %
11.05.2016 17:48 18,6 C 66 % 1002,4 hPa 0,0 l/m 30,2 km/h (5 Bft) O-NO 57 0 min 0,000 mm 0,7 UV-I 171 W/m 12,1 C 12,7 C 38,6 km/h (5 Bft) 95,83 %
11.05.2016 17:49 18,6 C 65 % 1002,4 hPa 0,0 l/m 30,7 km/h (5 Bft) O-NO 59 0 min 0,000 mm 0,7 UV-I 156 W/m 11,9 C 12,7 C 40,2 km/h (6 Bft) 100,00 %
11.05.2016 17:50 18,5 C 65 % 1002,4 hPa 0,0 l/m 34,0 km/h (5 Bft) NO 44 0 min 0,000 mm 0,7 UV-I 149 W/m 11,8 C 12,1 C 41,8 km/h (6 Bft) 95,83 %
11.05.2016 17:51 18,5 C 65 % 1002,3 hPa 0,0 l/m 30,9 km/h (5 Bft) NO 54 0 min 0,000 mm 0,6 UV-I 148 W/m 11,8 C 12,5 C 35,4 km/h (5 Bft) 100,00 %
11.05.2016 17:52 18,4 C 66 % 1002,4 hPa 0,0 l/m 28,4 km/h (4 Bft) NO 52 0 min 0,000 mm 0,6 UV-I 148 W/m 11,9 C 12,7 C 38,6 km/h (5 Bft) 91,67 %
11.05.2016 17:53 18,4 C 65 % 1002,4 hPa 0,0 l/m 34,3 km/h (5 Bft) N-NO 33 0 min 0,000 mm 0,6 UV-I 150 W/m 11,7 C 11,9 C 45,1 km/h (6 Bft) 100,00 %
11.05.2016 17:54 18,3 C 66 % 1002,3 hPa 0,0 l/m 29,4 km/h (5 Bft) O-NO 69 0 min 0,000 mm 0,6 UV-I 154 W/m 11,8 C 12,4 C 38,6 km/h (5 Bft) 96,67 %
11.05.2016 17:55 18,3 C 66 % 1002,3 hPa 0,0 l/m 30,7 km/h (5 Bft) O-NO 69 0 min 0,000 mm 0,6 UV-I 153 W/m 11,8 C 12,2 C 48,3 km/h (6 Bft) 100,00 %
11.05.2016 17:56 18,3 C 66 % 1002,3 hPa 0,0 l/m 31,1 km/h (5 Bft) O 86 0 min 0,000 mm 0,6 UV-I 151 W/m 11,8 C 12,2 C 38,6 km/h (5 Bft) 100,00 %
11.05.2016 17:57 18,2 C 65 % 1002,3 hPa 0,0 l/m 30,7 km/h (5 Bft) NO 44 0 min 0,000 mm 0,6 UV-I 161 W/m 11,5 C 12,1 C 40,2 km/h (6 Bft) 100,00 %
11.05.2016 17:58 18,2 C 66 % 1002,2 hPa 0,0 l/m 31,0 km/h (5 Bft) NO 44 0 min 0,000 mm 0,6 UV-I 171 W/m 11,7 C 12,1 C 41,8 km/h (6 Bft) 100,00 %
11.05.2016 17:59 18,2 C 66 % 1002,3 hPa 0,0 l/m 33,1 km/h (5 Bft) NO 55 0 min 0,000 mm 0,6 UV-I 170 W/m 11,7 C 11,8 C 46,7 km/h (6 Bft) 100,00 %
11.05.2016 18:00 18,2 C 65 % 1002,3 hPa 0,0 l/m 31,2 km/h (5 Bft) O-NO 62 0 min 0,000 mm 0,6 UV-I 165 W/m 11,5 C 12,0 C 45,1 km/h (6 Bft) 100,00 %
11.05.2016 18:01 18,2 C 66 % 1002,3 hPa 0,0 l/m 26,6 km/h (4 Bft) NO 52 0 min 0,330 mm 0,6 UV-I 161 W/m 11,7 C 12,7 C 35,4 km/h (5 Bft) 95,83 %
11.05.2016 18:02 18,2 C 66 % 1002,3 hPa 0,0 l/m 32,5 km/h (5 Bft) O-NO 65 0 min 0,000 mm 0,6 UV-I 167 W/m 11,7 C 11,9 C 43,5 km/h (6 Bft) 100,00 %
11.05.2016 18:03 18,2 C 66 % 1002,3 hPa 0,0 l/m 31,4 km/h (5 Bft) O-NO 61 0 min 0,000 mm 0,6 UV-I 193 W/m 11,7 C 12,0 C 40,2 km/h (6 Bft) 96,30 %
11.05.2016 18:04 18,2 C 66 % 1002,3 hPa 0,0 l/m 27,0 km/h (4 Bft) O-NO 71 1 min 0,000 mm 0,6 UV-I 213 W/m 11,7 C 12,6 C 33,8 km/h (5 Bft) 96,15 %
11.05.2016 18:05 18,1 C 66 % 1002,3 hPa 0,0 l/m 28,8 km/h (4 Bft) O-NO 59 1 min 0,000 mm 0,6 UV-I 228 W/m 11,6 C 12,2 C 37,0 km/h (5 Bft) 100,00 %
11.05.2016 18:06 18,1 C 66 % 1002,3 hPa 0,0 l/m 29,0 km/h (5 Bft) O-NO 65 1 min 0,000 mm 0,6 UV-I 227 W/m 11,6 C 12,2 C 38,6 km/h (5 Bft) 100,00 %
11.05.2016 18:07 18,1 C 67 % 1002,2 hPa 0,0 l/m 27,5 km/h (4 Bft) O-NO 63 1 min 0,000 mm 0,6 UV-I 227 W/m 11,9 C 12,4 C 37,0 km/h (5 Bft) 100,00 %
11.05.2016 18:08 18,1 C 66 % 1002,3 hPa 0,0 l/m 28,0 km/h (4 Bft) O-NO 63 1 min 0,000 mm 0,6 UV-I 222 W/m 11,6 C 12,3 C 40,2 km/h (6 Bft) 100,00 %
11.05.2016 18:09 18,1 C 66 % 1002,3 hPa 0,0 l/m 31,6 km/h (5 Bft) O-NO 63 0 min 0,000 mm 0,6 UV-I 198 W/m 11,6 C 11,8 C 43,5 km/h (6 Bft) 93,33 %
11.05.2016 18:10 18,1 C 66 % 1002,3 hPa 0,0 l/m 31,1 km/h (5 Bft) O-NO 63 0 min 0,000 mm 0,6 UV-I 184 W/m 11,6 C 11,9 C 45,1 km/h (6 Bft) 100,00 %
11.05.2016 18:11 18,1 C 66 % 1002,2 hPa 0,0 l/m 32,1 km/h (5 Bft) NO 53 0 min 0,000 mm 0,6 UV-I 181 W/m 11,6 C 11,8 C 38,6 km/h (5 Bft) 95,83 %
11.05.2016 18:12 18,1 C 66 % 1002,2 hPa 0,0 l/m 30,4 km/h (5 Bft) O-NO 69 0 min 0,000 mm 0,5 UV-I 180 W/m 11,6 C 12,0 C 40,2 km/h (6 Bft) 100,00 %
11.05.2016 18:13 18,1 C 66 % 1002,2 hPa 0,0 l/m 30,6 km/h (5 Bft) O-NO 65 0 min 0,000 mm 0,5 UV-I 177 W/m 11,6 C 12,0 C 38,6 km/h (5 Bft) 100,00 %
11.05.2016 18:14 18,1 C 66 % 1002,2 hPa 0,0 l/m 29,0 km/h (5 Bft) NO 51 0 min 0,000 mm 0,5 UV-I 172 W/m 11,6 C 12,2 C 38,6 km/h (5 Bft) 100,00 %
11.05.2016 18:15 18,1 C 66 % 1002,2 hPa 0,0 l/m 27,4 km/h (4 Bft) NO 49 0 min 0,000 mm 0,5 UV-I 165 W/m 11,6 C 12,4 C 49,9 km/h (6 Bft) 100,00 %
11.05.2016 18:20 18,0 C 67 % 1002,1 hPa 0,0 l/m 30,6 km/h (5 Bft) O-NO 67 0 min 0,000 mm 0,5 UV-I 154 W/m 11,8 C 11,8 C 48,3 km/h (6 Bft) 97,37 %
11.05.2016 18:22 18,0 C 67 % 1002,1 hPa 0,0 l/m 28,2 km/h (4 Bft) NO 54 0 min 0,000 mm 0,2 UV-I 145 W/m 11,8 C 12,2 C 33,8 km/h (5 Bft) 100,00 %
11.05.2016 18:23 17,9 C 67 % 1002,1 hPa 0,0 l/m 33,1 km/h (5 Bft) O-NO 63 0 min 0,000 mm 0,0 UV-I 133 W/m 11,7 C 11,4 C 40,2 km/h (6 Bft) 100,00 %
11.05.2016 18:24 17,9 C 67 % 1002,1 hPa 0,0 l/m 26,0 km/h (4 Bft) NO 38 0 min 0,000 mm 0,0 UV-I 130 W/m 11,7 C 12,4 C 30,6 km/h (5 Bft) 95,65 %
11.05.2016 18:25 17,9 C 67 % 1002,1 hPa 0,0 l/m 24,1 km/h (4 Bft) O-NO 69 0 min 0,000 mm 0,0 UV-I 126 W/m 11,7 C 12,7 C 32,2 km/h (5 Bft) 100,00 %
11.05.2016 18:26 17,9 C 67 % 1002,2 hPa 0,0 l/m 26,3 km/h (4 Bft) O-NO 76 0 min 0,000 mm 0,0 UV-I 125 W/m 11,7 C 12,3 C 33,8 km/h (5 Bft) 100,00 %
11.05.2016 18:27 17,9 C 67 % 1002,1 hPa 0,0 l/m 25,7 km/h (4 Bft) O-NO 70 0 min 0,000 mm 0,0 UV-I 126 W/m 11,7 C 12,4 C 33,8 km/h (5 Bft) 100,00 %
11.05.2016 18:28 17,8 C 67 % 1002,1 hPa 0,0 l/m 29,9 km/h (5 Bft) N-NO 32 0 min 0,000 mm 0,0 UV-I 131 W/m 11,6 C 11,6 C 37,0 km/h (5 Bft) 100,00 %
11.05.2016 18:29 17,8 C 66 % 1002,1 hPa 0,0 l/m 32,1 km/h (5 Bft) NO 38 0 min 0,000 mm 0,0 UV-I 133 W/m 11,4 C 11,3 C 40,2 km/h (6 Bft) 100,00 %
11.05.2016 18:30 17,8 C 67 % 1002,1 hPa 0,0 l/m 33,3 km/h (5 Bft) NO 42 0 min 0,000 mm 0,0 UV-I 133 W/m 11,6 C 11,2 C 46,7 km/h (6 Bft) 100,00 %
11.05.2016 18:31 17,8 C 66 % 1002,1 hPa 0,0 l/m 32,5 km/h (5 Bft) O-NO 62 0 min 0,000 mm 0,0 UV-I 132 W/m 11,4 C 11,3 C 45,1 km/h (6 Bft) 100,00 %
11.05.2016 18:32 17,8 C 66 % 1002,1 hPa 0,0 l/m 33,1 km/h (5 Bft) O-NO 57 0 min 0,000 mm 0,0 UV-I 128 W/m 11,4 C 11,2 C 45,1 km/h (6 Bft) 100,00 %
11.05.2016 18:33 17,8 C 66 % 1002,1 hPa 0,0 l/m 32,9 km/h (5 Bft) NO 39 0 min 0,000 mm 0,0 UV-I 127 W/m 11,4 C 11,2 C 41,8 km/h (6 Bft) 100,00 %
11.05.2016 18:34 17,8 C 66 % 1002,1 hPa 0,0 l/m 31,7 km/h (5 Bft) O-NO 74 0 min 0,000 mm 0,0 UV-I 126 W/m 11,4 C 11,4 C 43,5 km/h (6 Bft) 93,33 %
11.05.2016 18:35 17,8 C 66 % 1002,1 hPa 0,0 l/m 38,4 km/h (5 Bft) O-NO 60 0 min 0,000 mm 0,0 UV-I 124 W/m 11,4 C 10,6 C 45,1 km/h (6 Bft) 100,00 %
11.05.2016 18:36 17,8 C 66 % 1002,1 hPa 0,0 l/m 31,1 km/h (5 Bft) NO 52 0 min 0,000 mm 0,0 UV-I 123 W/m 11,4 C 11,5 C 37,0 km/h (5 Bft) 100,00 %
11.05.2016 18:37 17,8 C 67 % 1002,1 hPa 0,0 l/m 31,7 km/h (5 Bft) O-NO 65 0 min 0,000 mm 0,0 UV-I 122 W/m 11,6 C 11,4 C 41,8 km/h (6 Bft) 100,00 %
11.05.2016 18:38 17,7 C 67 % 1002,1 hPa 0,0 l/m 26,9 km/h (4 Bft) O-NO 60 0 min 0,000 mm 0,0 UV-I 120 W/m 11,5 C 12,0 C 33,8 km/h (5 Bft) 96,30 %
11.05.2016 18:39 17,7 C 68 % 1002,1 hPa 0,0 l/m 28,2 km/h (4 Bft) O 80 0 min 0,000 mm 0,0 UV-I 118 W/m 11,7 C 11,7 C 37,0 km/h (5 Bft) 100,00 %
11.05.2016 18:40 17,7 C 67 % 1002,1 hPa 0,0 l/m 29,6 km/h (5 Bft) O-NO 63 0 min 0,000 mm 0,0 UV-I 116 W/m 11,5 C 11,5 C 40,2 km/h (6 Bft) 100,00 %
11.05.2016 18:41 17,7 C 67 % 1002,1 hPa 0,0 l/m 26,5 km/h (4 Bft) O-NO 61 0 min 0,000 mm 0,0 UV-I 114 W/m 11,5 C 12,0 C 40,2 km/h (6 Bft) 100,00 %
11.05.2016 18:42 17,7 C 67 % 1002,0 hPa 0,0 l/m 28,8 km/h (4 Bft) NO 55 0 min 0,000 mm 0,0 UV-I 114 W/m 11,5 C 11,7 C 35,4 km/h (5 Bft) 100,00 %
11.05.2016 18:43 17,7 C 67 % 1002,0 hPa 0,0 l/m 27,1 km/h (4 Bft) O 87 0 min 0,000 mm 0,0 UV-I 114 W/m 11,5 C 11,9 C 43,5 km/h (6 Bft) 100,00 %
11.05.2016 18:44 17,7 C 67 % 1002,1 hPa 0,0 l/m 32,6 km/h (5 Bft) O-NO 73 0 min 0,000 mm 0,0 UV-I 114 W/m 11,5 C 11,1 C 40,2 km/h (6 Bft) 100,00 %
11.05.2016 18:45 17,7 C 67 % 1002,1 hPa 0,0 l/m 28,0 km/h (4 Bft) O-NO 59 0 min 0,000 mm 0,0 UV-I 114 W/m 11,5 C 11,8 C 32,2 km/h (5 Bft) 98,68 %
11.05.2016 18:46 17,6 C 67 % 1002,1 hPa 0,0 l/m 28,5 km/h (4 Bft) O-NO 61 0 min 0,000 mm 0,0 UV-I 114 W/m 11,4 C 11,6 C 38,6 km/h (5 Bft) 97,87 %
11.05.2016 18:47 17,6 C 67 % 1002,1 hPa 0,0 l/m 29,5 km/h (5 Bft) O 84 0 min 0,000 mm 0,0 UV-I 114 W/m 11,4 C 11,4 C 37,0 km/h (5 Bft) 100,00 %
11.05.2016 18:48 17,6 C 67 % 1002,1 hPa 0,0 l/m 27,0 km/h (4 Bft) O 82 0 min 0,000 mm 0,0 UV-I 114 W/m 11,4 C 11,8 C 37,0 km/h (5 Bft) 98,68 %
11.05.2016 18:49 17,6 C 67 % 1002,1 hPa 0,0 l/m 26,2 km/h (4 Bft) O 88 0 min 0,000 mm 0,0 UV-I 114 W/m 11,4 C 11,9 C 33,8 km/h (5 Bft) 100,00 %
11.05.2016 18:50 17,6 C 67 % 1002,1 hPa 0,0 l/m 29,3 km/h (5 Bft) NO 53 0 min 0,000 mm 0,0 UV-I 114 W/m 11,4 C 11,4 C 40,2 km/h (6 Bft) 100,00 %
11.05.2016 18:51 17,6 C 67 % 1002,1 hPa 0,0 l/m 21,3 km/h (4 Bft) NO 53 0 min 0,000 mm 0,0 UV-I 114 W/m 11,4 C 12,8 C 30,6 km/h (5 Bft) 100,00 %
11.05.2016 18:52 17,6 C 68 % 1002,0 hPa 0,0 l/m 19,8 km/h (3 Bft) NO 38 0 min 0,000 mm 0,0 UV-I 114 W/m 11,6 C 13,1 C 29,0 km/h (5 Bft) 96,15 %
11.05.2016 18:53 17,6 C 68 % 1002,0 hPa 0,0 l/m 23,0 km/h (4 Bft) O-NO 67 0 min 0,000 mm 0,0 UV-I 114 W/m 11,6 C 12,5 C 33,8 km/h (5 Bft) 100,00 %
11.05.2016 18:54 17,6 C 68 % 1002,1 hPa 0,0 l/m 27,3 km/h (4 Bft) O-NO 65 0 min 0,000 mm 0,0 UV-I 114 W/m 11,6 C 11,7 C 35,4 km/h (5 Bft) 100,00 %
11.05.2016 18:55 17,5 C 68 % 1002,0 hPa 0,0 l/m 33,9 km/h (5 Bft) NO 55 0 min 0,000 mm 0,0 UV-I 113 W/m 11,5 C 10,7 C 40,2 km/h (6 Bft) 100,00 %
11.05.2016 18:56 17,5 C 67 % 1002,0 hPa 0,0 l/m 24,8 km/h (4 Bft) O-NO 58 0 min 0,000 mm 0,0 UV-I 113 W/m 11,3 C 12,0 C 33,8 km/h (5 Bft) 100,00 %
11.05.2016 18:57 17,5 C 68 % 1002,0 hPa 0,0 l/m 23,0 km/h (4 Bft) NO 52 0 min 0,000 mm 0,0 UV-I 111 W/m 11,5 C 12,4 C 33,8 km/h (5 Bft) 100,00 %
11.05.2016 18:58 17,5 C 68 % 1002,1 hPa 0,0 l/m 24,6 km/h (4 Bft) NO 48 0 min 0,000 mm 0,0 UV-I 110 W/m 11,5 C 12,1 C 38,6 km/h (5 Bft) 95,65 %
11.05.2016 18:59 17,5 C 68 % 1002,0 hPa 0,0 l/m 25,7 km/h (4 Bft) NO 42 0 min 0,000 mm 0,0 UV-I 108 W/m 11,5 C 11,9 C 37,0 km/h (5 Bft) 100,00 %
11.05.2016 19:00 17,5 C 69 % 1002,0 hPa 0,0 l/m 22,1 km/h (4 Bft) NO 42 0 min 0,204 mm 0,0 UV-I 106 W/m 11,7 C 12,5 C 27,4 km/h (4 Bft) 98,68 %
11.05.2016 19:01 17,4 C 69 % 1002,0 hPa 0,0 l/m 20,6 km/h (4 Bft) NO 56 0 min 0,000 mm 0,0 UV-I 105 W/m 11,7 C 12,7 C 29,0 km/h (5 Bft) 100,00 %
11.05.2016 19:02 17,4 C 68 % 1002,0 hPa 0,0 l/m 22,1 km/h (4 Bft) NO 50 0 min 0,000 mm 0,0 UV-I 104 W/m 11,4 C 12,4 C 35,4 km/h (5 Bft) 100,00 %
11.05.2016 19:03 17,4 C 68 % 1002,0 hPa 0,0 l/m 21,9 km/h (4 Bft) O-NO 61 0 min 0,000 mm 0,0 UV-I 104 W/m 11,4 C 12,4 C 29,0 km/h (5 Bft) 100,00 %
11.05.2016 19:04 17,4 C 68 % 1002,0 hPa 0,0 l/m 24,4 km/h (4 Bft) O-NO 60 0 min 0,000 mm 0,0 UV-I 103 W/m 11,4 C 12,0 C 30,6 km/h (5 Bft) 100,00 %
11.05.2016 19:05 17,4 C 68 % 1001,9 hPa 0,0 l/m 25,6 km/h (4 Bft) O-NO 73 0 min 0,000 mm 0,0 UV-I 102 W/m 11,4 C 11,8 C 33,8 km/h (5 Bft) 100,00 %
11.05.2016 19:06 17,4 C 68 % 1001,9 hPa 0,0 l/m 22,9 km/h (4 Bft) O 92 0 min 0,000 mm 0,0 UV-I 102 W/m 11,4 C 12,2 C 29,0 km/h (5 Bft) 95,65 %
11.05.2016 19:07 17,4 C 68 % 1002,0 hPa 0,0 l/m 20,8 km/h (4 Bft) O-NO 65 0 min 0,000 mm 0,0 UV-I 98 W/m 11,4 C 12,7 C 29,0 km/h (5 Bft) 100,00 %
11.05.2016 19:08 17,4 C 68 % 1001,9 hPa 0,0 l/m 29,1 km/h (5 Bft) O-NO 77 0 min 0,000 mm 0,0 UV-I 98 W/m 11,4 C 11,2 C 41,8 km/h (6 Bft) 100,00 %
11.05.2016 19:09 17,4 C 67 % 1001,9 hPa 0,0 l/m 26,6 km/h (4 Bft) O-NO 61 0 min 0,000 mm 0,0 UV-I 97 W/m 11,2 C 11,6 C 35,4 km/h (5 Bft) 100,00 %
11.05.2016 19:10 17,4 C 68 % 1002,0 hPa 0,0 l/m 22,4 km/h (4 Bft) NO 36 0 min 0,000 mm 0,0 UV-I 95 W/m 11,4 C 12,3 C 29,0 km/h (5 Bft) 100,00 %
11.05.2016 19:11 17,4 C 68 % 1001,9 hPa 0,0 l/m 23,5 km/h (4 Bft) NO 40 0 min 0,000 mm 0,0 UV-I 93 W/m 11,4 C 12,1 C 32,2 km/h (5 Bft) 100,00 %
11.05.2016 19:12 17,3 C 68 % 1001,9 hPa 0,0 l/m 24,1 km/h (4 Bft) O-NO 57 0 min 0,000 mm 0,0 UV-I 92 W/m 11,3 C 11,9 C 33,8 km/h (5 Bft) 100,00 %
11.05.2016 19:13 17,3 C 67 % 1001,9 hPa 0,0 l/m 29,2 km/h (5 Bft) NO 46 0 min 0,000 mm 0,0 UV-I 90 W/m 11,1 C 11,0 C 37,0 km/h (5 Bft) 100,00 %
11.05.2016 19:14 17,3 C 68 % 1001,9 hPa 0,0 l/m 25,8 km/h (4 Bft) O-NO 61 0 min 0,000 mm 0,0 UV-I 88 W/m 11,3 C 11,6 C 35,4 km/h (5 Bft) 95,83 %
11.05.2016 19:15 17,3 C 68 % 1001,9 hPa 0,0 l/m 22,2 km/h (4 Bft) O 80 0 min 0,000 mm 0,0 UV-I 85 W/m 11,3 C 12,3 C 27,4 km/h (4 Bft) 100,00 %
11.05.2016 19:16 17,3 C 68 % 1001,9 hPa 0,0 l/m 26,0 km/h (4 Bft) O-NO 68 0 min 0,000 mm 0,0 UV-I 84 W/m 11,3 C 11,6 C 35,4 km/h (5 Bft) 100,00 %
11.05.2016 19:17 17,3 C 68 % 1001,9 hPa 0,0 l/m 25,3 km/h (4 Bft) O-NO 68 0 min 0,000 mm 0,0 UV-I 83 W/m 11,3 C 11,7 C 35,4 km/h (5 Bft) 100,00 %
11.05.2016 19:18 17,3 C 68 % 1001,9 hPa 0,0 l/m 27,4 km/h (4 Bft) O 80 0 min 0,000 mm 0,0 UV-I 82 W/m 11,3 C 11,3 C 32,2 km/h (5 Bft) 96,67 %
11.05.2016 19:19 17,2 C 68 % 1001,9 hPa 0,0 l/m 28,5 km/h (4 Bft) NO 40 0 min 0,000 mm 0,0 UV-I 79 W/m 11,2 C 11,0 C 38,6 km/h (5 Bft) 100,00 %
11.05.2016 19:20 17,2 C 68 % 1001,9 hPa 0,0 l/m 25,7 km/h (4 Bft) NO 51 0 min 0,000 mm 0,0 UV-I 79 W/m 11,2 C 11,5 C 32,2 km/h (5 Bft) 91,67 %
11.05.2016 19:21 17,2 C 68 % 1001,9 hPa 0,0 l/m 25,7 km/h (4 Bft) O-NO 57 0 min 0,000 mm 0,0 UV-I 77 W/m 11,2 C 11,5 C 35,4 km/h (5 Bft) 100,00 %
11.05.2016 19:22 17,2 C 68 % 1001,9 hPa 0,0 l/m 31,6 km/h (5 Bft) NO 39 0 min 0,000 mm 0,0 UV-I 75 W/m 11,2 C 10,6 C 40,2 km/h (6 Bft) 95,83 %
11.05.2016 19:23 17,2 C 68 % 1001,9 hPa 0,0 l/m 23,7 km/h (4 Bft) NO 42 0 min 0,000 mm 0,0 UV-I 74 W/m 11,2 C 11,8 C 32,2 km/h (5 Bft) 96,15 %
11.05.2016 19:24 17,2 C 68 % 1001,9 hPa 0,0 l/m 26,3 km/h (4 Bft) NO 36 0 min 0,000 mm 0,0 UV-I 73 W/m 11,2 C 11,4 C 40,2 km/h (6 Bft) 96,30 %
11.05.2016 19:25 17,2 C 68 % 1001,8 hPa 0,0 l/m 27,1 km/h (4 Bft) NO 48 0 min 0,000 mm 0,0 UV-I 72 W/m 11,2 C 11,2 C 35,4 km/h (5 Bft) 95,65 %
11.05.2016 19:26 17,2 C 68 % 1001,9 hPa 0,0 l/m 24,6 km/h (4 Bft) O-NO 67 0 min 0,000 mm 0,0 UV-I 70 W/m 11,2 C 11,7 C 32,2 km/h (5 Bft) 100,00 %
11.05.2016 19:27 17,1 C 68 % 1001,9 hPa 0,0 l/m 23,6 km/h (4 Bft) NO 48 0 min 0,000 mm 0,0 UV-I 69 W/m 11,1 C 11,7 C 30,6 km/h (5 Bft) 96,55 %
11.05.2016 19:28 17,1 C 68 % 1002,0 hPa 0,0 l/m 22,5 km/h (4 Bft) O-NO 70 0 min 0,000 mm 0,0 UV-I 68 W/m 11,1 C 11,9 C 32,2 km/h (5 Bft) 100,00 %
11.05.2016 19:29 17,1 C 68 % 1001,9 hPa 0,0 l/m 25,6 km/h (4 Bft) NO 51 0 min 0,000 mm 0,0 UV-I 67 W/m 11,1 C 11,3 C 30,6 km/h (5 Bft) 96,15 %
11.05.2016 19:30 17,1 C 68 % 1001,9 hPa 0,0 l/m 23,3 km/h (4 Bft) NO 54 0 min 0,000 mm 0,0 UV-I 66 W/m 11,1 C 11,8 C 27,4 km/h (4 Bft) 96,30 %
11.05.2016 19:31 17,1 C 68 % 1001,9 hPa 0,0 l/m 28,6 km/h (4 Bft) O-NO 69 0 min 0,000 mm 0,0 UV-I 65 W/m 11,1 C 10,9 C 38,6 km/h (5 Bft) 100,00 %
11.05.2016 19:32 17,1 C 68 % 1001,9 hPa 0,0 l/m 29,3 km/h (5 Bft) O-NO 70 0 min 0,000 mm 0,0 UV-I 63 W/m 11,1 C 10,7 C 40,2 km/h (6 Bft) 96,15 %
11.05.2016 19:33 17,1 C 68 % 1001,8 hPa 0,0 l/m 19,8 km/h (3 Bft) NO 48 0 min 0,000 mm 0,0 UV-I 62 W/m 11,1 C 12,5 C 24,1 km/h (4 Bft) 100,00 %
11.05.2016 19:34 17,1 C 69 % 1001,8 hPa 0,0 l/m 24,0 km/h (4 Bft) NO 54 0 min 0,000 mm 0,0 UV-I 61 W/m 11,4 C 11,6 C 29,0 km/h (5 Bft) 96,15 %
11.05.2016 19:35 17,0 C 68 % 1001,8 hPa 0,0 l/m 24,2 km/h (4 Bft) NO 50 0 min 0,000 mm 0,0 UV-I 60 W/m 11,0 C 11,5 C 30,6 km/h (5 Bft) 100,00 %
11.05.2016 19:36 17,0 C 69 % 1001,8 hPa 0,0 l/m 19,7 km/h (3 Bft) NO 40 0 min 0,000 mm 0,0 UV-I 58 W/m 11,3 C 12,4 C 25,7 km/h (4 Bft) 96,15 %
11.05.2016 19:37 17,0 C 69 % 1001,8 hPa 0,0 l/m 20,9 km/h (4 Bft) O-NO 61 0 min 0,000 mm 0,0 UV-I 56 W/m 11,3 C 12,1 C 27,4 km/h (4 Bft) 100,00 %
11.05.2016 19:38 16,9 C 69 % 1001,8 hPa 0,0 l/m 21,1 km/h (4 Bft) N-NO 33 0 min 0,000 mm 0,0 UV-I 56 W/m 11,2 C 12,0 C 30,6 km/h (5 Bft) 96,55 %
11.05.2016 19:39 16,9 C 69 % 1001,8 hPa 0,0 l/m 29,9 km/h (5 Bft) NO 49 0 min 0,000 mm 0,0 UV-I 54 W/m 11,2 C 10,4 C 35,4 km/h (5 Bft) 96,30 %
11.05.2016 19:40 16,9 C 69 % 1001,9 hPa 0,0 l/m 29,2 km/h (5 Bft) O-NO 71 0 min 0,000 mm 0,0 UV-I 53 W/m 11,2 C 10,5 C 37,0 km/h (5 Bft) 96,15 %
11.05.2016 19:41 16,9 C 69 % 1001,9 hPa 0,0 l/m 23,7 km/h (4 Bft) O-NO 57 0 min 0,000 mm 0,0 UV-I 52 W/m 11,2 C 11,4 C 29,0 km/h (5 Bft) 93,33 %
11.05.2016 19:42 16,9 C 69 % 1001,8 hPa 0,0 l/m 23,1 km/h (4 Bft) NO 54 0 min 0,000 mm 0,0 UV-I 49 W/m 11,2 C 11,5 C 27,4 km/h (4 Bft) 100,00 %
11.05.2016 19:43 16,9 C 69 % 1001,9 hPa 0,0 l/m 22,6 km/h (4 Bft) O-NO 59 0 min 0,000 mm 0,0 UV-I 47 W/m 11,2 C 11,6 C 29,0 km/h (5 Bft) 95,83 %
11.05.2016 19:44 16,8 C 69 % 1001,9 hPa 0,0 l/m 22,3 km/h (4 Bft) O-NO 65 0 min 0,000 mm 0,0 UV-I 47 W/m 11,1 C 11,6 C 32,2 km/h (5 Bft) 96,15 %
11.05.2016 19:45 16,8 C 69 % 1001,9 hPa 0,0 l/m 27,1 km/h (4 Bft) O-NO 65 0 min 0,000 mm 0,0 UV-I 45 W/m 11,1 C 10,7 C 35,4 km/h (5 Bft) 96,67 %
11.05.2016 19:46 16,8 C 69 % 1001,9 hPa 0,0 l/m 26,0 km/h (4 Bft) O-NO 68 0 min 0,000 mm 0,0 UV-I 43 W/m 11,1 C 10,9 C 33,8 km/h (5 Bft) 100,00 %
11.05.2016 19:47 16,8 C 69 % 1001,9 hPa 0,0 l/m 26,8 km/h (4 Bft) O-NO 69 0 min 0,000 mm 0,0 UV-I 42 W/m 11,1 C 10,7 C 37,0 km/h (5 Bft) 96,15 %
11.05.2016 19:48 16,8 C 69 % 1001,9 hPa 0,0 l/m 27,6 km/h (4 Bft) O-NO 66 0 min 0,000 mm 0,0 UV-I 40 W/m 11,1 C 10,6 C 35,4 km/h (5 Bft) 96,15 %
11.05.2016 19:49 16,8 C 69 % 1001,9 hPa 0,0 l/m 26,3 km/h (4 Bft) NO 42 0 min 0,000 mm 0,0 UV-I 39 W/m 11,1 C 10,8 C 35,4 km/h (5 Bft) 100,00 %
11.05.2016 19:50 16,8 C 69 % 1001,8 hPa 0,0 l/m 23,0 km/h (4 Bft) O 80 0 min 0,000 mm 0,0 UV-I 37 W/m 11,1 C 11,4 C 33,8 km/h (5 Bft) 96,15 %
11.05.2016 19:51 16,8 C 69 % 1001,8 hPa 0,0 l/m 25,6 km/h (4 Bft) O-NO 78 0 min 0,000 mm 0,0 UV-I 36 W/m 11,1 C 10,9 C 32,2 km/h (5 Bft) 100,00 %
11.05.2016 19:52 16,8 C 70 % 1001,8 hPa 0,0 l/m 20,4 km/h (4 Bft) NO 36 0 min 0,000 mm 0,0 UV-I 34 W/m 11,3 C 12,0 C 27,4 km/h (4 Bft) 100,00 %
11.05.2016 19:53 16,8 C 70 % 1001,8 hPa 0,0 l/m 24,2 km/h (4 Bft) O 80 0 min 0,000 mm 0,0 UV-I 33 W/m 11,3 C 11,2 C 30,6 km/h (5 Bft) 100,00 %
11.05.2016 19:54 16,8 C 69 % 1001,8 hPa 0,0 l/m 26,7 km/h (4 Bft) NO 35 0 min 0,000 mm 0,0 UV-I 32 W/m 11,1 C 10,7 C 33,8 km/h (5 Bft) 100,00 %
11.05.2016 19:55 16,8 C 69 % 1001,8 hPa 0,0 l/m 27,4 km/h (4 Bft) O-NO 57 0 min 0,000 mm 0,0 UV-I 30 W/m 11,1 C 10,6 C 32,2 km/h (5 Bft) 100,00 %
11.05.2016 19:56 16,7 C 69 % 1001,8 hPa 0,0 l/m 27,2 km/h (4 Bft) NO 51 0 min 0,000 mm 0,0 UV-I 29 W/m 11,0 C 10,5 C 37,0 km/h (5 Bft) 100,00 %
11.05.2016 19:57 16,7 C 69 % 1001,8 hPa 0,0 l/m 28,9 km/h (5 Bft) N-NO 32 0 min 0,000 mm 0,0 UV-I 27 W/m 11,0 C 10,2 C 37,0 km/h (5 Bft) 100,00 %
11.05.2016 19:58 16,7 C 70 % 1001,8 hPa 0,0 l/m 23,3 km/h (4 Bft) NO 51 0 min 0,000 mm 0,0 UV-I 26 W/m 11,2 C 11,2 C 27,4 km/h (4 Bft) 100,00 %
11.05.2016 19:59 16,7 C 70 % 1001,8 hPa 0,0 l/m 22,0 km/h (4 Bft) NO 40 0 min 0,000 mm 0,0 UV-I 25 W/m 11,2 C 11,5 C 29,0 km/h (5 Bft) 91,30 %
11.05.2016 20:00 16,7 C 70 % 1001,7 hPa 0,0 l/m 24,5 km/h (4 Bft) O-NO 57 0 min 0,000 mm 0,0 UV-I 25 W/m 11,2 C 11,0 C 37,0 km/h (5 Bft) 100,00 %
11.05.2016 20:02 16,7 C 70 % 1001,7 hPa 0,0 l/m 21,6 km/h (4 Bft) NO 47 0 min 0,127 mm 0,0 UV-I 23 W/m 11,2 C 11,6 C 33,8 km/h (5 Bft) 100,00 %
11.05.2016 20:03 16,7 C 70 % 1001,7 hPa 0,0 l/m 24,0 km/h (4 Bft) O-NO 59 0 min 0,000 mm 0,0 UV-I 21 W/m 11,2 C 11,1 C 32,2 km/h (5 Bft) 95,65 %
11.05.2016 20:04 16,6 C 70 % 1001,7 hPa 0,0 l/m 25,2 km/h (4 Bft) O-NO 76 0 min 0,000 mm 0,0 UV-I 20 W/m 11,1 C 10,7 C 38,6 km/h (5 Bft) 100,00 %
11.05.2016 20:05 16,6 C 70 % 1001,7 hPa 0,0 l/m 26,5 km/h (4 Bft) N-NO 28 0 min 0,000 mm 0,0 UV-I 19 W/m 11,1 C 10,5 C 33,8 km/h (5 Bft) 100,00 %
11.05.2016 20:06 16,6 C 70 % 1001,6 hPa 0,0 l/m 22,4 km/h (4 Bft) NO 40 0 min 0,000 mm 0,0 UV-I 18 W/m 11,1 C 11,3 C 30,6 km/h (5 Bft) 94,44 %
11.05.2016 20:07 16,6 C 71 % 1001,6 hPa 0,0 l/m 23,1 km/h (4 Bft) O-NO 61 0 min 0,000 mm 0,0 UV-I 18 W/m 11,3 C 11,1 C 32,2 km/h (5 Bft) 96,15 %
11.05.2016 20:08 16,6 C 71 % 1001,7 hPa 0,0 l/m 20,6 km/h (4 Bft) NO 47 0 min 0,000 mm 0,0 UV-I 16 W/m 11,3 C 11,7 C 30,6 km/h (5 Bft) 100,00 %
11.05.2016 20:09 16,6 C 71 % 1001,7 hPa 0,0 l/m 23,3 km/h (4 Bft) O-NO 66 0 min 0,000 mm 0,0 UV-I 15 W/m 11,3 C 11,1 C 30,6 km/h (5 Bft) 100,00 %
11.05.2016 20:10 16,5 C 71 % 1001,7 hPa 0,0 l/m 21,3 km/h (4 Bft) O-NO 57 0 min 0,000 mm 0,0 UV-I 14 W/m 11,2 C 11,4 C 29,0 km/h (5 Bft) 96,43 %
11.05.2016 20:11 16,5 C 71 % 1001,7 hPa 0,0 l/m 17,3 km/h (3 Bft) O-NO 67 0 min 0,000 mm 0,0 UV-I 14 W/m 11,2 C 12,4 C 25,7 km/h (4 Bft) 100,00 %
11.05.2016 20:12 16,5 C 71 % 1001,7 hPa 0,0 l/m 26,3 km/h (4 Bft) O-NO 57 0 min 0,000 mm 0,0 UV-I 12 W/m 11,2 C 10,4 C 33,8 km/h (5 Bft) 100,00 %
11.05.2016 20:13 16,4 C 71 % 1001,6 hPa 0,0 l/m 26,6 km/h (4 Bft) NO 55 0 min 0,000 mm 0,0 UV-I 12 W/m 11,1 C 10,2 C 43,5 km/h (6 Bft) 100,00 %
11.05.2016 20:14 16,4 C 71 % 1001,7 hPa 0,0 l/m 23,5 km/h (4 Bft) O-NO 59 0 min 0,000 mm 0,0 UV-I 11 W/m 11,1 C 10,8 C 32,2 km/h (5 Bft) 100,00 %
11.05.2016 20:15 16,4 C 71 % 1001,7 hPa 0,0 l/m 24,1 km/h (4 Bft) NO 44 0 min 0,000 mm 0,0 UV-I 11 W/m 11,1 C 10,7 C 33,8 km/h (5 Bft) 100,00 %
11.05.2016 20:16 16,4 C 71 % 1001,6 hPa 0,0 l/m 26,2 km/h (4 Bft) O-NO 63 0 min 0,000 mm 0,0 UV-I 10 W/m 11,1 C 10,3 C 32,2 km/h (5 Bft) 100,00 %
11.05.2016 20:17 16,4 C 71 % 1001,6 hPa 0,0 l/m 23,4 km/h (4 Bft) NO 51 0 min 0,000 mm 0,0 UV-I 9 W/m 11,1 C 10,8 C 27,4 km/h (4 Bft) 100,00 %
11.05.2016 20:18 16,4 C 71 % 1001,6 hPa 0,0 l/m 23,3 km/h (4 Bft) O-NO 62 0 min 0,000 mm 0,0 UV-I 9 W/m 11,1 C 10,8 C 29,0 km/h (5 Bft) 96,15 %
11.05.2016 20:19 16,4 C 71 % 1001,6 hPa 0,0 l/m 26,5 km/h (4 Bft) O-NO 62 0 min 0,000 mm 0,0 UV-I 7 W/m 11,1 C 10,2 C 35,4 km/h (5 Bft) 100,00 %
11.05.2016 20:20 16,3 C 71 % 1001,6 hPa 0,0 l/m 18,7 km/h (3 Bft) NO 55 0 min 0,000 mm 0,0 UV-I 7 W/m 11,0 C 11,7 C 29,0 km/h (5 Bft) 96,15 %
11.05.2016 20:21 16,3 C 72 % 1001,6 hPa 0,0 l/m 19,8 km/h (3 Bft) O-NO 59 0 min 0,000 mm 0,0 UV-I 7 W/m 11,2 C 11,5 C 25,7 km/h (4 Bft) 100,00 %
11.05.2016 20:22 16,3 C 72 % 1001,6 hPa 0,0 l/m 25,3 km/h (4 Bft) NO 55 0 min 0,000 mm 0,0 UV-I 6 W/m 11,2 C 10,3 C 32,2 km/h (5 Bft) 100,00 %
11.05.2016 20:23 16,3 C 72 % 1001,6 hPa 0,0 l/m 22,6 km/h (4 Bft) O-NO 59 0 min 0,000 mm 0,0 UV-I 5 W/m 11,2 C 10,8 C 30,6 km/h (5 Bft) 100,00 %
11.05.2016 20:24 16,3 C 72 % 1001,7 hPa 0,0 l/m 16,2 km/h (3 Bft) O-NO 61 0 min 0,000 mm 0,0 UV-I 5 W/m 11,2 C 12,4 C 20,9 km/h (4 Bft) 100,00 %
11.05.2016 20:25 16,3 C 72 % 1001,7 hPa 0,0 l/m 16,2 km/h (3 Bft) NO 41 0 min 0,000 mm 0,0 UV-I 5 W/m 11,2 C 12,4 C 20,9 km/h (4 Bft) 100,00 %
11.05.2016 20:26 16,3 C 72 % 1001,6 hPa 0,0 l/m 17,3 km/h (3 Bft) O-NO 65 0 min 0,000 mm 0,0 UV-I 5 W/m 11,2 C 12,1 C 27,4 km/h (4 Bft) 100,00 %
11.05.2016 20:27 16,3 C 72 % 1001,7 hPa 0,0 l/m 9,9 km/h (2 Bft) O-NO 74 0 min 0,000 mm 0,0 UV-I 2 W/m 11,2 C 14,6 C 12,9 km/h (3 Bft) 95,83 %
11.05.2016 20:28 16,2 C 72 % 1001,7 hPa 0,0 l/m 14,6 km/h (3 Bft) O-NO 78 0 min 0,000 mm 0,0 UV-I 0 W/m 11,1 C 12,8 C 19,3 km/h (3 Bft) 100,00 %
11.05.2016 20:29 16,2 C 73 % 1001,7 hPa 0,0 l/m 15,9 km/h (3 Bft) O-NO 59 0 min 0,000 mm 0,0 UV-I 0 W/m 11,4 C 12,4 C 20,9 km/h (4 Bft) 100,00 %
11.05.2016 20:30 16,2 C 73 % 1001,6 hPa 0,0 l/m 13,4 km/h (3 Bft) NO 49 0 min 0,000 mm 0,0 UV-I 0 W/m 11,4 C 13,2 C 19,3 km/h (3 Bft) 100,00 %
11.05.2016 20:31 16,2 C 73 % 1001,6 hPa 0,0 l/m 12,5 km/h (3 Bft) O-NO 69 0 min 0,000 mm 0,0 UV-I 0 W/m 11,4 C 13,5 C 17,7 km/h (3 Bft) 95,65 %
11.05.2016 20:32 16,1 C 73 % 1001,6 hPa 0,0 l/m 18,2 km/h (3 Bft) O-NO 74 0 min 0,000 mm 0,0 UV-I 0 W/m 11,3 C 11,6 C 25,7 km/h (4 Bft) 96,30 %
11.05.2016 20:33 16,1 C 73 % 1001,6 hPa 0,0 l/m 19,0 km/h (3 Bft) NO 53 0 min 0,000 mm 0,0 UV-I 0 W/m 11,3 C 11,4 C 24,1 km/h (4 Bft) 100,00 %
11.05.2016 20:34 16,1 C 73 % 1001,6 hPa 0,0 l/m 15,5 km/h (3 Bft) N-NO 32 0 min 0,000 mm 0,0 UV-I 0 W/m 11,3 C 12,4 C 20,9 km/h (4 Bft) 100,00 %
11.05.2016 20:35 16,1 C 73 % 1001,6 hPa 0,0 l/m 22,5 km/h (4 Bft) NO 47 0 min 0,000 mm 0,0 UV-I 0 W/m 11,3 C 10,6 C 27,4 km/h (4 Bft) 100,00 %
11.05.2016 20:36 16,0 C 73 % 1001,6 hPa 0,0 l/m 19,6 km/h (3 Bft) NO 53 0 min 0,000 mm 0,0 UV-I 0 W/m 11,2 C 11,1 C 29,0 km/h (5 Bft) 96,30 %
11.05.2016 20:37 16,0 C 73 % 1001,6 hPa 0,0 l/m 16,3 km/h (3 Bft) NO 55 0 min 0,000 mm 0,0 UV-I 0 W/m 11,2 C 12,0 C 19,3 km/h (3 Bft) 100,00 %
11.05.2016 20:38 16,0 C 73 % 1001,6 hPa 0,0 l/m 19,2 km/h (3 Bft) NO 55 0 min 0,000 mm 0,0 UV-I 0 W/m 11,2 C 11,2 C 27,4 km/h (4 Bft) 100,00 %
11.05.2016 20:39 16,0 C 73 % 1001,6 hPa 0,0 l/m 18,8 km/h (3 Bft) O-NO 69 0 min 0,000 mm 0,0 UV-I 0 W/m 11,2 C 11,3 C 24,1 km/h (4 Bft) 95,65 %
11.05.2016 20:40 15,9 C 73 % 1001,6 hPa 0,0 l/m 15,6 km/h (3 Bft) N-NO 26 0 min 0,000 mm 0,0 UV-I 0 W/m 11,1 C 12,1 C 25,7 km/h (4 Bft) 100,00 %
11.05.2016 20:41 15,9 C 73 % 1001,6 hPa 0,0 l/m 18,3 km/h (3 Bft) O-NO 63 0 min 0,000 mm 0,0 UV-I 0 W/m 11,1 C 11,3 C 24,1 km/h (4 Bft) 100,00 %
11.05.2016 20:42 15,9 C 73 % 1001,5 hPa 0,0 l/m 20,8 km/h (4 Bft) O-NO 69 0 min 0,000 mm 0,0 UV-I 0 W/m 11,1 C 10,7 C 25,7 km/h (4 Bft) 100,00 %
11.05.2016 20:43 15,9 C 73 % 1001,6 hPa 0,0 l/m 24,9 km/h (4 Bft) O-NO 57 0 min 0,000 mm 0,0 UV-I 0 W/m 11,1 C 9,8 C 30,6 km/h (5 Bft) 100,00 %
11.05.2016 20:44 15,9 C 73 % 1001,6 hPa 0,0 l/m 29,1 km/h (5 Bft) O-NO 72 0 min 0,000 mm 0,0 UV-I 0 W/m 11,1 C 9,1 C 37,0 km/h (5 Bft) 100,00 %
11.05.2016 20:45 15,9 C 73 % 1001,6 hPa 0,0 l/m 21,9 km/h (4 Bft) O 84 0 min 0,000 mm 0,0 UV-I 0 W/m 11,1 C 10,5 C 30,6 km/h (5 Bft) 100,00 %
11.05.2016 20:46 15,9 C 73 % 1001,5 hPa 0,0 l/m 21,9 km/h (4 Bft) NO 36 0 min 0,000 mm 0,0 UV-I 0 W/m 11,1 C 10,5 C 27,4 km/h (4 Bft) 100,00 %
11.05.2016 20:47 15,9 C 73 % 1001,6 hPa 0,0 l/m 22,0 km/h (4 Bft) NO 48 0 min 0,000 mm 0,0 UV-I 0 W/m 11,1 C 10,4 C 27,4 km/h (4 Bft) 100,00 %
11.05.2016 20:48 15,9 C 74 % 1001,6 hPa 0,0 l/m 20,3 km/h (4 Bft) NO 55 0 min 0,000 mm 0,0 UV-I 0 W/m 11,3 C 10,8 C 27,4 km/h (4 Bft) 100,00 %
11.05.2016 20:49 15,8 C 73 % 1001,5 hPa 0,0 l/m 24,1 km/h (4 Bft) O-NO 62 0 min 0,000 mm 0,0 UV-I 0 W/m 11,0 C 9,9 C 33,8 km/h (5 Bft) 96,30 %
11.05.2016 20:50 15,8 C 73 % 1001,5 hPa 0,0 l/m 18,3 km/h (3 Bft) NO 44 0 min 0,000 mm 0,0 UV-I 0 W/m 11,0 C 11,2 C 25,7 km/h (4 Bft) 95,65 %
11.05.2016 20:51 15,8 C 73 % 1001,5 hPa 0,0 l/m 19,2 km/h (3 Bft) NO 53 0 min 0,000 mm 0,0 UV-I 0 W/m 11,0 C 11,0 C 25,7 km/h (4 Bft) 100,00 %
11.05.2016 20:52 15,8 C 73 % 1001,5 hPa 0,0 l/m 23,3 km/h (4 Bft) O-NO 62 0 min 0,000 mm 0,0 UV-I 0 W/m 11,0 C 10,0 C 29,0 km/h (5 Bft) 100,00 %
11.05.2016 20:53 15,8 C 74 % 1001,5 hPa 0,0 l/m 22,7 km/h (4 Bft) O-NO 62 0 min 0,000 mm 0,0 UV-I 0 W/m 11,2 C 10,2 C 30,6 km/h (5 Bft) 96,67 %
11.05.2016 20:54 15,8 C 74 % 1001,5 hPa 0,0 l/m 23,6 km/h (4 Bft) O-NO 74 0 min 0,000 mm 0,0 UV-I 0 W/m 11,2 C 10,0 C 32,2 km/h (5 Bft) 100,00 %
11.05.2016 20:55 15,8 C 73 % 1001,5 hPa 0,0 l/m 19,6 km/h (3 Bft) NO 52 0 min 0,000 mm 0,0 UV-I 0 W/m 11,0 C 10,9 C 30,6 km/h (5 Bft) 100,00 %
11.05.2016 20:56 15,8 C 73 % 1001,5 hPa 0,0 l/m 17,8 km/h (3 Bft) O-NO 66 0 min 0,000 mm 0,0 UV-I 0 W/m 11,0 C 11,3 C 29,0 km/h (5 Bft) 100,00 %
11.05.2016 20:57 15,8 C 74 % 1001,6 hPa 0,0 l/m 20,7 km/h (4 Bft) O-NO 61 0 min 0,000 mm 0,0 UV-I 0 W/m 11,2 C 10,6 C 32,2 km/h (5 Bft) 100,00 %
11.05.2016 20:58 15,8 C 74 % 1001,5 hPa 0,0 l/m 17,8 km/h (3 Bft) NO 34 0 min 0,000 mm 0,0 UV-I 0 W/m 11,2 C 11,3 C 22,5 km/h (4 Bft) 100,00 %
11.05.2016 20:59 15,7 C 74 % 1001,4 hPa 0,0 l/m 14,4 km/h (3 Bft) O-NO 58 0 min 0,000 mm 0,0 UV-I 0 W/m 11,1 C 12,2 C 20,9 km/h (4 Bft) 100,00 %
11.05.2016 21:00 15,7 C 74 % 1001,4 hPa 0,0 l/m 18,9 km/h (3 Bft) O-NO 72 0 min 0,000 mm 0,0 UV-I 0 W/m 11,1 C 10,9 C 29,0 km/h (5 Bft) 100,00 %
11.05.2016 21:01 15,7 C 74 % 1001,5 hPa 0,0 l/m 21,6 km/h (4 Bft) N-NO 22 0 min 0,076 mm 0,0 UV-I 0 W/m 11,1 C 10,3 C 27,4 km/h (4 Bft) 100,00 %
11.05.2016 21:02 15,7 C 74 % 1001,4 hPa 0,0 l/m 14,0 km/h (3 Bft) O-NO 69 0 min 0,000 mm 0,0 UV-I 0 W/m 11,1 C 12,4 C 20,9 km/h (4 Bft) 100,00 %
11.05.2016 21:03 15,7 C 74 % 1001,5 hPa 0,0 l/m 23,2 km/h (4 Bft) O-NO 73 0 min 0,000 mm 0,0 UV-I 0 W/m 11,1 C 9,9 C 35,4 km/h (5 Bft) 100,00 %
11.05.2016 21:04 15,7 C 74 % 1001,4 hPa 0,0 l/m 18,7 km/h (3 Bft) NO 56 0 min 0,000 mm 0,0 UV-I 0 W/m 11,1 C 11,0 C 24,1 km/h (4 Bft) 100,00 %
11.05.2016 21:05 15,7 C 74 % 1001,4 hPa 0,0 l/m 23,1 km/h (4 Bft) NO 54 0 min 0,000 mm 0,0 UV-I 0 W/m 11,1 C 9,9 C 25,7 km/h (4 Bft) 100,00 %
11.05.2016 21:06 15,7 C 74 % 1001,4 hPa 0,0 l/m 22,6 km/h (4 Bft) O-NO 58 0 min 0,000 mm 0,0 UV-I 0 W/m 11,1 C 10,1 C 30,6 km/h (5 Bft) 100,00 %
11.05.2016 21:07 15,6 C 74 % 1001,4 hPa 0,0 l/m 17,3 km/h (3 Bft) NO 49 0 min 0,000 mm 0,0 UV-I 0 W/m 11,0 C 11,2 C 25,7 km/h (4 Bft) 100,00 %
11.05.2016 21:08 15,6 C 75 % 1001,4 hPa 0,0 l/m 23,0 km/h (4 Bft) NO 49 0 min 0,000 mm 0,0 UV-I 0 W/m 11,2 C 9,8 C 33,8 km/h (5 Bft) 100,00 %
11.05.2016 21:09 15,6 C 74 % 1001,4 hPa 0,0 l/m 19,9 km/h (4 Bft) NO 55 0 min 0,000 mm 0,0 UV-I 0 W/m 11,0 C 10,5 C 27,4 km/h (4 Bft) 100,00 %
11.05.2016 21:10 15,6 C 75 % 1001,5 hPa 0,0 l/m 17,3 km/h (3 Bft) O-NO 61 0 min 0,000 mm 0,0 UV-I 0 W/m 11,2 C 11,2 C 22,5 km/h (4 Bft) 100,00 %
11.05.2016 21:11 15,6 C 75 % 1001,4 hPa 0,0 l/m 23,6 km/h (4 Bft) NO 49 0 min 0,000 mm 0,0 UV-I 0 W/m 11,2 C 9,7 C 33,8 km/h (5 Bft) 96,15 %
11.05.2016 21:12 15,6 C 75 % 1001,5 hPa 0,0 l/m 14,4 km/h (3 Bft) O-NO 61 0 min 0,000 mm 0,0 UV-I 0 W/m 11,2 C 12,1 C 25,7 km/h (4 Bft) 94,44 %
11.05.2016 21:13 15,6 C 75 % 1001,5 hPa 0,0 l/m 17,3 km/h (3 Bft) NO 34 0 min 0,000 mm 0,0 UV-I 0 W/m 11,2 C 11,2 C 22,5 km/h (4 Bft) 100,00 %
11.05.2016 21:14 15,6 C 75 % 1001,5 hPa 0,0 l/m 18,5 km/h (3 Bft) O-NO 63 0 min 0,000 mm 0,0 UV-I 0 W/m 11,2 C 10,9 C 27,4 km/h (4 Bft) 96,67 %
11.05.2016 21:15 15,5 C 75 % 1001,4 hPa 0,0 l/m 21,4 km/h (4 Bft) O-NO 58 0 min 0,000 mm 0,0 UV-I 0 W/m 11,1 C 10,1 C 27,4 km/h (4 Bft) 100,00 %
11.05.2016 21:16 15,5 C 75 % 1001,4 hPa 0,0 l/m 18,5 km/h (3 Bft) O-NO 76 0 min 0,000 mm 0,0 UV-I 0 W/m 11,1 C 10,8 C 24,1 km/h (4 Bft) 96,30 %
11.05.2016 21:17 15,5 C 75 % 1001,4 hPa 0,0 l/m 19,3 km/h (3 Bft) NO 40 0 min 0,000 mm 0,0 UV-I 0 W/m 11,1 C 10,6 C 30,6 km/h (5 Bft) 100,00 %
11.05.2016 21:18 15,5 C 75 % 1001,4 hPa 0,0 l/m 14,1 km/h (3 Bft) NO 49 0 min 0,000 mm 0,0 UV-I 0 W/m 11,1 C 12,1 C 20,9 km/h (4 Bft) 91,67 %
11.05.2016 21:19 15,4 C 75 % 1001,4 hPa 0,0 l/m 13,7 km/h (3 Bft) NO 51 0 min 0,000 mm 0,0 UV-I 0 W/m 11,0 C 12,1 C 19,3 km/h (3 Bft) 93,33 %
11.05.2016 21:20 15,4 C 75 % 1001,4 hPa 0,0 l/m 11,8 km/h (2 Bft) O-NO 69 0 min 0,000 mm 0,0 UV-I 0 W/m 11,0 C 12,8 C 16,1 km/h (3 Bft) 97,73 %
11.05.2016 21:21 15,4 C 75 % 1001,4 hPa 0,0 l/m 18,4 km/h (3 Bft) O-NO 60 0 min 0,000 mm 0,0 UV-I 0 W/m 11,0 C 10,7 C 24,1 km/h (4 Bft) 100,00 %
11.05.2016 21:22 15,4 C 75 % 1001,4 hPa 0,0 l/m 18,5 km/h (3 Bft) NO 54 0 min 0,000 mm 0,0 UV-I 0 W/m 11,0 C 10,7 C 27,4 km/h (4 Bft) 96,67 %
11.05.2016 21:23 15,4 C 75 % 1001,4 hPa 0,0 l/m 13,8 km/h (3 Bft) NO 44 0 min 0,000 mm 0,0 UV-I 0 W/m 11,0 C 12,1 C 19,3 km/h (3 Bft) 96,15 %
11.05.2016 21:24 15,3 C 76 % 1001,4 hPa 0,0 l/m 17,0 km/h (3 Bft) NO 48 0 min 0,000 mm 0,0 UV-I 0 W/m 11,1 C 10,9 C 20,9 km/h (4 Bft) 100,00 %
11.05.2016 21:25 15,3 C 76 % 1001,4 hPa 0,0 l/m 18,5 km/h (3 Bft) O-NO 59 0 min 0,000 mm 0,0 UV-I 0 W/m 11,1 C 10,5 C 24,1 km/h (4 Bft) 91,67 %
11.05.2016 21:26 15,3 C 76 % 1001,4 hPa 0,0 l/m 16,6 km/h (3 Bft) NO 47 0 min 0,000 mm 0,0 UV-I 0 W/m 11,1 C 11,1 C 22,5 km/h (4 Bft) 100,00 %
11.05.2016 21:27 15,3 C 76 % 1001,4 hPa 0,0 l/m 14,8 km/h (3 Bft) N-NO 15 0 min 0,000 mm 0,0 UV-I 0 W/m 11,1 C 11,6 C 20,9 km/h (4 Bft) 95,83 %
11.05.2016 21:28 15,3 C 76 % 1001,4 hPa 0,0 l/m 15,8 km/h (3 Bft) NO 40 0 min 0,000 mm 0,0 UV-I 0 W/m 11,1 C 11,3 C 19,3 km/h (3 Bft) 100,00 %
11.05.2016 21:29 15,3 C 76 % 1001,3 hPa 0,0 l/m 18,3 km/h (3 Bft) NO 44 0 min 0,000 mm 0,0 UV-I 0 W/m 11,1 C 10,6 C 24,1 km/h (4 Bft) 95,83 %
11.05.2016 21:30 15,3 C 76 % 1001,4 hPa 0,0 l/m 18,1 km/h (3 Bft) NO 56 0 min 0,000 mm 0,0 UV-I 0 W/m 11,1 C 10,6 C 22,5 km/h (4 Bft) 98,66 %
11.05.2016 21:31 15,2 C 76 % 1001,4 hPa 0,0 l/m 18,9 km/h (3 Bft) NO 50 0 min 0,000 mm 0,0 UV-I 0 W/m 11,0 C 10,3 C 22,5 km/h (4 Bft) 97,73 %
11.05.2016 21:32 15,2 C 76 % 1001,3 hPa 0,0 l/m 21,5 km/h (4 Bft) O 81 0 min 0,000 mm 0,0 UV-I 0 W/m 11,0 C 9,6 C 27,4 km/h (4 Bft) 96,15 %
11.05.2016 21:33 15,2 C 76 % 1001,3 hPa 0,0 l/m 19,5 km/h (3 Bft) NO 40 0 min 0,000 mm 0,0 UV-I 0 W/m 11,0 C 10,1 C 22,5 km/h (4 Bft) 100,00 %
11.05.2016 21:34 15,2 C 76 % 1001,3 hPa 0,0 l/m 12,8 km/h (3 Bft) O-NO 57 0 min 0,000 mm 0,0 UV-I 0 W/m 11,0 C 12,2 C 22,5 km/h (4 Bft) 94,12 %
11.05.2016 21:35 15,2 C 76 % 1001,3 hPa 0,0 l/m 18,3 km/h (3 Bft) O-NO 69 0 min 0,000 mm 0,0 UV-I 0 W/m 11,0 C 10,5 C 24,1 km/h (4 Bft) 100,00 %
11.05.2016 21:36 15,2 C 76 % 1001,3 hPa 0,0 l/m 17,4 km/h (3 Bft) O-NO 64 0 min 0,000 mm 0,0 UV-I 0 W/m 11,0 C 10,7 C 22,5 km/h (4 Bft) 95,65 %
11.05.2016 21:37 15,2 C 76 % 1001,3 hPa 0,0 l/m 20,2 km/h (4 Bft) NO 45 0 min 0,000 mm 0,0 UV-I 0 W/m 11,0 C 10,0 C 29,0 km/h (5 Bft) 96,30 %
11.05.2016 21:38 15,2 C 76 % 1001,3 hPa 0,0 l/m 15,9 km/h (3 Bft) NO 46 0 min 0,000 mm 0,0 UV-I 0 W/m 11,0 C 11,1 C 22,5 km/h (4 Bft) 95,65 %
11.05.2016 21:39 15,2 C 77 % 1001,3 hPa 0,0 l/m 17,4 km/h (3 Bft) NO 38 0 min 0,000 mm 0,0 UV-I 0 W/m 11,2 C 10,7 C 24,1 km/h (4 Bft) 95,83 %
11.05.2016 21:40 15,1 C 77 % 1001,3 hPa 0,0 l/m 15,8 km/h (3 Bft) O-NO 64 0 min 0,000 mm 0,0 UV-I 0 W/m 11,1 C 11,1 C 19,3 km/h (3 Bft) 100,00 %
11.05.2016 21:41 15,1 C 77 % 1001,2 hPa 0,0 l/m 15,4 km/h (3 Bft) NO 48 0 min 0,000 mm 0,0 UV-I 0 W/m 11,1 C 11,2 C 19,3 km/h (3 Bft) 91,67 %
11.05.2016 21:42 15,1 C 77 % 1001,2 hPa 0,0 l/m 18,7 km/h (3 Bft) NO 55 0 min 0,000 mm 0,0 UV-I 0 W/m 11,1 C 10,2 C 25,7 km/h (4 Bft) 98,64 %
11.05.2016 21:43 15,1 C 77 % 1001,3 hPa 0,0 l/m 16,0 km/h (3 Bft) NO 40 0 min 0,000 mm 0,0 UV-I 0 W/m 11,1 C 11,0 C 20,9 km/h (4 Bft) 97,56 %
11.05.2016 21:44 15,1 C 77 % 1001,2 hPa 0,0 l/m 15,4 km/h (3 Bft) NO 48 0 min 0,000 mm 0,0 UV-I 0 W/m 11,1 C 11,2 C 20,9 km/h (4 Bft) 100,00 %
11.05.2016 21:45 15,1 C 77 % 1001,2 hPa 0,0 l/m 19,0 km/h (3 Bft) O-NO 59 0 min 0,000 mm 0,0 UV-I 0 W/m 11,1 C 10,1 C 24,1 km/h (4 Bft) 93,33 %
11.05.2016 21:46 15,1 C 77 % 1001,2 hPa 0,0 l/m 17,9 km/h (3 Bft) NO 52 0 min 0,000 mm 0,0 UV-I 0 W/m 11,1 C 10,4 C 29,0 km/h (5 Bft) 100,00 %
11.05.2016 21:47 15,1 C 77 % 1001,2 hPa 0,0 l/m 19,8 km/h (3 Bft) NO 47 0 min 0,000 mm 0,0 UV-I 0 W/m 11,1 C 9,9 C 25,7 km/h (4 Bft) 96,15 %
11.05.2016 21:48 15,1 C 77 % 1001,2 hPa 0,0 l/m 16,5 km/h (3 Bft) NO 51 0 min 0,000 mm 0,0 UV-I 0 W/m 11,1 C 10,8 C 25,7 km/h (4 Bft) 92,31 %
11.05.2016 21:49 15,0 C 77 % 1001,2 hPa 0,0 l/m 12,6 km/h (3 Bft) NO 56 0 min 0,000 mm 0,0 UV-I 0 W/m 11,0 C 12,0 C 17,7 km/h (3 Bft) 100,00 %
11.05.2016 21:50 15,0 C 77 % 1001,2 hPa 0,0 l/m 14,6 km/h (3 Bft) O-NO 71 0 min 0,000 mm 0,0 UV-I 0 W/m 11,0 C 11,3 C 20,9 km/h (4 Bft) 100,00 %
11.05.2016 21:51 15,0 C 77 % 1001,1 hPa 0,0 l/m 15,7 km/h (3 Bft) NO 38 0 min 0,000 mm 0,0 UV-I 0 W/m 11,0 C 11,0 C 20,9 km/h (4 Bft) 100,00 %
11.05.2016 21:52 15,0 C 77 % 1001,2 hPa 0,0 l/m 19,4 km/h (3 Bft) NO 43 0 min 0,000 mm 0,0 UV-I 0 W/m 11,0 C 9,9 C 27,4 km/h (4 Bft) 100,00 %
11.05.2016 21:53 14,9 C 77 % 1001,1 hPa 0,0 l/m 20,4 km/h (4 Bft) O-NO 57 0 min 0,000 mm 0,0 UV-I 0 W/m 10,9 C 9,5 C 30,6 km/h (5 Bft) 100,00 %
11.05.2016 21:54 14,9 C 77 % 1001,1 hPa 0,0 l/m 19,4 km/h (3 Bft) NO 43 0 min 0,000 mm 0,0 UV-I 0 W/m 10,9 C 9,8 C 25,7 km/h (4 Bft) 100,00 %
11.05.2016 21:55 14,9 C 78 % 1001,1 hPa 0,0 l/m 22,5 km/h (4 Bft) O-NO 65 0 min 0,000 mm 0,0 UV-I 0 W/m 11,1 C 9,0 C 29,0 km/h (5 Bft) 95,65 %
11.05.2016 21:56 14,9 C 77 % 1001,1 hPa 0,0 l/m 16,2 km/h (3 Bft) NO 40 0 min 0,000 mm 0,0 UV-I 0 W/m 10,9 C 10,7 C 29,0 km/h (5 Bft) 95,83 %
11.05.2016 21:57 14,9 C 77 % 1001,1 hPa 0,0 l/m 16,6 km/h (3 Bft) NO 56 0 min 0,000 mm 0,0 UV-I 0 W/m 10,9 C 10,6 C 20,9 km/h (4 Bft) 98,63 %
11.05.2016 21:58 14,9 C 77 % 1001,0 hPa 0,0 l/m 17,1 km/h (3 Bft) NO 44 0 min 0,000 mm 0,0 UV-I 0 W/m 10,9 C 10,4 C 24,1 km/h (4 Bft) 97,73 %
11.05.2016 21:59 14,9 C 77 % 1001,1 hPa 0,0 l/m 16,6 km/h (3 Bft) N-NO 24 0 min 0,000 mm 0,0 UV-I 0 W/m 10,9 C 10,6 C 20,9 km/h (4 Bft) 100,00 %
11.05.2016 22:00 14,9 C 78 % 1001,0 hPa 0,0 l/m 14,9 km/h (3 Bft) O-NO 58 0 min 0,000 mm 0,0 UV-I 0 W/m 11,1 C 11,1 C 19,3 km/h (3 Bft) 96,30 %
11.05.2016 22:01 14,9 C 78 % 1001,0 hPa 0,0 l/m 18,9 km/h (3 Bft) NO 41 0 min 0,051 mm 0,0 UV-I 0 W/m 11,1 C 9,9 C 22,5 km/h (4 Bft) 100,00 %
11.05.2016 22:02 14,9 C 78 % 1001,0 hPa 0,0 l/m 16,5 km/h (3 Bft) NO 51 0 min 0,000 mm 0,0 UV-I 0 W/m 11,1 C 10,6 C 22,5 km/h (4 Bft) 100,00 %
11.05.2016 22:03 14,9 C 78 % 1001,0 hPa 0,0 l/m 20,1 km/h (4 Bft) NO 36 0 min 0,000 mm 0,0 UV-I 0 W/m 11,1 C 9,6 C 29,0 km/h (5 Bft) 100,00 %
11.05.2016 22:04 14,8 C 78 % 1001,0 hPa 0,0 l/m 16,7 km/h (3 Bft) O-NO 59 0 min 0,000 mm 0,0 UV-I 0 W/m 11,0 C 10,4 C 22,5 km/h (4 Bft) 100,00 %
11.05.2016 22:05 14,8 C 78 % 1001,0 hPa 0,0 l/m 19,1 km/h (3 Bft) NO 49 0 min 0,000 mm 0,0 UV-I 0 W/m 11,0 C 9,7 C 22,5 km/h (4 Bft) 93,33 %
11.05.2016 22:06 14,8 C 78 % 1001,0 hPa 0,0 l/m 18,6 km/h (3 Bft) NO 45 0 min 0,000 mm 0,0 UV-I 0 W/m 11,0 C 9,9 C 24,1 km/h (4 Bft) 100,00 %
11.05.2016 22:07 14,8 C 78 % 1001,0 hPa 0,0 l/m 17,7 km/h (3 Bft) NO 44 0 min 0,000 mm 0,0 UV-I 0 W/m 11,0 C 10,1 C 22,5 km/h (4 Bft) 100,00 %
11.05.2016 22:08 14,8 C 78 % 1001,0 hPa 0,0 l/m 15,4 km/h (3 Bft) N-NO 33 0 min 0,000 mm 0,0 UV-I 0 W/m 11,0 C 10,8 C 20,9 km/h (4 Bft) 100,00 %
11.05.2016 22:09 14,8 C 78 % 1001,0 hPa 0,0 l/m 11,5 km/h (2 Bft) NO 52 0 min 0,000 mm 0,0 UV-I 0 W/m 11,0 C 12,2 C 16,1 km/h (3 Bft) 91,67 %
11.05.2016 22:10 14,8 C 78 % 1001,0 hPa 0,0 l/m 16,3 km/h (3 Bft) NO 48 0 min 0,000 mm 0,0 UV-I 0 W/m 11,0 C 10,5 C 22,5 km/h (4 Bft) 100,00 %
11.05.2016 22:11 14,8 C 78 % 1001,0 hPa 0,0 l/m 16,8 km/h (3 Bft) O-NO 63 0 min 0,000 mm 0,0 UV-I 0 W/m 11,0 C 10,4 C 20,9 km/h (4 Bft) 96,30 %
11.05.2016 22:12 14,8 C 78 % 1000,9 hPa 0,0 l/m 13,1 km/h (3 Bft) NO 55 0 min 0,000 mm 0,0 UV-I 0 W/m 11,0 C 11,6 C 22,5 km/h (4 Bft) 100,00 %
11.05.2016 22:13 14,7 C 78 % 1001,0 hPa 0,0 l/m 17,2 km/h (3 Bft) O-NO 69 0 min 0,000 mm 0,0 UV-I 0 W/m 10,9 C 10,1 C 25,7 km/h (4 Bft) 100,00 %
11.05.2016 22:14 14,7 C 78 % 1000,9 hPa 0,0 l/m 14,5 km/h (3 Bft) NO 44 0 min 0,000 mm 0,0 UV-I 0 W/m 10,9 C 11,0 C 20,9 km/h (4 Bft) 100,00 %
11.05.2016 22:15 14,7 C 79 % 1000,9 hPa 0,0 l/m 15,0 km/h (3 Bft) NO 43 0 min 0,000 mm 0,0 UV-I 0 W/m 11,1 C 10,8 C 25,7 km/h (4 Bft) 100,00 %
11.05.2016 22:16 14,7 C 79 % 1000,9 hPa 0,0 l/m 15,9 km/h (3 Bft) NO 46 0 min 0,000 mm 0,0 UV-I 0 W/m 11,1 C 10,5 C 24,1 km/h (4 Bft) 100,00 %
11.05.2016 22:17 14,7 C 79 % 1000,9 hPa 0,0 l/m 17,0 km/h (3 Bft) NO 55 0 min 0,000 mm 0,0 UV-I 0 W/m 11,1 C 10,2 C 24,1 km/h (4 Bft) 100,00 %
11.05.2016 22:18 14,7 C 79 % 1000,9 hPa 0,0 l/m 17,1 km/h (3 Bft) NO 55 0 min 0,000 mm 0,0 UV-I 0 W/m 11,1 C 10,2 C 24,1 km/h (4 Bft) 100,00 %
11.05.2016 22:19 14,7 C 79 % 1000,9 hPa 0,0 l/m 15,8 km/h (3 Bft) O-NO 62 0 min 0,000 mm 0,0 UV-I 0 W/m 11,1 C 10,6 C 20,9 km/h (4 Bft) 100,00 %
11.05.2016 22:20 14,7 C 79 % 1000,9 hPa 0,0 l/m 15,8 km/h (3 Bft) NO 56 0 min 0,000 mm 0,0 UV-I 0 W/m 11,1 C 10,6 C 20,9 km/h (4 Bft) 100,00 %
11.05.2016 22:21 14,7 C 79 % 1001,0 hPa 0,0 l/m 17,0 km/h (3 Bft) NO 42 0 min 0,000 mm 0,0 UV-I 0 W/m 11,1 C 10,2 C 20,9 km/h (4 Bft) 100,00 %
11.05.2016 22:22 14,7 C 79 % 1000,9 hPa 0,0 l/m 14,5 km/h (3 Bft) O-NO 69 0 min 0,000 mm 0,0 UV-I 0 W/m 11,1 C 11,0 C 20,9 km/h (4 Bft) 100,00 %
11.05.2016 22:23 14,6 C 79 % 1000,9 hPa 0,0 l/m 16,3 km/h (3 Bft) NO 55 0 min 0,000 mm 0,0 UV-I 0 W/m 11,0 C 10,3 C 24,1 km/h (4 Bft) 100,00 %
11.05.2016 22:24 14,6 C 79 % 1001,0 hPa 0,0 l/m 13,8 km/h (3 Bft) NO 49 0 min 0,000 mm 0,0 UV-I 0 W/m 11,0 C 11,1 C 16,1 km/h (3 Bft) 100,00 %
11.05.2016 22:25 14,6 C 79 % 1001,0 hPa 0,0 l/m 10,9 km/h (2 Bft) NO 54 0 min 0,000 mm 0,0 UV-I 0 W/m 11,0 C 12,3 C 16,1 km/h (3 Bft) 100,00 %
11.05.2016 22:26 14,6 C 79 % 1001,0 hPa 0,0 l/m 12,9 km/h (3 Bft) NO 38 0 min 0,000 mm 0,0 UV-I 0 W/m 11,0 C 11,5 C 20,9 km/h (4 Bft) 93,10 %
11.05.2016 22:27 14,6 C 79 % 1001,0 hPa 0,0 l/m 16,0 km/h (3 Bft) NO 51 0 min 0,000 mm 0,0 UV-I 0 W/m 11,0 C 10,4 C 25,7 km/h (4 Bft) 100,00 %
11.05.2016 22:28 14,6 C 79 % 1001,0 hPa 0,0 l/m 17,3 km/h (3 Bft) O-NO 59 0 min 0,000 mm 0,0 UV-I 0 W/m 11,0 C 10,0 C 24,1 km/h (4 Bft) 100,00 %
11.05.2016 22:29 14,5 C 79 % 1000,9 hPa 0,0 l/m 14,3 km/h (3 Bft) NO 56 0 min 0,000 mm 0,0 UV-I 0 W/m 10,9 C 10,8 C 17,7 km/h (3 Bft) 100,00 %
11.05.2016 22:30 14,5 C 80 % 1000,9 hPa 0,0 l/m 15,0 km/h (3 Bft) O-NO 63 0 min 0,000 mm 0,0 UV-I 0 W/m 11,1 C 10,6 C 20,9 km/h (4 Bft) 100,00 %
11.05.2016 22:31 14,5 C 80 % 1000,9 hPa 0,0 l/m 14,6 km/h (3 Bft) NO 40 0 min 0,000 mm 0,0 UV-I 0 W/m 11,1 C 10,7 C 22,5 km/h (4 Bft) 100,00 %
11.05.2016 22:32 14,5 C 80 % 1000,9 hPa 0,0 l/m 16,3 km/h (3 Bft) O-NO 67 0 min 0,000 mm 0,0 UV-I 0 W/m 11,1 C 10,2 C 20,9 km/h (4 Bft) 100,00 %
11.05.2016 22:33 14,5 C 80 % 1000,9 hPa 0,0 l/m 14,6 km/h (3 Bft) NO 43 0 min 0,000 mm 0,0 UV-I 0 W/m 11,1 C 10,7 C 17,7 km/h (3 Bft) 100,00 %
11.05.2016 22:34 14,5 C 80 % 1000,9 hPa 0,0 l/m 11,0 km/h (2 Bft) O-NO 62 0 min 0,000 mm 0,0 UV-I 0 W/m 11,1 C 12,1 C 17,7 km/h (3 Bft) 100,00 %
11.05.2016 22:35 14,4 C 80 % 1000,9 hPa 0,0 l/m 12,4 km/h (3 Bft) NO 49 0 min 0,000 mm 0,0 UV-I 0 W/m 11,0 C 11,4 C 19,3 km/h (3 Bft) 100,00 %
11.05.2016 22:36 14,4 C 80 % 1000,9 hPa 0,0 l/m 13,2 km/h (3 Bft) NO 46 0 min 0,000 mm 0,0 UV-I 0 W/m 11,0 C 11,1 C 16,1 km/h (3 Bft) 96,67 %
11.05.2016 22:37 14,4 C 80 % 1000,9 hPa 0,0 l/m 11,3 km/h (2 Bft) NO 50 0 min 0,000 mm 0,0 UV-I 0 W/m 11,0 C 11,9 C 19,3 km/h (3 Bft) 100,00 %
11.05.2016 22:38 14,4 C 80 % 1000,9 hPa 0,0 l/m 16,0 km/h (3 Bft) NO 53 0 min 0,000 mm 0,0 UV-I 0 W/m 11,0 C 10,1 C 20,9 km/h (4 Bft) 100,00 %
11.05.2016 22:39 14,4 C 80 % 1000,9 hPa 0,0 l/m 12,5 km/h (3 Bft) O-NO 65 0 min 0,000 mm 0,0 UV-I 0 W/m 11,0 C 11,4 C 17,7 km/h (3 Bft) 95,65 %
11.05.2016 22:40 14,4 C 80 % 1000,9 hPa 0,0 l/m 10,3 km/h (2 Bft) O-NO 61 0 min 0,000 mm 0,0 UV-I 0 W/m 11,0 C 12,3 C 19,3 km/h (3 Bft) 100,00 %
11.05.2016 22:41 14,4 C 80 % 1000,8 hPa 0,0 l/m 12,2 km/h (2 Bft) O 92 0 min 0,000 mm 0,0 UV-I 0 W/m 11,0 C 11,5 C 17,7 km/h (3 Bft) 100,00 %
11.05.2016 22:42 14,4 C 80 % 1000,8 hPa 0,0 l/m 12,9 km/h (3 Bft) O-NO 65 0 min 0,000 mm 0,0 UV-I 0 W/m 11,0 C 11,2 C 17,7 km/h (3 Bft) 100,00 %
11.05.2016 22:43 14,4 C 80 % 1000,8 hPa 0,0 l/m 15,6 km/h (3 Bft) NO 34 0 min 0,000 mm 0,0 UV-I 0 W/m 11,0 C 10,3 C 22,5 km/h (4 Bft) 100,00 %
11.05.2016 22:44 14,4 C 80 % 1000,8 hPa 0,0 l/m 20,4 km/h (4 Bft) O-NO 65 0 min 0,000 mm 0,0 UV-I 0 W/m 11,0 C 8,9 C 29,0 km/h (5 Bft) 100,00 %
11.05.2016 22:45 14,4 C 80 % 1000,8 hPa 0,0 l/m 15,0 km/h (3 Bft) O-NO 63 0 min 0,000 mm 0,0 UV-I 0 W/m 11,0 C 10,5 C 22,5 km/h (4 Bft) 96,15 %
11.05.2016 22:46 14,4 C 80 % 1000,8 hPa 0,0 l/m 11,3 km/h (2 Bft) O 84 0 min 0,000 mm 0,0 UV-I 0 W/m 11,0 C 11,9 C 17,7 km/h (3 Bft) 100,00 %
11.05.2016 22:47 14,4 C 80 % 1000,8 hPa 0,0 l/m 16,0 km/h (3 Bft) O-NO 64 0 min 0,000 mm 0,0 UV-I 0 W/m 11,0 C 10,1 C 19,3 km/h (3 Bft) 100,00 %
11.05.2016 22:48 14,4 C 80 % 1000,8 hPa 0,0 l/m 14,5 km/h (3 Bft) NO 38 0 min 0,000 mm 0,0 UV-I 0 W/m 11,0 C 10,6 C 19,3 km/h (3 Bft) 96,15 %
11.05.2016 22:49 14,4 C 80 % 1000,7 hPa 0,0 l/m 13,3 km/h (3 Bft) O-NO 57 0 min 0,000 mm 0,0 UV-I 0 W/m 11,0 C 11,1 C 20,9 km/h (4 Bft) 100,00 %
11.05.2016 22:50 14,3 C 80 % 1000,8 hPa 0,0 l/m 11,8 km/h (2 Bft) O-NO 62 0 min 0,000 mm 0,0 UV-I 0 W/m 10,9 C 11,5 C 16,1 km/h (3 Bft) 100,00 %
11.05.2016 22:51 14,3 C 80 % 1000,7 hPa 0,0 l/m 16,1 km/h (3 Bft) O-NO 59 0 min 0,000 mm 0,0 UV-I 0 W/m 10,9 C 10,0 C 24,1 km/h (4 Bft) 96,67 %
11.05.2016 22:52 14,3 C 80 % 1000,8 hPa 0,0 l/m 17,6 km/h (3 Bft) N-NO 32 0 min 0,000 mm 0,0 UV-I 0 W/m 10,9 C 9,5 C 25,7 km/h (4 Bft) 95,65 %
11.05.2016 22:53 14,3 C 80 % 1000,8 hPa 0,0 l/m 16,6 km/h (3 Bft) NO 53 0 min 0,000 mm 0,0 UV-I 0 W/m 10,9 C 9,8 C 20,9 km/h (4 Bft) 95,83 %
11.05.2016 22:54 14,3 C 80 % 1000,8 hPa 0,0 l/m 16,2 km/h (3 Bft) NO 55 0 min 0,000 mm 0,0 UV-I 0 W/m 10,9 C 9,9 C 22,5 km/h (4 Bft) 100,00 %
11.05.2016 22:55 14,3 C 80 % 1000,7 hPa 0,0 l/m 17,7 km/h (3 Bft) O-NO 68 0 min 0,000 mm 0,0 UV-I 0 W/m 10,9 C 9,5 C 20,9 km/h (4 Bft) 100,00 %
11.05.2016 22:56 14,3 C 80 % 1000,7 hPa 0,0 l/m 14,1 km/h (3 Bft) N-NO 30 0 min 0,000 mm 0,0 UV-I 0 W/m 10,9 C 10,7 C 22,5 km/h (4 Bft) 100,00 %
11.05.2016 22:57 14,3 C 80 % 1000,7 hPa 0,0 l/m 12,0 km/h (2 Bft) NO 51 0 min 0,000 mm 0,0 UV-I 0 W/m 10,9 C 11,5 C 17,7 km/h (3 Bft) 96,30 %
11.05.2016 22:58 14,3 C 80 % 1000,7 hPa 0,0 l/m 16,0 km/h (3 Bft) NO 36 0 min 0,000 mm 0,0 UV-I 0 W/m 10,9 C 10,0 C 24,1 km/h (4 Bft) 90,91 %
11.05.2016 22:59 14,3 C 80 % 1000,7 hPa 0,0 l/m 15,4 km/h (3 Bft) N-NO 31 0 min 0,000 mm 0,0 UV-I 0 W/m 10,9 C 10,2 C 22,5 km/h (4 Bft) 100,00 %
11.05.2016 23:00 14,3 C 81 % 1000,7 hPa 0,0 l/m 15,2 km/h (3 Bft) O-NO 68 0 min 0,000 mm 0,0 UV-I 0 W/m 11,1 C 10,3 C 20,9 km/h (4 Bft) 100,00 %
11.05.2016 23:01 14,3 C 81 % 1000,7 hPa 0,0 l/m 17,9 km/h (3 Bft) NO 51 0 min 0,050 mm 0,0 UV-I 0 W/m 11,1 C 9,4 C 27,4 km/h (4 Bft) 92,59 %
11.05.2016 23:02 14,3 C 81 % 1000,6 hPa 0,0 l/m 13,4 km/h (3 Bft) O-NO 63 0 min 0,000 mm 0,0 UV-I 0 W/m 11,1 C 10,9 C 17,7 km/h (3 Bft) 100,00 %
11.05.2016 23:03 14,3 C 81 % 1000,7 hPa 0,0 l/m 17,5 km/h (3 Bft) O-NO 77 0 min 0,000 mm 0,0 UV-I 0 W/m 11,1 C 9,5 C 20,9 km/h (4 Bft) 100,00 %
11.05.2016 23:04 14,3 C 81 % 1000,6 hPa 0,0 l/m 15,8 km/h (3 Bft) O-NO 61 0 min 0,000 mm 0,0 UV-I 0 W/m 11,1 C 10,1 C 20,9 km/h (4 Bft) 96,15 %
11.05.2016 23:05 14,2 C 81 % 1000,6 hPa 0,0 l/m 17,8 km/h (3 Bft) O-NO 74 0 min 0,000 mm 0,0 UV-I 0 W/m 11,0 C 9,3 C 22,5 km/h (4 Bft) 100,00 %
11.05.2016 23:06 14,2 C 81 % 1000,6 hPa 0,0 l/m 14,4 km/h (3 Bft) NO 50 0 min 0,000 mm 0,0 UV-I 0 W/m 11,0 C 10,4 C 24,1 km/h (4 Bft) 100,00 %
11.05.2016 23:07 14,2 C 81 % 1000,7 hPa 0,0 l/m 23,3 km/h (4 Bft) O-NO 57 0 min 0,000 mm 0,0 UV-I 0 W/m 11,0 C 7,9 C 27,4 km/h (4 Bft) 100,00 %
11.05.2016 23:08 14,2 C 81 % 1000,6 hPa 0,0 l/m 18,7 km/h (3 Bft) N-NO 32 0 min 0,000 mm 0,0 UV-I 0 W/m 11,0 C 9,1 C 25,7 km/h (4 Bft) 100,00 %
11.05.2016 23:09 14,2 C 81 % 1000,6 hPa 0,0 l/m 20,3 km/h (4 Bft) NO 41 0 min 0,000 mm 0,0 UV-I 0 W/m 11,0 C 8,6 C 29,0 km/h (5 Bft) 95,65 %
11.05.2016 23:10 14,2 C 81 % 1000,6 hPa 0,0 l/m 19,3 km/h (3 Bft) NO 40 0 min 0,000 mm 0,0 UV-I 0 W/m 11,0 C 8,9 C 24,1 km/h (4 Bft) 100,00 %
11.05.2016 23:11 14,3 C 81 % 1000,6 hPa 0,0 l/m 17,3 km/h (3 Bft) O-NO 60 0 min 0,000 mm 0,0 UV-I 0 W/m 11,1 C 9,6 C 25,7 km/h (4 Bft) 100,00 %
11.05.2016 23:12 14,2 C 81 % 1000,6 hPa 0,0 l/m 14,8 km/h (3 Bft) O-NO 67 0 min 0,000 mm 0,0 UV-I 0 W/m 11,0 C 10,3 C 19,3 km/h (3 Bft) 100,00 %
11.05.2016 23:13 14,2 C 81 % 1000,6 hPa 0,0 l/m 18,4 km/h (3 Bft) NO 52 0 min 0,000 mm 0,0 UV-I 0 W/m 11,0 C 9,2 C 25,7 km/h (4 Bft) 100,00 %
11.05.2016 23:14 14,2 C 81 % 1000,6 hPa 0,0 l/m 20,1 km/h (4 Bft) NO 43 0 min 0,000 mm 0,0 UV-I 0 W/m 11,0 C 8,7 C 27,4 km/h (4 Bft) 100,00 %
11.05.2016 23:15 14,2 C 81 % 1000,6 hPa 0,0 l/m 17,6 km/h (3 Bft) O-NO 60 0 min 0,000 mm 0,0 UV-I 0 W/m 11,0 C 9,4 C 22,5 km/h (4 Bft) 91,30 %
11.05.2016 23:16 14,2 C 81 % 1000,6 hPa 0,0 l/m 21,3 km/h (4 Bft) NO 41 0 min 0,000 mm 0,0 UV-I 0 W/m 11,0 C 8,4 C 27,4 km/h (4 Bft) 96,30 %
11.05.2016 23:17 14,2 C 81 % 1000,6 hPa 0,0 l/m 21,4 km/h (4 Bft) NO 52 0 min 0,000 mm 0,0 UV-I 0 W/m 11,0 C 8,4 C 25,7 km/h (4 Bft) 100,00 %
11.05.2016 23:18 14,2 C 81 % 1000,6 hPa 0,0 l/m 20,1 km/h (4 Bft) NO 52 0 min 0,000 mm 0,0 UV-I 0 W/m 11,0 C 8,7 C 24,1 km/h (4 Bft) 93,33 %
11.05.2016 23:19 14,3 C 81 % 1000,6 hPa 0,0 l/m 20,8 km/h (4 Bft) NO 41 0 min 0,000 mm 0,0 UV-I 0 W/m 11,1 C 8,6 C 29,0 km/h (5 Bft) 96,15 %
11.05.2016 23:20 14,2 C 81 % 1000,6 hPa 0,0 l/m 19,9 km/h (4 Bft) O-NO 71 0 min 0,000 mm 0,0 UV-I 0 W/m 11,0 C 8,7 C 24,1 km/h (4 Bft) 96,67 %
11.05.2016 23:21 14,2 C 81 % 1000,6 hPa 0,0 l/m 18,9 km/h (3 Bft) NO 41 0 min 0,000 mm 0,0 UV-I 0 W/m 11,0 C 9,0 C 24,1 km/h (4 Bft) 95,65 %
11.05.2016 23:22 14,2 C 81 % 1000,6 hPa 0,0 l/m 18,5 km/h (3 Bft) NO 55 0 min 0,000 mm 0,0 UV-I 0 W/m 11,0 C 9,1 C 24,1 km/h (4 Bft) 95,83 %
11.05.2016 23:23 14,2 C 81 % 1000,6 hPa 0,0 l/m 15,4 km/h (3 Bft) O-NO 74 0 min 0,000 mm 0,0 UV-I 0 W/m 11,0 C 10,1 C 20,9 km/h (4 Bft) 100,00 %
11.05.2016 23:24 14,2 C 81 % 1000,6 hPa 0,0 l/m 18,3 km/h (3 Bft) O-NO 62 0 min 0,000 mm 0,0 UV-I 0 W/m 11,0 C 9,2 C 29,0 km/h (5 Bft) 92,59 %
11.05.2016 23:25 14,2 C 81 % 1000,6 hPa 0,0 l/m 19,2 km/h (3 Bft) O-NO 60 0 min 0,000 mm 0,0 UV-I 0 W/m 11,0 C 8,9 C 25,7 km/h (4 Bft) 95,65 %
11.05.2016 23:26 14,2 C 81 % 1000,6 hPa 0,0 l/m 15,0 km/h (3 Bft) O-NO 64 0 min 0,000 mm 0,0 UV-I 0 W/m 11,0 C 10,2 C 19,3 km/h (3 Bft) 100,00 %
11.05.2016 23:27 14,2 C 81 % 1000,6 hPa 0,0 l/m 17,2 km/h (3 Bft) O-NO 67 0 min 0,000 mm 0,0 UV-I 0 W/m 11,0 C 9,5 C 22,5 km/h (4 Bft) 93,33 %
11.05.2016 23:28 14,2 C 81 % 1000,5 hPa 0,0 l/m 17,1 km/h (3 Bft) O-NO 65 0 min 0,000 mm 0,0 UV-I 0 W/m 11,0 C 9,5 C 20,9 km/h (4 Bft) 94,74 %
11.05.2016 23:29 14,2 C 81 % 1000,6 hPa 0,0 l/m 16,7 km/h (3 Bft) NO 40 0 min 0,000 mm 0,0 UV-I 0 W/m 11,0 C 9,7 C 22,5 km/h (4 Bft) 96,55 %
11.05.2016 23:30 14,2 C 81 % 1000,6 hPa 0,0 l/m 16,3 km/h (3 Bft) O 93 0 min 0,000 mm 0,0 UV-I 0 W/m 11,0 C 9,8 C 20,9 km/h (4 Bft) 93,33 %
11.05.2016 23:31 14,2 C 81 % 1000,6 hPa 0,0 l/m 15,3 km/h (3 Bft) NO 45 0 min 0,000 mm 0,0 UV-I 0 W/m 11,0 C 10,1 C 20,9 km/h (4 Bft) 96,30 %
11.05.2016 23:32 14,2 C 81 % 1000,5 hPa 0,0 l/m 17,5 km/h (3 Bft) NO 48 0 min 0,000 mm 0,0 UV-I 0 W/m 11,0 C 9,4 C 27,4 km/h (4 Bft) 92,31 %
11.05.2016 23:33 14,2 C 81 % 1000,6 hPa 0,0 l/m 21,2 km/h (4 Bft) O-NO 63 0 min 0,000 mm 0,0 UV-I 0 W/m 11,0 C 8,4 C 27,4 km/h (4 Bft) 100,00 %
11.05.2016 23:34 14,2 C 81 % 1000,5 hPa 0,0 l/m 18,2 km/h (3 Bft) O-NO 57 0 min 0,000 mm 0,0 UV-I 0 W/m 11,0 C 9,2 C 25,7 km/h (4 Bft) 93,10 %
11.05.2016 23:35 14,2 C 81 % 1000,6 hPa 0,0 l/m 13,9 km/h (3 Bft) O-NO 74 0 min 0,000 mm 0,0 UV-I 0 W/m 11,0 C 10,6 C 17,7 km/h (3 Bft) 100,00 %
11.05.2016 23:36 14,2 C 81 % 1000,6 hPa 0,0 l/m 20,0 km/h (4 Bft) NO 49 0 min 0,000 mm 0,0 UV-I 0 W/m 11,0 C 8,7 C 25,7 km/h (4 Bft) 96,15 %
11.05.2016 23:37 14,2 C 81 % 1000,5 hPa 0,0 l/m 21,2 km/h (4 Bft) NO 55 0 min 0,000 mm 0,0 UV-I 0 W/m 11,0 C 8,4 C 27,4 km/h (4 Bft) 96,30 %
11.05.2016 23:38 14,2 C 81 % 1000,5 hPa 0,0 l/m 18,4 km/h (3 Bft) NO 36 0 min 0,000 mm 0,0 UV-I 0 W/m 11,0 C 9,2 C 22,5 km/h (4 Bft) 92,86 %
11.05.2016 23:39 14,2 C 81 % 1000,5 hPa 0,0 l/m 16,7 km/h (3 Bft) O-NO 67 0 min 0,000 mm 0,0 UV-I 0 W/m 11,0 C 9,7 C 22,5 km/h (4 Bft) 100,00 %
11.05.2016 23:40 14,2 C 81 % 1000,5 hPa 0,0 l/m 18,5 km/h (3 Bft) O-NO 63 0 min 0,000 mm 0,0 UV-I 0 W/m 11,0 C 9,1 C 25,7 km/h (4 Bft) 92,31 %
11.05.2016 23:41 14,2 C 81 % 1000,5 hPa 0,0 l/m 20,1 km/h (4 Bft) NO 43 0 min 0,000 mm 0,0 UV-I 0 W/m 11,0 C 8,7 C 27,4 km/h (4 Bft) 96,30 %
11.05.2016 23:42 14,2 C 81 % 1000,5 hPa 0,0 l/m 18,6 km/h (3 Bft) O-NO 63 0 min 0,000 mm 0,0 UV-I 0 W/m 11,0 C 9,1 C 24,1 km/h (4 Bft) 100,00 %
11.05.2016 23:43 14,2 C 81 % 1000,5 hPa 0,0 l/m 20,6 km/h (4 Bft) NO 45 0 min 0,000 mm 0,0 UV-I 0 W/m 11,0 C 8,6 C 24,1 km/h (4 Bft) 96,55 %
11.05.2016 23:44 14,2 C 81 % 1000,5 hPa 0,0 l/m 17,4 km/h (3 Bft) O-NO 61 0 min 0,000 mm 0,0 UV-I 0 W/m 11,0 C 9,4 C 24,1 km/h (4 Bft) 100,00 %
11.05.2016 23:45 14,2 C 81 % 1000,5 hPa 0,0 l/m 15,4 km/h (3 Bft) NO 56 0 min 0,000 mm 0,0 UV-I 0 W/m 11,0 C 10,1 C 22,5 km/h (4 Bft) 96,30 %
11.05.2016 23:46 14,2 C 81 % 1000,5 hPa 0,0 l/m 17,9 km/h (3 Bft) O-NO 70 0 min 0,000 mm 0,0 UV-I 0 W/m 11,0 C 9,3 C 24,1 km/h (4 Bft) 100,00 %
11.05.2016 23:47 14,2 C 81 % 1000,5 hPa 0,0 l/m 21,7 km/h (4 Bft) O-NO 57 0 min 0,000 mm 0,0 UV-I 0 W/m 11,0 C 8,3 C 25,7 km/h (4 Bft) 93,33 %
11.05.2016 23:48 14,2 C 81 % 1000,4 hPa 0,0 l/m 21,3 km/h (4 Bft) NO 47 0 min 0,000 mm 0,0 UV-I 0 W/m 11,0 C 8,4 C 25,7 km/h (4 Bft) 100,00 %
11.05.2016 23:49 14,2 C 81 % 1000,4 hPa 0,0 l/m 18,8 km/h (3 Bft) NO 40 0 min 0,000 mm 0,0 UV-I 0 W/m 11,0 C 9,0 C 29,0 km/h (5 Bft) 100,00 %
11.05.2016 23:50 14,2 C 81 % 1000,4 hPa 0,0 l/m 17,6 km/h (3 Bft) NO 38 0 min 0,000 mm 0,0 UV-I 0 W/m 11,0 C 9,4 C 24,1 km/h (4 Bft) 100,00 %
11.05.2016 23:51 14,2 C 81 % 1000,4 hPa 0,0 l/m 20,6 km/h (4 Bft) O 80 0 min 0,000 mm 0,0 UV-I 0 W/m 11,0 C 8,6 C 29,0 km/h (5 Bft) 98,58 %
11.05.2016 23:52 14,2 C 81 % 1000,4 hPa 0,0 l/m 17,9 km/h (3 Bft) NO 43 0 min 0,000 mm 0,0 UV-I 0 W/m 11,0 C 9,3 C 24,1 km/h (4 Bft) 97,56 %
11.05.2016 23:53 14,2 C 81 % 1000,4 hPa 0,0 l/m 17,9 km/h (3 Bft) NO 44 0 min 0,000 mm 0,0 UV-I 0 W/m 11,0 C 9,3 C 24,1 km/h (4 Bft) 100,00 %
11.05.2016 23:54 14,2 C 81 % 1000,4 hPa 0,0 l/m 17,1 km/h (3 Bft) O-NO 70 0 min 0,000 mm 0,0 UV-I 0 W/m 11,0 C 9,5 C 27,4 km/h (4 Bft) 100,00 %
11.05.2016 23:55 14,1 C 81 % 1000,4 hPa 0,0 l/m 20,3 km/h (4 Bft) O-NO 63 0 min 0,000 mm 0,0 UV-I 0 W/m 10,9 C 8,5 C 29,0 km/h (5 Bft) 100,00 %
11.05.2016 23:56 14,2 C 81 % 1000,4 hPa 0,0 l/m 15,7 km/h (3 Bft) O-NO 69 0 min 0,000 mm 0,0 UV-I 0 W/m 11,0 C 10,0 C 25,7 km/h (4 Bft) 100,00 %
11.05.2016 23:57 14,2 C 81 % 1000,4 hPa 0,0 l/m 20,5 km/h (4 Bft) NO 40 0 min 0,000 mm 0,0 UV-I 0 W/m 11,0 C 8,6 C 27,4 km/h (4 Bft) 100,00 %
11.05.2016 23:58 14,1 C 81 % 1000,4 hPa 0,0 l/m 21,3 km/h (4 Bft) O-NO 66 0 min 0,000 mm 0,0 UV-I 0 W/m 10,9 C 8,2 C 25,7 km/h (4 Bft) 100,00 %
11.05.2016 23:59 14,2 C 81 % 1000,4 hPa 0,0 l/m 25,0 km/h (4 Bft) O-NO 58 0 min 0,000 mm 0,0 UV-I 0 W/m 11,0 C 7,5 C 30,6 km/h (5 Bft) 96,55 %
_ Min-Zeit 04:40 14:25 23:48 - 01:34 - - - - - - 04:20 06:01 01:34 10:20
Minimum _ 11,4 C 62 % 1000,4 hPa - 5,6 km/h (1 Bft) - - - - - - 9,6 C 3,4 C 8,0 km/h (2 Bft) 86,96 %
_ Max-Zeit 14:51 04:56 00:11 00:00 13:57 - - 10:02 14:01 13:46 13:47 13:30 14:50 12:29 00:00
Maximum _ 20,2 C 90 % 1009,5 hPa 0,0 l/m 39,8 km/h
O-NO (6 Bft)
- - 2 min 0,584 mm 5,3 UV-I 920 W/m 13,5 C 16,6 C 49,9 km/h
O-NO (6 Bft)
100,00 %
Durchschnitt _ 15,3 C 77 % 1005,2 hPa #0,0 l/m 22,1 km/h (4 Bft) O-NO - #7:49 h #4,851 mm 2,8 UV-I 387 W/m 11,1 C 10,0 C 29,7 km/h (5 Bft) 98,56 %